Wetterdaten: Montag, 20.05.2019
Datum Zeit Temp. A. Pool Temp. Temp. 5cm Feuchte A. Luftdruck Regen Wind Richtung Richtung Sonnenschein ET UV Solar Taupunkt Windchill Windben Empfang
20.05.2019 00:00 13,4 C 17,8 C 11,7 C 86 % 999,6 hPa 0,0 l/m 8,7 km/h (2 Bft) O-NO 67 0 min 0,000 mm 0,0 UV-I 0 W/m 11,1 C 12,0 C 12,9 km/h (3 Bft) 100,00 %
20.05.2019 00:02 13,4 C 17,8 C 12,2 C 86 % 999,7 hPa 0,0 l/m 9,7 km/h (2 Bft) O-NO 74 0 min 0,000 mm 0,0 UV-I 0 W/m 11,1 C 11,5 C 12,9 km/h (3 Bft) 100,00 %
20.05.2019 00:04 13,4 C 17,8 C 12,2 C 86 % 999,7 hPa 0,0 l/m 6,8 km/h (2 Bft) O-NO 63 0 min 0,000 mm 0,0 UV-I 0 W/m 11,1 C 13,2 C 11,3 km/h (2 Bft) 100,00 %
20.05.2019 00:06 13,4 C 17,8 C 12,2 C 86 % 999,7 hPa 0,0 l/m 8,4 km/h (2 Bft) O 86 0 min 0,000 mm 0,0 UV-I 0 W/m 11,1 C 12,2 C 12,9 km/h (3 Bft) 100,00 %
20.05.2019 00:08 13,4 C 17,8 C 12,2 C 86 % 999,7 hPa 0,0 l/m 7,1 km/h (2 Bft) O 96 0 min 0,000 mm 0,0 UV-I 0 W/m 11,1 C 13,0 C 12,9 km/h (3 Bft) 100,00 %
20.05.2019 00:10 13,4 C 17,8 C 12,2 C 86 % 999,8 hPa 0,0 l/m 8,5 km/h (2 Bft) O-NO 70 0 min 0,000 mm 0,0 UV-I 0 W/m 11,1 C 12,1 C 12,9 km/h (3 Bft) 100,00 %
20.05.2019 00:12 13,4 C 17,8 C 12,2 C 86 % 999,8 hPa 0,0 l/m 9,0 km/h (2 Bft) O 100 0 min 0,000 mm 0,0 UV-I 0 W/m 11,1 C 11,9 C 12,9 km/h (3 Bft) 100,00 %
20.05.2019 00:14 13,4 C 17,8 C 12,2 C 86 % 999,8 hPa 0,0 l/m 8,4 km/h (2 Bft) O 93 0 min 0,000 mm 0,0 UV-I 0 W/m 11,1 C 12,2 C 14,5 km/h (3 Bft) 98,00 %
20.05.2019 00:16 13,4 C 17,8 C 12,2 C 86 % 999,7 hPa 0,0 l/m 8,1 km/h (2 Bft) O 79 0 min 0,000 mm 0,0 UV-I 0 W/m 11,1 C 12,4 C 14,5 km/h (3 Bft) 95,74 %
20.05.2019 00:18 13,4 C 17,8 C 12,2 C 86 % 999,7 hPa 0,0 l/m 7,7 km/h (2 Bft) O 86 0 min 0,000 mm 0,0 UV-I 0 W/m 11,1 C 12,6 C 11,3 km/h (2 Bft) 97,56 %
20.05.2019 00:20 13,4 C 17,8 C 12,2 C 86 % 999,7 hPa 0,0 l/m 8,1 km/h (2 Bft) O 100 0 min 0,000 mm 0,0 UV-I 0 W/m 11,1 C 12,4 C 12,9 km/h (3 Bft) 98,00 %
20.05.2019 00:22 13,4 C 17,8 C 12,2 C 86 % 999,7 hPa 0,0 l/m 10,8 km/h (2 Bft) O-SO 109 0 min 0,000 mm 0,0 UV-I 0 W/m 11,1 C 11,0 C 16,1 km/h (3 Bft) 96,00 %
20.05.2019 00:24 13,5 C 17,8 C 12,2 C 86 % 999,7 hPa 0,0 l/m 12,5 km/h (3 Bft) O-SO 106 0 min 0,000 mm 0,0 UV-I 0 W/m 11,2 C 10,3 C 19,3 km/h (3 Bft) 97,37 %
20.05.2019 00:26 13,5 C 17,8 C 12,2 C 86 % 999,7 hPa 0,0 l/m 7,1 km/h (2 Bft) O-SO 117 0 min 0,000 mm 0,0 UV-I 0 W/m 11,2 C 13,1 C 12,9 km/h (3 Bft) 96,43 %
20.05.2019 00:28 13,6 C 17,8 C 12,2 C 86 % 999,6 hPa 0,0 l/m 11,0 km/h (2 Bft) O 99 0 min 0,000 mm 0,0 UV-I 0 W/m 11,3 C 11,1 C 14,5 km/h (3 Bft) 95,45 %
20.05.2019 00:30 13,6 C 17,8 C 12,2 C 86 % 999,7 hPa 0,0 l/m 10,7 km/h (2 Bft) O 98 0 min 0,000 mm 0,0 UV-I 0 W/m 11,3 C 11,2 C 14,5 km/h (3 Bft) 92,11 %
20.05.2019 00:32 13,6 C 17,8 C 12,2 C 86 % 999,7 hPa 0,0 l/m 9,9 km/h (2 Bft) O 91 0 min 0,000 mm 0,0 UV-I 0 W/m 11,3 C 11,6 C 16,1 km/h (3 Bft) 94,64 %
20.05.2019 00:34 13,5 C 17,8 C 12,2 C 86 % 999,6 hPa 0,0 l/m 10,6 km/h (2 Bft) O-SO 117 0 min 0,000 mm 0,0 UV-I 0 W/m 11,2 C 11,2 C 16,1 km/h (3 Bft) 94,00 %
20.05.2019 00:36 13,5 C 17,8 C 12,2 C 86 % 999,7 hPa 0,0 l/m 8,5 km/h (2 Bft) O 96 0 min 0,000 mm 0,0 UV-I 0 W/m 11,2 C 12,2 C 12,9 km/h (3 Bft) 100,00 %
20.05.2019 00:38 13,4 C 17,8 C 12,2 C 86 % 999,7 hPa 0,0 l/m 9,5 km/h (2 Bft) O-SO 107 0 min 0,000 mm 0,0 UV-I 0 W/m 11,1 C 11,6 C 14,5 km/h (3 Bft) 94,23 %
20.05.2019 00:40 13,4 C 17,8 C 12,2 C 86 % 999,6 hPa 0,0 l/m 10,9 km/h (2 Bft) O-SO 107 0 min 0,000 mm 0,0 UV-I 0 W/m 11,1 C 10,9 C 16,1 km/h (3 Bft) 95,83 %
20.05.2019 00:42 13,4 C 17,8 C 12,2 C 86 % 999,7 hPa 0,0 l/m 7,7 km/h (2 Bft) O 84 0 min 0,000 mm 0,0 UV-I 0 W/m 11,1 C 12,6 C 14,5 km/h (3 Bft) 97,87 %
20.05.2019 00:44 13,5 C 17,8 C 12,2 C 86 % 999,6 hPa 0,0 l/m 11,4 km/h (2 Bft) O-SO 106 0 min 0,000 mm 0,0 UV-I 0 W/m 11,2 C 10,8 C 16,1 km/h (3 Bft) 97,56 %
20.05.2019 00:46 13,4 C 17,8 C 12,2 C 86 % 999,7 hPa 0,0 l/m 8,1 km/h (2 Bft) O-SO 121 0 min 0,000 mm 0,0 UV-I 0 W/m 11,1 C 12,4 C 14,5 km/h (3 Bft) 98,00 %
20.05.2019 00:48 13,4 C 17,8 C 12,2 C 87 % 999,7 hPa 0,0 l/m 6,0 km/h (2 Bft) O-SO 103 0 min 0,000 mm 0,0 UV-I 0 W/m 11,3 C 13,4 C 9,7 km/h (2 Bft) 92,68 %
20.05.2019 00:50 13,4 C 17,8 C 11,7 C 87 % 999,7 hPa 0,0 l/m 6,4 km/h (2 Bft) SO 127 0 min 0,000 mm 0,0 UV-I 0 W/m 11,3 C 13,4 C 11,3 km/h (2 Bft) 98,21 %
20.05.2019 00:52 13,3 C 17,8 C 11,7 C 87 % 999,8 hPa 0,0 l/m 4,5 km/h (1 Bft) O-SO 111 0 min 0,000 mm 0,0 UV-I 0 W/m 11,2 C 13,3 C 11,3 km/h (2 Bft) 97,37 %
20.05.2019 00:54 13,3 C 17,8 C 11,7 C 87 % 999,8 hPa 0,0 l/m 4,5 km/h (1 Bft) SO 144 0 min 0,000 mm 0,0 UV-I 0 W/m 11,2 C 13,3 C 9,7 km/h (2 Bft) 96,00 %
20.05.2019 00:56 13,2 C 17,8 C 11,7 C 87 % 999,8 hPa 0,0 l/m 3,5 km/h (1 Bft) O 98 0 min 0,000 mm 0,0 UV-I 0 W/m 11,1 C 13,2 C 11,3 km/h (2 Bft) 95,83 %
20.05.2019 00:58 13,2 C 17,8 C 11,7 C 87 % 999,8 hPa 0,0 l/m 5,0 km/h (1 Bft) O 90 0 min 0,000 mm 0,0 UV-I 0 W/m 11,1 C 13,2 C 12,9 km/h (3 Bft) 97,01 %
20.05.2019 01:00 13,3 C 17,8 C 11,7 C 87 % 999,8 hPa 0,0 l/m 4,1 km/h (1 Bft) O 90 0 min 0,025 mm 0,0 UV-I 0 W/m 11,2 C 13,3 C 6,4 km/h (2 Bft) 90,57 %
20.05.2019 01:02 13,3 C 17,8 C 11,7 C 87 % 999,8 hPa 0,0 l/m 4,2 km/h (1 Bft) O-SO 107 0 min 0,000 mm 0,0 UV-I 0 W/m 11,2 C 13,3 C 6,4 km/h (2 Bft) 95,74 %
20.05.2019 01:04 13,3 C 17,8 C 11,7 C 87 % 999,8 hPa 0,0 l/m 5,4 km/h (1 Bft) O 99 0 min 0,000 mm 0,0 UV-I 0 W/m 11,2 C 13,3 C 9,7 km/h (2 Bft) 93,62 %
20.05.2019 01:06 13,2 C 17,8 C 11,7 C 87 % 999,8 hPa 0,0 l/m 4,6 km/h (1 Bft) O 80 0 min 0,000 mm 0,0 UV-I 0 W/m 11,1 C 13,2 C 8,0 km/h (2 Bft) 95,12 %
20.05.2019 01:08 13,2 C 17,8 C 11,7 C 87 % 999,7 hPa 0,0 l/m 5,5 km/h (1 Bft) O-SO 117 0 min 0,000 mm 0,0 UV-I 0 W/m 11,1 C 13,2 C 11,3 km/h (2 Bft) 93,62 %
20.05.2019 01:10 13,2 C 17,8 C 11,7 C 87 % 999,7 hPa 0,0 l/m 3,9 km/h (1 Bft) O-SO 105 0 min 0,000 mm 0,0 UV-I 0 W/m 11,1 C 13,2 C 4,8 km/h (1 Bft) 96,43 %
20.05.2019 01:12 13,2 C 17,8 C 11,7 C 88 % 999,7 hPa 0,0 l/m 3,9 km/h (1 Bft) O-SO 105 0 min 0,000 mm 0,0 UV-I 0 W/m 11,3 C 13,2 C 6,4 km/h (2 Bft) 93,62 %
20.05.2019 01:14 13,2 C 17,8 C 11,1 C 87 % 999,7 hPa 0,0 l/m 3,6 km/h (1 Bft) O-SO 105 0 min 0,000 mm 0,0 UV-I 0 W/m 11,1 C 13,2 C 4,8 km/h (1 Bft) 95,24 %
20.05.2019 01:16 13,2 C 17,8 C 11,1 C 88 % 999,7 hPa 0,0 l/m 4,3 km/h (1 Bft) O-SO 102 0 min 0,000 mm 0,0 UV-I 0 W/m 11,3 C 13,2 C 6,4 km/h (2 Bft) 94,23 %
20.05.2019 01:18 13,2 C 17,8 C 11,1 C 88 % 999,7 hPa 0,0 l/m 2,8 km/h (1 Bft) O 94 0 min 0,000 mm 0,0 UV-I 0 W/m 11,3 C 13,2 C 4,8 km/h (1 Bft) 95,24 %
20.05.2019 01:20 13,2 C 17,8 C 10,6 C 88 % 999,6 hPa 0,0 l/m 3,7 km/h (1 Bft) O 96 0 min 0,000 mm 0,0 UV-I 0 W/m 11,3 C 13,2 C 4,8 km/h (1 Bft) 94,00 %
20.05.2019 01:22 13,1 C 17,8 C 10,6 C 88 % 999,5 hPa 0,0 l/m 2,8 km/h (1 Bft) O 96 0 min 0,000 mm 0,0 UV-I 0 W/m 11,2 C 13,1 C 4,8 km/h (1 Bft) 95,74 %
20.05.2019 01:24 13,1 C 17,8 C 10,6 C 88 % 999,6 hPa 0,0 l/m 2,9 km/h (1 Bft) O 96 0 min 0,000 mm 0,0 UV-I 0 W/m 11,2 C 13,1 C 4,8 km/h (1 Bft) 97,37 %
20.05.2019 01:26 13,0 C 17,8 C 10,0 C 88 % 999,5 hPa 0,0 l/m 1,5 km/h (1 Bft) O 96 0 min 0,000 mm 0,0 UV-I 0 W/m 11,1 C 13,0 C 3,2 km/h (1 Bft) 95,74 %
20.05.2019 01:28 12,9 C 17,8 C 10,0 C 88 % 999,5 hPa 0,0 l/m 1,8 km/h (1 Bft) O 96 0 min 0,000 mm 0,0 UV-I 0 W/m 11,0 C 12,9 C 3,2 km/h (1 Bft) 97,73 %
20.05.2019 01:30 12,8 C 17,8 C 10,0 C 88 % 999,5 hPa 0,0 l/m 2,5 km/h (1 Bft) S-SO 167 0 min 0,000 mm 0,0 UV-I 0 W/m 10,9 C 12,8 C 6,4 km/h (2 Bft) 98,00 %
20.05.2019 01:32 12,7 C 17,8 C 9,4 C 88 % 999,5 hPa 0,0 l/m 3,6 km/h (1 Bft) S-SO 167 0 min 0,000 mm 0,0 UV-I 0 W/m 10,8 C 12,7 C 6,4 km/h (2 Bft) 97,87 %
20.05.2019 01:34 12,6 C 17,8 C 9,4 C 89 % 999,5 hPa 0,0 l/m 2,3 km/h (1 Bft) S-SO 167 0 min 0,000 mm 0,0 UV-I 0 W/m 10,8 C 12,6 C 4,8 km/h (1 Bft) 98,00 %
20.05.2019 01:36 12,5 C 17,8 C 9,4 C 89 % 999,4 hPa 0,0 l/m 2,3 km/h (1 Bft) S-SO 167 0 min 0,000 mm 0,0 UV-I 0 W/m 10,7 C 12,5 C 4,8 km/h (1 Bft) 97,87 %
20.05.2019 01:38 12,3 C 17,8 C 9,4 C 89 % 999,4 hPa 0,0 l/m 2,0 km/h (1 Bft) S-SO 167 0 min 0,000 mm 0,0 UV-I 0 W/m 10,5 C 12,3 C 4,8 km/h (1 Bft) 96,00 %
20.05.2019 01:40 12,1 C 17,8 C 9,4 C 89 % 999,5 hPa 0,0 l/m 3,2 km/h (1 Bft) S-SO 167 0 min 0,000 mm 0,0 UV-I 0 W/m 10,3 C 12,1 C 4,8 km/h (1 Bft) 97,44 %
20.05.2019 01:42 11,9 C 17,8 C 9,4 C 90 % 999,5 hPa 0,0 l/m 3,7 km/h (1 Bft) S-SO 167 0 min 0,000 mm 0,0 UV-I 0 W/m 10,3 C 11,9 C 6,4 km/h (2 Bft) 96,36 %
20.05.2019 01:44 12,1 C 17,8 C 9,4 C 91 % 999,5 hPa 0,0 l/m 4,2 km/h (1 Bft) S-SO 167 0 min 0,000 mm 0,0 UV-I 0 W/m 10,7 C 12,1 C 6,4 km/h (2 Bft) 97,44 %
20.05.2019 01:46 12,2 C 17,8 C 8,9 C 91 % 999,5 hPa 0,0 l/m 3,7 km/h (1 Bft) S-SO 167 0 min 0,000 mm 0,0 UV-I 0 W/m 10,8 C 12,2 C 6,4 km/h (2 Bft) 97,14 %
20.05.2019 01:48 12,4 C 17,8 C 8,9 C 91 % 999,5 hPa 0,0 l/m 2,6 km/h (1 Bft) S-SO 167 0 min 0,000 mm 0,0 UV-I 0 W/m 11,0 C 12,4 C 4,8 km/h (1 Bft) 98,53 %
20.05.2019 01:50 12,4 C 17,8 C 8,9 C 90 % 999,5 hPa 0,0 l/m 2,0 km/h (1 Bft) S-SO 167 0 min 0,000 mm 0,0 UV-I 0 W/m 10,8 C 12,4 C 4,8 km/h (1 Bft) 97,37 %
20.05.2019 01:52 12,4 C 17,8 C 8,9 C 90 % 999,5 hPa 0,0 l/m 1,4 km/h (1 Bft) S-SO 167 0 min 0,000 mm 0,0 UV-I 0 W/m 10,8 C 12,4 C 4,8 km/h (1 Bft) 100,00 %
20.05.2019 01:54 12,4 C 17,8 C 8,3 C 90 % 999,5 hPa 0,0 l/m 0,9 km/h (0 Bft) S-SO 167 0 min 0,000 mm 0,0 UV-I 0 W/m 10,8 C 12,4 C 1,6 km/h (1 Bft) 97,73 %
20.05.2019 01:56 12,5 C 17,8 C 8,3 C 90 % 999,5 hPa 0,0 l/m 1,1 km/h (1 Bft) S-SO 167 0 min 0,000 mm 0,0 UV-I 0 W/m 10,9 C 12,5 C 1,6 km/h (1 Bft) 96,00 %
20.05.2019 01:58 12,3 C 17,8 C 8,3 C 89 % 999,5 hPa 0,0 l/m 1,6 km/h (1 Bft) S-SO 167 0 min 0,000 mm 0,0 UV-I 0 W/m 10,5 C 12,3 C 4,8 km/h (1 Bft) 98,00 %
20.05.2019 02:00 12,2 C 17,8 C 8,3 C 89 % 999,5 hPa 0,0 l/m 1,5 km/h (1 Bft) S-SO 167 0 min 0,000 mm 0,0 UV-I 0 W/m 10,4 C 12,2 C 4,8 km/h (1 Bft) 100,00 %
20.05.2019 02:02 12,0 C 17,8 C 8,3 C 90 % 999,5 hPa 0,0 l/m 3,9 km/h (1 Bft) S-SO 167 0 min 0,000 mm 0,0 UV-I 0 W/m 10,4 C 12,0 C 4,8 km/h (1 Bft) 100,00 %
20.05.2019 02:04 11,8 C 17,8 C 8,3 C 90 % 999,5 hPa 0,0 l/m 3,4 km/h (1 Bft) S-SO 167 0 min 0,000 mm 0,0 UV-I 0 W/m 10,2 C 11,8 C 4,8 km/h (1 Bft) 100,00 %
20.05.2019 02:06 11,7 C 17,8 C 8,3 C 90 % 999,4 hPa 0,0 l/m 5,1 km/h (1 Bft) S-SO 166 0 min 0,000 mm 0,0 UV-I 0 W/m 10,1 C 11,7 C 6,4 km/h (2 Bft) 100,00 %
20.05.2019 02:08 11,7 C 17,8 C 8,9 C 91 % 999,4 hPa 0,0 l/m 4,3 km/h (1 Bft) O-SO 116 0 min 0,000 mm 0,0 UV-I 0 W/m 10,3 C 11,7 C 6,4 km/h (2 Bft) 100,00 %
20.05.2019 02:10 11,8 C 17,8 C 8,9 C 92 % 999,4 hPa 0,0 l/m 3,1 km/h (1 Bft) O-SO 104 0 min 0,000 mm 0,0 UV-I 0 W/m 10,5 C 11,8 C 6,4 km/h (2 Bft) 96,30 %
20.05.2019 02:12 12,0 C 17,8 C 8,9 C 92 % 999,4 hPa 0,0 l/m 3,0 km/h (1 Bft) O-SO 105 0 min 0,000 mm 0,0 UV-I 0 W/m 10,7 C 12,0 C 6,4 km/h (2 Bft) 100,00 %
20.05.2019 02:14 12,2 C 17,8 C 8,9 C 92 % 999,4 hPa 0,0 l/m 2,3 km/h (1 Bft) O-SO 105 0 min 0,000 mm 0,0 UV-I 0 W/m 10,9 C 12,2 C 3,2 km/h (1 Bft) 100,00 %
20.05.2019 02:16 12,1 C 17,8 C 8,9 C 91 % 999,4 hPa 0,0 l/m 1,1 km/h (1 Bft) O-SO 105 0 min 0,000 mm 0,0 UV-I 0 W/m 10,7 C 12,1 C 3,2 km/h (1 Bft) 100,00 %
20.05.2019 02:18 11,9 C 17,8 C 8,9 C 91 % 999,4 hPa 0,0 l/m 1,2 km/h (1 Bft) O-SO 105 0 min 0,000 mm 0,0 UV-I 0 W/m 10,5 C 11,9 C 3,2 km/h (1 Bft) 100,00 %
20.05.2019 02:20 11,7 C 17,8 C 9,4 C 91 % 999,4 hPa 0,0 l/m 1,8 km/h (1 Bft) O-SO 105 0 min 0,000 mm 0,0 UV-I 0 W/m 10,3 C 11,7 C 3,2 km/h (1 Bft) 98,39 %
20.05.2019 02:22 11,4 C 17,8 C 9,4 C 91 % 999,5 hPa 0,0 l/m 2,3 km/h (1 Bft) O-SO 117 0 min 0,000 mm 0,0 UV-I 0 W/m 10,0 C 11,4 C 3,2 km/h (1 Bft) 97,87 %
20.05.2019 02:24 11,3 C 17,8 C 8,9 C 91 % 999,5 hPa 0,0 l/m 4,1 km/h (1 Bft) S-SO 154 0 min 0,000 mm 0,0 UV-I 0 W/m 9,9 C 11,3 C 6,4 km/h (2 Bft) 97,87 %
20.05.2019 02:26 11,3 C 17,8 C 8,9 C 92 % 999,5 hPa 0,0 l/m 3,5 km/h (1 Bft) S-SO 154 0 min 0,000 mm 0,0 UV-I 0 W/m 10,0 C 11,3 C 4,8 km/h (1 Bft) 100,00 %
20.05.2019 02:28 11,3 C 17,8 C 8,3 C 92 % 999,5 hPa 0,0 l/m 3,1 km/h (1 Bft) S-SO 155 0 min 0,000 mm 0,0 UV-I 0 W/m 10,0 C 11,3 C 4,8 km/h (1 Bft) 100,00 %
20.05.2019 02:30 11,3 C 17,8 C 8,3 C 92 % 999,5 hPa 0,0 l/m 1,4 km/h (1 Bft) S-SO 155 0 min 0,000 mm 0,0 UV-I 0 W/m 10,0 C 11,3 C 3,2 km/h (1 Bft) 98,00 %
20.05.2019 02:32 11,4 C 17,8 C 8,3 C 92 % 999,5 hPa 0,0 l/m 2,9 km/h (1 Bft) S-SO 155 0 min 0,000 mm 0,0 UV-I 0 W/m 10,1 C 11,4 C 3,2 km/h (1 Bft) 100,00 %
20.05.2019 02:34 11,4 C 17,8 C 8,3 C 92 % 999,5 hPa 0,0 l/m 3,7 km/h (1 Bft) S-SO 155 0 min 0,000 mm 0,0 UV-I 0 W/m 10,1 C 11,4 C 4,8 km/h (1 Bft) 100,00 %
20.05.2019 02:36 11,4 C 17,8 C 8,3 C 92 % 999,5 hPa 0,0 l/m 4,6 km/h (1 Bft) S-SW 209 0 min 0,000 mm 0,0 UV-I 0 W/m 10,1 C 11,4 C 6,4 km/h (2 Bft) 100,00 %
20.05.2019 02:38 11,3 C 17,8 C 8,9 C 92 % 999,5 hPa 0,0 l/m 5,1 km/h (1 Bft) SW 227 0 min 0,000 mm 0,0 UV-I 0 W/m 10,0 C 11,3 C 6,4 km/h (2 Bft) 100,00 %
20.05.2019 02:40 11,3 C 17,8 C 9,4 C 92 % 999,5 hPa 0,0 l/m 4,6 km/h (1 Bft) SW 227 0 min 0,000 mm 0,0 UV-I 0 W/m 10,0 C 11,3 C 6,4 km/h (2 Bft) 100,00 %
20.05.2019 02:42 11,2 C 17,8 C 9,4 C 92 % 999,4 hPa 0,0 l/m 4,0 km/h (1 Bft) SW 227 0 min 0,000 mm 0,0 UV-I 0 W/m 9,9 C 11,2 C 6,4 km/h (2 Bft) 100,00 %
20.05.2019 02:44 11,1 C 17,8 C 9,4 C 92 % 999,4 hPa 0,0 l/m 2,2 km/h (1 Bft) SW 227 0 min 0,000 mm 0,0 UV-I 0 W/m 9,8 C 11,1 C 3,2 km/h (1 Bft) 100,00 %
20.05.2019 02:46 10,9 C 17,8 C 8,9 C 92 % 999,4 hPa 0,0 l/m 2,4 km/h (1 Bft) SW 227 0 min 0,000 mm 0,0 UV-I 0 W/m 9,7 C 10,9 C 3,2 km/h (1 Bft) 98,11 %
20.05.2019 02:48 10,8 C 17,8 C 9,4 C 92 % 999,4 hPa 0,0 l/m 3,6 km/h (1 Bft) SW 225 0 min 0,000 mm 0,0 UV-I 0 W/m 9,6 C 10,8 C 4,8 km/h (1 Bft) 100,00 %
20.05.2019 02:50 10,9 C 17,8 C 9,4 C 93 % 999,5 hPa 0,0 l/m 2,9 km/h (1 Bft) SW 225 0 min 0,000 mm 0,0 UV-I 0 W/m 9,8 C 10,9 C 4,8 km/h (1 Bft) 98,00 %
20.05.2019 02:52 11,0 C 17,8 C 9,4 C 93 % 999,4 hPa 0,0 l/m 1,9 km/h (1 Bft) SW 225 0 min 0,000 mm 0,0 UV-I 0 W/m 9,9 C 11,0 C 3,2 km/h (1 Bft) 100,00 %
20.05.2019 02:54 11,1 C 17,2 C 8,9 C 93 % 999,4 hPa 0,0 l/m 1,8 km/h (1 Bft) SW 225 0 min 0,000 mm 0,0 UV-I 0 W/m 10,0 C 11,1 C 3,2 km/h (1 Bft) 100,00 %
20.05.2019 02:56 10,9 C 17,2 C 8,9 C 93 % 999,4 hPa 0,0 l/m 0,5 km/h (0 Bft) SW 225 0 min 0,000 mm 0,0 UV-I 0 W/m 9,8 C 10,9 C 1,6 km/h (1 Bft) 98,00 %
20.05.2019 02:58 11,0 C 17,8 C 8,9 C 93 % 999,4 hPa 0,0 l/m 1,1 km/h (1 Bft) SW 225 0 min 0,000 mm 0,0 UV-I 0 W/m 9,9 C 11,0 C 3,2 km/h (1 Bft) 95,74 %
20.05.2019 03:00 11,1 C 17,8 C 8,9 C 93 % 999,4 hPa 0,0 l/m 2,7 km/h (1 Bft) SW 225 0 min 0,000 mm 0,0 UV-I 0 W/m 10,0 C 11,1 C 3,2 km/h (1 Bft) 98,00 %
20.05.2019 03:02 11,1 C 17,2 C 9,4 C 93 % 999,4 hPa 0,0 l/m 3,2 km/h (1 Bft) SW 225 0 min 0,000 mm 0,0 UV-I 0 W/m 10,0 C 11,1 C 4,8 km/h (1 Bft) 95,74 %
20.05.2019 03:04 11,1 C 17,2 C 10,0 C 93 % 999,4 hPa 0,0 l/m 2,4 km/h (1 Bft) SW 225 0 min 0,000 mm 0,0 UV-I 0 W/m 10,0 C 11,1 C 3,2 km/h (1 Bft) 95,74 %
20.05.2019 03:06 11,1 C 17,2 C 10,0 C 93 % 999,4 hPa 0,0 l/m 2,1 km/h (1 Bft) SW 225 0 min 0,000 mm 0,0 UV-I 0 W/m 10,0 C 11,1 C 3,2 km/h (1 Bft) 94,00 %
20.05.2019 03:08 11,0 C 17,2 C 10,0 C 93 % 999,4 hPa 0,0 l/m 1,7 km/h (1 Bft) SW 225 0 min 0,000 mm 0,0 UV-I 0 W/m 9,9 C 11,0 C 3,2 km/h (1 Bft) 94,74 %
20.05.2019 03:10 10,9 C 17,2 C 10,0 C 93 % 999,4 hPa 0,0 l/m 2,0 km/h (1 Bft) SW 225 0 min 0,000 mm 0,0 UV-I 0 W/m 9,8 C 10,9 C 3,2 km/h (1 Bft) 96,00 %
20.05.2019 03:12 10,8 C 17,2 C 10,0 C 93 % 999,4 hPa 0,0 l/m 1,4 km/h (1 Bft) SW 225 0 min 0,000 mm 0,0 UV-I 0 W/m 9,7 C 10,8 C 3,2 km/h (1 Bft) 94,34 %
20.05.2019 03:14 10,9 C 17,2 C 10,0 C 93 % 999,3 hPa 0,0 l/m 1,1 km/h (1 Bft) SW 225 0 min 0,000 mm 0,0 UV-I 0 W/m 9,8 C 10,9 C 1,6 km/h (1 Bft) 95,74 %
20.05.2019 03:16 10,9 C 17,2 C 10,0 C 93 % 999,4 hPa 0,0 l/m 1,0 km/h (0 Bft) SW 225 0 min 0,000 mm 0,0 UV-I 0 W/m 9,8 C 10,9 C 1,6 km/h (1 Bft) 97,44 %
20.05.2019 03:18 10,9 C 17,2 C 10,0 C 93 % 999,4 hPa 0,0 l/m 0,7 km/h (0 Bft) SW 225 0 min 0,000 mm 0,0 UV-I 0 W/m 9,8 C 10,9 C 1,6 km/h (1 Bft) 93,62 %
20.05.2019 03:20 10,8 C 17,2 C 10,0 C 93 % 999,4 hPa 0,0 l/m 1,1 km/h (1 Bft) SW 225 0 min 0,000 mm 0,0 UV-I 0 W/m 9,7 C 10,8 C 3,2 km/h (1 Bft) 98,00 %
20.05.2019 03:22 10,9 C 17,2 C 10,0 C 93 % 999,4 hPa 0,0 l/m 2,8 km/h (1 Bft) SW 225 0 min 0,000 mm 0,0 UV-I 0 W/m 9,8 C 10,9 C 3,2 km/h (1 Bft) 94,00 %
20.05.2019 03:24 10,9 C 17,2 C 10,6 C 93 % 999,4 hPa 0,0 l/m 4,7 km/h (1 Bft) SW 225 0 min 0,000 mm 0,0 UV-I 0 W/m 9,8 C 10,9 C 6,4 km/h (2 Bft) 97,87 %
20.05.2019 03:26 10,9 C 17,2 C 10,6 C 93 % 999,5 hPa 0,0 l/m 5,5 km/h (1 Bft) SW 219 0 min 0,000 mm 0,0 UV-I 0 W/m 9,8 C 10,9 C 6,4 km/h (2 Bft) 97,87 %
20.05.2019 03:28 10,8 C 17,2 C 10,6 C 93 % 999,4 hPa 0,0 l/m 5,7 km/h (1 Bft) SW 217 0 min 0,000 mm 0,0 UV-I 0 W/m 9,7 C 10,8 C 6,4 km/h (2 Bft) 97,87 %
20.05.2019 03:30 10,9 C 17,2 C 10,6 C 94 % 999,3 hPa 0,0 l/m 5,1 km/h (1 Bft) SW 218 0 min 0,000 mm 0,0 UV-I 0 W/m 10,0 C 10,9 C 6,4 km/h (2 Bft) 94,74 %
20.05.2019 03:32 10,9 C 17,2 C 10,6 C 94 % 999,3 hPa 0,0 l/m 6,2 km/h (2 Bft) SW 221 0 min 0,000 mm 0,0 UV-I 0 W/m 10,0 C 10,9 C 8,0 km/h (2 Bft) 98,00 %
20.05.2019 03:34 10,9 C 17,2 C 10,6 C 93 % 999,4 hPa 0,0 l/m 5,6 km/h (1 Bft) S-SW 208 0 min 0,000 mm 0,0 UV-I 0 W/m 9,8 C 10,9 C 9,7 km/h (2 Bft) 97,87 %
20.05.2019 03:36 11,0 C 17,2 C 10,6 C 94 % 999,3 hPa 0,0 l/m 4,8 km/h (1 Bft) S-SW 205 0 min 0,000 mm 0,0 UV-I 0 W/m 10,1 C 11,0 C 8,0 km/h (2 Bft) 100,00 %
20.05.2019 03:38 11,0 C 17,2 C 10,6 C 94 % 999,3 hPa 0,0 l/m 3,5 km/h (1 Bft) S-SW 209 0 min 0,000 mm 0,0 UV-I 0 W/m 10,1 C 11,0 C 4,8 km/h (1 Bft) 97,73 %
20.05.2019 03:40 11,0 C 17,2 C 10,6 C 94 % 999,3 hPa 0,0 l/m 4,7 km/h (1 Bft) S-SW 211 0 min 0,000 mm 0,0 UV-I 0 W/m 10,1 C 11,0 C 6,4 km/h (2 Bft) 97,87 %
20.05.2019 03:42 11,1 C 17,2 C 10,6 C 94 % 999,3 hPa 0,0 l/m 5,2 km/h (1 Bft) S-SW 210 0 min 0,000 mm 0,0 UV-I 0 W/m 10,2 C 11,1 C 8,0 km/h (2 Bft) 100,00 %
20.05.2019 03:44 11,1 C 17,2 C 11,1 C 94 % 999,2 hPa 0,0 l/m 4,2 km/h (1 Bft) S-SW 209 0 min 0,000 mm 0,0 UV-I 0 W/m 10,2 C 11,1 C 6,4 km/h (2 Bft) 100,00 %
20.05.2019 03:46 11,1 C 17,2 C 11,1 C 94 % 999,2 hPa 0,0 l/m 4,9 km/h (1 Bft) S-SW 209 0 min 0,000 mm 0,0 UV-I 0 W/m 10,2 C 11,1 C 8,0 km/h (2 Bft) 98,00 %
20.05.2019 03:48 11,1 C 17,2 C 11,1 C 94 % 999,3 hPa 0,0 l/m 3,9 km/h (1 Bft) S-SW 209 0 min 0,000 mm 0,0 UV-I 0 W/m 10,2 C 11,1 C 4,8 km/h (1 Bft) 98,00 %
20.05.2019 03:50 11,1 C 17,2 C 11,1 C 94 % 999,2 hPa 0,0 l/m 3,6 km/h (1 Bft) S-SW 209 0 min 0,000 mm 0,0 UV-I 0 W/m 10,2 C 11,1 C 6,4 km/h (2 Bft) 100,00 %
20.05.2019 03:52 11,1 C 17,2 C 10,6 C 94 % 999,2 hPa 0,0 l/m 3,3 km/h (1 Bft) S-SW 212 0 min 0,000 mm 0,0 UV-I 0 W/m 10,2 C 11,1 C 4,8 km/h (1 Bft) 100,00 %
20.05.2019 03:54 11,1 C 17,2 C 10,6 C 94 % 999,2 hPa 0,0 l/m 4,7 km/h (1 Bft) SW 234 0 min 0,000 mm 0,0 UV-I 0 W/m 10,2 C 11,1 C 8,0 km/h (2 Bft) 97,87 %
20.05.2019 03:56 11,1 C 17,2 C 10,6 C 94 % 999,2 hPa 0,0 l/m 4,8 km/h (1 Bft) SW 235 0 min 0,000 mm 0,0 UV-I 0 W/m 10,2 C 11,1 C 6,4 km/h (2 Bft) 97,44 %
20.05.2019 03:58 11,1 C 17,2 C 10,6 C 93 % 999,2 hPa 0,0 l/m 4,0 km/h (1 Bft) SW 221 0 min 0,000 mm 0,0 UV-I 0 W/m 10,0 C 11,1 C 6,4 km/h (2 Bft) 98,00 %
20.05.2019 04:00 11,1 C 17,2 C 10,6 C 93 % 999,2 hPa 0,0 l/m 3,7 km/h (1 Bft) SW 221 0 min 0,000 mm 0,0 UV-I 0 W/m 10,0 C 11,1 C 4,8 km/h (1 Bft) 95,74 %
20.05.2019 04:02 11,1 C 17,2 C 10,6 C 93 % 999,3 hPa 0,0 l/m 3,9 km/h (1 Bft) SW 221 0 min 0,000 mm 0,0 UV-I 0 W/m 10,0 C 11,1 C 4,8 km/h (1 Bft) 100,00 %
20.05.2019 04:04 11,2 C 17,2 C 10,6 C 93 % 999,2 hPa 0,0 l/m 1,0 km/h (0 Bft) SW 221 0 min 0,000 mm 0,0 UV-I 0 W/m 10,1 C 11,2 C 3,2 km/h (1 Bft) 98,11 %
20.05.2019 04:06 11,2 C 17,2 C 10,6 C 94 % 999,1 hPa 0,0 l/m 1,7 km/h (1 Bft) SW 221 0 min 0,000 mm 0,0 UV-I 0 W/m 10,3 C 11,2 C 3,2 km/h (1 Bft) 95,74 %
20.05.2019 04:08 11,2 C 17,2 C 10,6 C 93 % 999,1 hPa 0,0 l/m 3,0 km/h (1 Bft) SW 221 0 min 0,000 mm 0,0 UV-I 0 W/m 10,1 C 11,2 C 4,8 km/h (1 Bft) 92,00 %
20.05.2019 04:10 11,1 C 17,2 C 10,6 C 93 % 999,1 hPa 0,0 l/m 3,3 km/h (1 Bft) SW 221 0 min 0,000 mm 0,0 UV-I 0 W/m 10,0 C 11,1 C 4,8 km/h (1 Bft) 97,87 %
20.05.2019 04:12 11,1 C 17,2 C 10,6 C 93 % 999,0 hPa 0,0 l/m 1,9 km/h (1 Bft) SW 221 0 min 0,000 mm 0,0 UV-I 0 W/m 10,0 C 11,1 C 3,2 km/h (1 Bft) 97,73 %
20.05.2019 04:14 11,1 C 17,2 C 10,6 C 93 % 998,9 hPa 0,0 l/m 0,5 km/h (0 Bft) SW 221 0 min 0,000 mm 0,0 UV-I 0 W/m 10,0 C 11,1 C 1,6 km/h (1 Bft) 98,00 %
20.05.2019 04:16 11,1 C 17,2 C 10,0 C 93 % 999,0 hPa 0,0 l/m 0,2 km/h (0 Bft) SW 221 0 min 0,000 mm 0,0 UV-I 0 W/m 10,0 C 11,1 C 1,6 km/h (1 Bft) 100,00 %
20.05.2019 04:18 10,9 C 17,2 C 10,0 C 93 % 999,0 hPa 0,0 l/m 0,9 km/h (0 Bft) SW 221 0 min 0,000 mm 0,0 UV-I 0 W/m 9,8 C 10,9 C 1,6 km/h (1 Bft) 95,74 %
20.05.2019 04:20 10,9 C 17,2 C 10,0 C 93 % 998,9 hPa 0,0 l/m 0,3 km/h (0 Bft) SW 221 0 min 0,000 mm 0,0 UV-I 0 W/m 9,8 C 10,9 C 1,6 km/h (1 Bft) 96,00 %
20.05.2019 04:22 10,9 C 17,2 C 10,0 C 93 % 999,0 hPa 0,0 l/m 1,1 km/h (1 Bft) SW 221 0 min 0,000 mm 0,0 UV-I 0 W/m 9,8 C 10,9 C 3,2 km/h (1 Bft) 95,24 %
20.05.2019 04:24 10,9 C 17,2 C 10,0 C 94 % 999,0 hPa 0,0 l/m 1,5 km/h (1 Bft) SW 221 0 min 0,000 mm 0,0 UV-I 0 W/m 10,0 C 10,9 C 3,2 km/h (1 Bft) 94,00 %
20.05.2019 04:26 10,9 C 17,2 C 10,0 C 94 % 999,0 hPa 0,0 l/m 0,8 km/h (0 Bft) SW 221 0 min 0,000 mm 0,0 UV-I 0 W/m 10,0 C 10,9 C 1,6 km/h (1 Bft) 96,00 %
20.05.2019 04:28 10,9 C 17,2 C 10,0 C 94 % 999,0 hPa 0,0 l/m 0,6 km/h (0 Bft) SW 221 0 min 0,000 mm 0,0 UV-I 0 W/m 10,0 C 10,9 C 1,6 km/h (1 Bft) 95,74 %
20.05.2019 04:30 11,0 C 17,2 C 10,0 C 94 % 999,0 hPa 0,0 l/m 0,1 km/h (0 Bft) SW 221 0 min 0,000 mm 0,0 UV-I 0 W/m 10,1 C 11,0 C 1,6 km/h (1 Bft) 96,00 %
20.05.2019 04:32 11,1 C 17,2 C 10,0 C 94 % 999,0 hPa 0,0 l/m 0,0 km/h (0 Bft) SW 221 0 min 0,000 mm 0,0 UV-I 0 W/m 10,2 C 11,1 C 0,0 km/h (0 Bft) 94,00 %
20.05.2019 04:34 11,0 C 17,2 C 10,0 C 94 % 999,0 hPa 0,0 l/m 0,3 km/h (0 Bft) SW 221 0 min 0,000 mm 0,0 UV-I 0 W/m 10,1 C 11,0 C 1,6 km/h (1 Bft) 95,12 %
20.05.2019 04:36 10,9 C 17,2 C 10,0 C 94 % 999,0 hPa 0,0 l/m 0,0 km/h (0 Bft) SW 221 0 min 0,000 mm 0,0 UV-I 0 W/m 10,0 C 10,9 C 0,0 km/h (0 Bft) 97,37 %
20.05.2019 04:38 10,9 C 17,2 C 10,0 C 94 % 999,0 hPa 0,0 l/m 0,0 km/h (0 Bft) SW 221 0 min 0,000 mm 0,0 UV-I 0 W/m 10,0 C 10,9 C 1,6 km/h (1 Bft) 93,18 %
20.05.2019 04:40 11,0 C 17,2 C 10,0 C 94 % 999,0 hPa 0,0 l/m 0,6 km/h (0 Bft) SW 221 0 min 0,000 mm 0,0 UV-I 0 W/m 10,1 C 11,0 C 1,6 km/h (1 Bft) 96,23 %
20.05.2019 04:42 11,0 C 17,2 C 10,0 C 94 % 999,0 hPa 0,0 l/m 0,6 km/h (0 Bft) SW 221 0 min 0,000 mm 0,0 UV-I 0 W/m 10,1 C 11,0 C 1,6 km/h (1 Bft) 96,00 %
20.05.2019 04:44 11,0 C 17,2 C 10,0 C 94 % 999,0 hPa 0,0 l/m 0,0 km/h (0 Bft) SW 221 0 min 0,000 mm 0,0 UV-I 0 W/m 10,1 C 11,0 C 0,0 km/h (0 Bft) 97,87 %
20.05.2019 04:46 11,0 C 17,2 C 10,0 C 94 % 999,0 hPa 0,0 l/m 0,4 km/h (0 Bft) SW 221 0 min 0,000 mm 0,0 UV-I 0 W/m 10,1 C 11,0 C 1,6 km/h (1 Bft) 97,87 %
20.05.2019 04:48 11,0 C 17,2 C 10,0 C 94 % 999,0 hPa 0,0 l/m 1,5 km/h (1 Bft) SW 221 0 min 0,000 mm 0,0 UV-I 0 W/m 10,1 C 11,0 C 3,2 km/h (1 Bft) 97,22 %
20.05.2019 04:50 11,0 C 17,2 C 10,6 C 94 % 999,0 hPa 0,0 l/m 2,7 km/h (1 Bft) SW 221 0 min 0,000 mm 0,0 UV-I 0 W/m 10,1 C 11,0 C 4,8 km/h (1 Bft) 98,11 %
20.05.2019 04:52 11,0 C 17,2 C 10,6 C 94 % 998,9 hPa 0,0 l/m 3,0 km/h (1 Bft) SW 221 0 min 0,000 mm 0,0 UV-I 0 W/m 10,1 C 11,0 C 3,2 km/h (1 Bft) 98,08 %
20.05.2019 04:54 11,1 C 17,2 C 10,6 C 94 % 998,9 hPa 0,0 l/m 2,3 km/h (1 Bft) SW 221 0 min 0,000 mm 0,0 UV-I 0 W/m 10,2 C 11,1 C 3,2 km/h (1 Bft) 100,00 %
20.05.2019 04:56 11,0 C 17,2 C 10,6 C 94 % 999,0 hPa 0,0 l/m 1,8 km/h (1 Bft) SW 221 0 min 0,000 mm 0,0 UV-I 0 W/m 10,1 C 11,0 C 3,2 km/h (1 Bft) 97,87 %
20.05.2019 04:58 11,0 C 17,2 C 10,6 C 94 % 999,0 hPa 0,0 l/m 2,8 km/h (1 Bft) SW 221 0 min 0,000 mm 0,0 UV-I 0 W/m 10,1 C 11,0 C 3,2 km/h (1 Bft) 100,00 %
20.05.2019 05:00 11,0 C 17,2 C 10,6 C 94 % 999,0 hPa 0,0 l/m 2,9 km/h (1 Bft) SW 221 0 min 0,000 mm 0,0 UV-I 0 W/m 10,1 C 11,0 C 3,2 km/h (1 Bft) 100,00 %
20.05.2019 05:02 11,1 C 17,2 C 10,6 C 94 % 999,0 hPa 0,0 l/m 3,6 km/h (1 Bft) SW 221 0 min 0,000 mm 0,0 UV-I 0 W/m 10,2 C 11,1 C 4,8 km/h (1 Bft) 100,00 %
20.05.2019 05:04 11,2 C 17,2 C 10,6 C 94 % 999,0 hPa 0,0 l/m 2,5 km/h (1 Bft) SW 221 0 min 0,000 mm 0,0 UV-I 0 W/m 10,3 C 11,2 C 4,8 km/h (1 Bft) 98,00 %
20.05.2019 05:06 11,2 C 17,2 C 10,6 C 94 % 999,0 hPa 0,0 l/m 1,5 km/h (1 Bft) SW 221 0 min 0,000 mm 0,0 UV-I 0 W/m 10,3 C 11,2 C 3,2 km/h (1 Bft) 97,37 %
20.05.2019 05:08 11,3 C 17,2 C 10,6 C 94 % 999,0 hPa 0,0 l/m 0,7 km/h (0 Bft) SW 221 0 min 0,000 mm 0,0 UV-I 0 W/m 10,4 C 11,3 C 1,6 km/h (1 Bft) 94,34 %
20.05.2019 05:10 11,3 C 17,2 C 10,6 C 94 % 999,0 hPa 0,0 l/m 1,4 km/h (1 Bft) SW 221 0 min 0,000 mm 0,0 UV-I 0 W/m 10,4 C 11,3 C 3,2 km/h (1 Bft) 98,00 %
20.05.2019 05:12 11,3 C 17,2 C 10,6 C 94 % 998,9 hPa 0,0 l/m 1,5 km/h (1 Bft) SW 221 0 min 0,000 mm 0,0 UV-I 0 W/m 10,4 C 11,3 C 3,2 km/h (1 Bft) 97,87 %
20.05.2019 05:14 11,3 C 17,2 C 10,6 C 94 % 998,9 hPa 0,0 l/m 1,9 km/h (1 Bft) SW 221 0 min 0,000 mm 0,0 UV-I 0 W/m 10,4 C 11,3 C 3,2 km/h (1 Bft) 97,87 %
20.05.2019 05:16 11,3 C 17,2 C 10,6 C 94 % 998,9 hPa 0,0 l/m 2,7 km/h (1 Bft) SW 221 0 min 0,000 mm 0,0 UV-I 0 W/m 10,4 C 11,3 C 3,2 km/h (1 Bft) 97,22 %
20.05.2019 05:18 11,3 C 17,2 C 10,6 C 94 % 998,9 hPa 0,0 l/m 2,8 km/h (1 Bft) SW 221 0 min 0,000 mm 0,0 UV-I 5 W/m 10,4 C 11,3 C 3,2 km/h (1 Bft) 98,18 %
20.05.2019 05:20 11,4 C 17,2 C 10,6 C 93 % 998,8 hPa 0,0 l/m 2,8 km/h (1 Bft) SW 221 0 min 0,000 mm 0,0 UV-I 5 W/m 10,3 C 11,4 C 3,2 km/h (1 Bft) 97,62 %
20.05.2019 05:22 11,4 C 17,2 C 10,6 C 93 % 998,9 hPa 0,0 l/m 2,8 km/h (1 Bft) SW 221 0 min 0,000 mm 0,0 UV-I 5 W/m 10,3 C 11,4 C 3,2 km/h (1 Bft) 98,00 %
20.05.2019 05:24 11,4 C 17,2 C 10,6 C 93 % 998,8 hPa 0,0 l/m 3,0 km/h (1 Bft) SW 221 0 min 0,000 mm 0,0 UV-I 5 W/m 10,3 C 11,4 C 3,2 km/h (1 Bft) 97,56 %
20.05.2019 05:26 11,4 C 17,2 C 10,6 C 93 % 998,8 hPa 0,0 l/m 2,8 km/h (1 Bft) SW 221 0 min 0,000 mm 0,0 UV-I 6 W/m 10,3 C 11,4 C 3,2 km/h (1 Bft) 96,43 %
20.05.2019 05:28 11,3 C 17,2 C 11,1 C 93 % 998,7 hPa 0,0 l/m 3,6 km/h (1 Bft) SW 221 0 min 0,000 mm 0,0 UV-I 7 W/m 10,2 C 11,3 C 4,8 km/h (1 Bft) 98,00 %
20.05.2019 05:30 11,4 C 17,2 C 11,1 C 93 % 998,8 hPa 0,0 l/m 4,1 km/h (1 Bft) SW 221 0 min 0,000 mm 0,0 UV-I 8 W/m 10,3 C 11,4 C 6,4 km/h (2 Bft) 97,37 %
20.05.2019 05:32 11,3 C 17,2 C 11,1 C 93 % 998,8 hPa 0,0 l/m 4,1 km/h (1 Bft) SW 222 0 min 0,000 mm 0,0 UV-I 9 W/m 10,2 C 11,3 C 4,8 km/h (1 Bft) 95,74 %
20.05.2019 05:34 11,3 C 17,2 C 11,1 C 93 % 998,8 hPa 0,0 l/m 3,3 km/h (1 Bft) SW 223 0 min 0,000 mm 0,0 UV-I 11 W/m 10,2 C 11,3 C 4,8 km/h (1 Bft) 97,87 %
20.05.2019 05:36 11,3 C 17,2 C 11,1 C 93 % 998,8 hPa 0,0 l/m 3,9 km/h (1 Bft) SW 225 0 min 0,000 mm 0,0 UV-I 11 W/m 10,2 C 11,3 C 4,8 km/h (1 Bft) 98,11 %
20.05.2019 05:38 11,4 C 17,2 C 11,1 C 93 % 998,9 hPa 0,0 l/m 3,4 km/h (1 Bft) SW 225 0 min 0,000 mm 0,0 UV-I 12 W/m 10,3 C 11,4 C 4,8 km/h (1 Bft) 97,37 %
20.05.2019 05:40 11,3 C 17,2 C 11,1 C 93 % 998,8 hPa 0,0 l/m 2,9 km/h (1 Bft) SW 225 0 min 0,000 mm 0,0 UV-I 12 W/m 10,2 C 11,3 C 4,8 km/h (1 Bft) 98,11 %
20.05.2019 05:42 11,3 C 17,2 C 11,1 C 93 % 998,9 hPa 0,0 l/m 2,3 km/h (1 Bft) SW 225 0 min 0,000 mm 0,0 UV-I 13 W/m 10,2 C 11,3 C 3,2 km/h (1 Bft) 98,00 %
20.05.2019 05:44 11,4 C 17,2 C 11,1 C 93 % 998,8 hPa 0,0 l/m 1,4 km/h (1 Bft) S-SO 156 0 min 0,000 mm 0,0 UV-I 14 W/m 10,3 C 11,4 C 3,2 km/h (1 Bft) 97,56 %
20.05.2019 05:46 11,4 C 17,2 C 11,1 C 93 % 998,8 hPa 0,0 l/m 1,7 km/h (1 Bft) S-SO 156 0 min 0,000 mm 0,0 UV-I 15 W/m 10,3 C 11,4 C 3,2 km/h (1 Bft) 97,87 %
20.05.2019 05:48 11,4 C 17,2 C 11,1 C 93 % 998,8 hPa 0,0 l/m 2,2 km/h (1 Bft) S-SO 156 0 min 0,000 mm 0,0 UV-I 16 W/m 10,3 C 11,4 C 3,2 km/h (1 Bft) 97,92 %
20.05.2019 05:50 11,4 C 17,2 C 11,1 C 93 % 998,8 hPa 0,0 l/m 1,5 km/h (1 Bft) S-SO 156 0 min 0,000 mm 0,0 UV-I 19 W/m 10,3 C 11,4 C 3,2 km/h (1 Bft) 97,87 %
20.05.2019 05:52 11,4 C 17,2 C 11,1 C 93 % 998,8 hPa 0,0 l/m 1,3 km/h (1 Bft) S 171 0 min 0,000 mm 0,0 UV-I 20 W/m 10,3 C 11,4 C 3,2 km/h (1 Bft) 98,08 %
20.05.2019 05:54 11,4 C 17,2 C 11,1 C 93 % 998,7 hPa 0,0 l/m 2,0 km/h (1 Bft) S 174 0 min 0,000 mm 0,0 UV-I 22 W/m 10,3 C 11,4 C 3,2 km/h (1 Bft) 97,44 %
20.05.2019 05:56 11,4 C 17,2 C 11,1 C 93 % 998,7 hPa 0,0 l/m 2,2 km/h (1 Bft) S 174 0 min 0,000 mm 0,0 UV-I 24 W/m 10,3 C 11,4 C 3,2 km/h (1 Bft) 97,87 %
20.05.2019 05:58 11,4 C 17,2 C 11,1 C 93 % 998,7 hPa 0,0 l/m 1,6 km/h (1 Bft) S 174 0 min 0,000 mm 0,0 UV-I 25 W/m 10,3 C 11,4 C 3,2 km/h (1 Bft) 97,87 %
20.05.2019 06:00 11,4 C 17,2 C 11,1 C 93 % 998,7 hPa 0,0 l/m 1,1 km/h (1 Bft) S 174 0 min 0,000 mm 0,0 UV-I 25 W/m 10,3 C 11,4 C 3,2 km/h (1 Bft) 97,87 %
20.05.2019 06:02 11,5 C 17,2 C 11,1 C 93 % 998,7 hPa 0,0 l/m 0,3 km/h (0 Bft) S 174 0 min 0,000 mm 0,0 UV-I 26 W/m 10,4 C 11,5 C 1,6 km/h (1 Bft) 96,23 %
20.05.2019 06:04 11,6 C 17,2 C 11,7 C 93 % 998,7 hPa 0,0 l/m 0,8 km/h (0 Bft) S 174 0 min 0,000 mm 0,0 UV-I 26 W/m 10,5 C 11,6 C 1,6 km/h (1 Bft) 100,00 %
20.05.2019 06:06 11,6 C 17,2 C 11,7 C 93 % 998,7 hPa 0,0 l/m 1,8 km/h (1 Bft) S 174 0 min 0,000 mm 0,0 UV-I 26 W/m 10,5 C 11,6 C 3,2 km/h (1 Bft) 97,87 %
20.05.2019 06:08 11,6 C 17,2 C 11,7 C 93 % 998,7 hPa 0,0 l/m 2,1 km/h (1 Bft) S 174 0 min 0,000 mm 0,0 UV-I 26 W/m 10,5 C 11,6 C 3,2 km/h (1 Bft) 100,00 %
20.05.2019 06:10 11,6 C 17,2 C 11,7 C 93 % 998,7 hPa 0,0 l/m 2,2 km/h (1 Bft) S 174 0 min 0,000 mm 0,0 UV-I 27 W/m 10,5 C 11,6 C 3,2 km/h (1 Bft) 97,37 %
20.05.2019 06:12 11,6 C 17,2 C 11,7 C 93 % 998,7 hPa 0,0 l/m 1,4 km/h (1 Bft) S 174 0 min 0,000 mm 0,0 UV-I 28 W/m 10,5 C 11,6 C 3,2 km/h (1 Bft) 100,00 %
20.05.2019 06:14 11,6 C 17,2 C 11,7 C 93 % 998,6 hPa 0,0 l/m 2,0 km/h (1 Bft) S 174 0 min 0,000 mm 0,0 UV-I 31 W/m 10,5 C 11,6 C 3,2 km/h (1 Bft) 100,00 %
20.05.2019 06:16 11,7 C 17,2 C 11,7 C 93 % 998,6 hPa 0,0 l/m 2,8 km/h (1 Bft) S-SW 205 0 min 0,000 mm 0,0 UV-I 34 W/m 10,6 C 11,7 C 4,8 km/h (1 Bft) 100,00 %
20.05.2019 06:18 11,7 C 17,2 C 11,7 C 93 % 998,7 hPa 0,0 l/m 2,1 km/h (1 Bft) S-SW 205 0 min 0,000 mm 0,0 UV-I 35 W/m 10,6 C 11,7 C 3,2 km/h (1 Bft) 97,87 %
20.05.2019 06:20 11,7 C 17,2 C 12,2 C 93 % 998,7 hPa 0,0 l/m 1,5 km/h (1 Bft) S-SW 205 0 min 0,000 mm 0,0 UV-I 34 W/m 10,6 C 11,7 C 3,2 km/h (1 Bft) 100,00 %
20.05.2019 06:22 11,7 C 17,2 C 12,2 C 93 % 998,7 hPa 0,0 l/m 1,7 km/h (1 Bft) S-SW 205 0 min 0,000 mm 0,0 UV-I 32 W/m 10,6 C 11,7 C 3,2 km/h (1 Bft) 98,00 %
20.05.2019 06:24 11,7 C 17,2 C 12,2 C 93 % 998,7 hPa 0,0 l/m 1,5 km/h (1 Bft) S-SW 205 0 min 0,000 mm 0,0 UV-I 30 W/m 10,6 C 11,7 C 3,2 km/h (1 Bft) 100,00 %
20.05.2019 06:26 11,7 C 17,2 C 12,2 C 93 % 998,7 hPa 0,0 l/m 2,1 km/h (1 Bft) S-SW 205 0 min 0,000 mm 0,0 UV-I 30 W/m 10,6 C 11,7 C 3,2 km/h (1 Bft) 97,87 %
20.05.2019 06:28 11,8 C 17,2 C 12,2 C 93 % 998,7 hPa 0,0 l/m 2,0 km/h (1 Bft) S-SW 205 0 min 0,000 mm 0,0 UV-I 30 W/m 10,7 C 11,8 C 3,2 km/h (1 Bft) 100,00 %
20.05.2019 06:30 11,8 C 17,2 C 12,2 C 93 % 998,7 hPa 0,0 l/m 0,8 km/h (0 Bft) S-SW 205 0 min 0,000 mm 0,0 UV-I 30 W/m 10,7 C 11,8 C 1,6 km/h (1 Bft) 100,00 %
20.05.2019 06:32 11,8 C 17,2 C 12,2 C 93 % 998,7 hPa 0,0 l/m 0,8 km/h (0 Bft) S-SW 205 0 min 0,000 mm 0,0 UV-I 28 W/m 10,7 C 11,8 C 1,6 km/h (1 Bft) 100,00 %
20.05.2019 06:34 11,9 C 17,2 C 12,8 C 93 % 998,7 hPa 0,0 l/m 2,2 km/h (1 Bft) S-SW 205 0 min 0,000 mm 0,0 UV-I 28 W/m 10,8 C 11,9 C 3,2 km/h (1 Bft) 100,00 %
20.05.2019 06:36 11,9 C 17,2 C 12,8 C 93 % 998,7 hPa 0,0 l/m 1,3 km/h (1 Bft) S-SW 205 0 min 0,000 mm 0,0 UV-I 29 W/m 10,8 C 11,9 C 3,2 km/h (1 Bft) 100,00 %
20.05.2019 06:38 12,1 C 17,2 C 12,8 C 93 % 998,7 hPa 0,0 l/m 0,5 km/h (0 Bft) S-SW 205 0 min 0,000 mm 0,0 UV-I 31 W/m 11,0 C 12,1 C 1,6 km/h (1 Bft) 100,00 %
20.05.2019 06:40 12,1 C 17,2 C 12,8 C 93 % 998,8 hPa 0,0 l/m 0,3 km/h (0 Bft) S-SW 205 0 min 0,000 mm 0,0 UV-I 33 W/m 11,0 C 12,1 C 1,6 km/h (1 Bft) 100,00 %
20.05.2019 06:42 12,1 C 17,2 C 12,8 C 93 % 998,8 hPa 0,0 l/m 0,7 km/h (0 Bft) S-SW 205 0 min 0,000 mm 0,0 UV-I 33 W/m 11,0 C 12,1 C 1,6 km/h (1 Bft) 97,37 %
20.05.2019 06:44 12,1 C 17,2 C 12,8 C 93 % 998,8 hPa 0,0 l/m 1,3 km/h (1 Bft) S-SW 205 0 min 0,000 mm 0,0 UV-I 32 W/m 11,0 C 12,1 C 3,2 km/h (1 Bft) 100,00 %
20.05.2019 06:46 12,2 C 17,2 C 12,8 C 93 % 998,7 hPa 0,0 l/m 0,8 km/h (0 Bft) S-SW 205 0 min 0,000 mm 0,0 UV-I 33 W/m 11,1 C 12,2 C 1,6 km/h (1 Bft) 100,00 %
20.05.2019 06:48 12,2 C 17,2 C 12,8 C 93 % 998,7 hPa 0,0 l/m 1,3 km/h (1 Bft) S-SW 205 0 min 0,000 mm 0,0 UV-I 34 W/m 11,1 C 12,2 C 3,2 km/h (1 Bft) 100,00 %
20.05.2019 06:50 12,3 C 17,2 C 12,8 C 92 % 998,7 hPa 0,0 l/m 1,0 km/h (0 Bft) S-SW 205 0 min 0,000 mm 0,0 UV-I 37 W/m 11,0 C 12,3 C 1,6 km/h (1 Bft) 97,56 %
20.05.2019 06:52 12,2 C 17,2 C 12,8 C 92 % 998,7 hPa 0,0 l/m 0,5 km/h (0 Bft) S-SW 205 0 min 0,000 mm 0,0 UV-I 39 W/m 10,9 C 12,2 C 1,6 km/h (1 Bft) 100,00 %
20.05.2019 06:54 12,2 C 17,2 C 12,8 C 92 % 998,7 hPa 0,0 l/m 1,1 km/h (1 Bft) S-SW 205 0 min 0,000 mm 0,0 UV-I 39 W/m 10,9 C 12,2 C 1,6 km/h (1 Bft) 100,00 %
20.05.2019 06:56 12,2 C 17,2 C 13,3 C 92 % 998,8 hPa 0,0 l/m 0,1 km/h (0 Bft) S-SW 205 0 min 0,000 mm 0,0 UV-I 40 W/m 10,9 C 12,2 C 1,6 km/h (1 Bft) 97,87 %
20.05.2019 06:58 12,3 C 17,2 C 13,3 C 92 % 998,7 hPa 0,0 l/m 1,2 km/h (1 Bft) S-SW 205 0 min 0,000 mm 0,0 UV-I 40 W/m 11,0 C 12,3 C 1,6 km/h (1 Bft) 100,00 %
20.05.2019 07:00 12,3 C 17,2 C 13,3 C 92 % 998,7 hPa 0,0 l/m 1,6 km/h (1 Bft) S-SW 205 0 min 0,026 mm 0,0 UV-I 40 W/m 11,0 C 12,3 C 3,2 km/h (1 Bft) 100,00 %
20.05.2019 07:02 12,3 C 17,2 C 13,3 C 92 % 998,8 hPa 0,0 l/m 0,8 km/h (0 Bft) S-SW 205 0 min 0,000 mm 0,0 UV-I 40 W/m 11,0 C 12,3 C 3,2 km/h (1 Bft) 100,00 %
20.05.2019 07:04 12,3 C 17,2 C 13,3 C 92 % 998,8 hPa 0,0 l/m 0,0 km/h (0 Bft) S-SW 205 0 min 0,000 mm 0,0 UV-I 39 W/m 11,0 C 12,3 C 0,0 km/h (0 Bft) 98,00 %
20.05.2019 07:06 12,4 C 17,2 C 13,3 C 92 % 998,8 hPa 0,0 l/m 0,5 km/h (0 Bft) S-SW 205 0 min 0,000 mm 0,0 UV-I 40 W/m 11,1 C 12,4 C 1,6 km/h (1 Bft) 97,87 %
20.05.2019 07:08 12,4 C 17,2 C 13,3 C 92 % 998,8 hPa 0,0 l/m 0,0 km/h (0 Bft) S-SW 205 0 min 0,000 mm 0,0 UV-I 42 W/m 11,1 C 12,4 C 0,0 km/h (0 Bft) 93,62 %
20.05.2019 07:10 12,4 C 17,2 C 13,3 C 92 % 998,8 hPa 0,0 l/m 0,0 km/h (0 Bft) S-SW 205 0 min 0,000 mm 0,0 UV-I 42 W/m 11,1 C 12,4 C 0,0 km/h (0 Bft) 95,74 %
20.05.2019 07:12 12,4 C 17,2 C 13,3 C 92 % 998,8 hPa 0,0 l/m 0,0 km/h (0 Bft) S-SW 205 0 min 0,000 mm 0,0 UV-I 40 W/m 11,1 C 12,4 C 0,0 km/h (0 Bft) 95,74 %
20.05.2019 07:14 12,6 C 17,2 C 13,3 C 92 % 998,8 hPa 0,0 l/m 0,3 km/h (0 Bft) S-SW 205 0 min 0,000 mm 0,0 UV-I 42 W/m 11,3 C 12,6 C 1,6 km/h (1 Bft) 94,74 %
20.05.2019 07:16 12,6 C 17,2 C 13,3 C 92 % 998,8 hPa 0,0 l/m 1,0 km/h (0 Bft) S-SW 205 0 min 0,000 mm 0,0 UV-I 42 W/m 11,3 C 12,6 C 1,6 km/h (1 Bft) 92,45 %
20.05.2019 07:18 12,6 C 17,2 C 13,9 C 92 % 998,8 hPa 0,0 l/m 0,8 km/h (0 Bft) S-SW 205 0 min 0,000 mm 0,0 UV-I 45 W/m 11,3 C 12,6 C 1,6 km/h (1 Bft) 96,00 %
20.05.2019 07:20 12,7 C 17,2 C 13,9 C 92 % 998,8 hPa 0,0 l/m 1,0 km/h (0 Bft) S-SW 205 0 min 0,000 mm 0,0 UV-I 46 W/m 11,4 C 12,7 C 1,6 km/h (1 Bft) 94,87 %
20.05.2019 07:22 12,6 C 17,2 C 13,9 C 92 % 998,8 hPa 0,0 l/m 0,0 km/h (0 Bft) S-SW 205 0 min 0,000 mm 0,0 UV-I 50 W/m 11,3 C 12,6 C 1,6 km/h (1 Bft) 94,23 %
20.05.2019 07:24 12,6 C 17,2 C 13,9 C 92 % 998,8 hPa 0,0 l/m 0,0 km/h (0 Bft) S-SW 205 0 min 0,000 mm 0,0 UV-I 53 W/m 11,3 C 12,6 C 0,0 km/h (0 Bft) 94,87 %
20.05.2019 07:26 12,7 C 17,2 C 13,9 C 92 % 998,8 hPa 0,0 l/m 0,4 km/h (0 Bft) S-SW 205 0 min 0,000 mm 0,0 UV-I 51 W/m 11,4 C 12,7 C 1,6 km/h (1 Bft) 92,86 %
20.05.2019 07:28 12,8 C 17,2 C 13,9 C 93 % 998,8 hPa 0,0 l/m 2,5 km/h (1 Bft) S-SW 205 0 min 0,000 mm 0,0 UV-I 49 W/m 11,7 C 12,8 C 4,8 km/h (1 Bft) 95,74 %
20.05.2019 07:30 12,7 C 17,2 C 13,9 C 92 % 998,8 hPa 0,0 l/m 2,3 km/h (1 Bft) S-SW 205 0 min 0,000 mm 0,0 UV-I 50 W/m 11,4 C 12,7 C 3,2 km/h (1 Bft) 95,74 %
20.05.2019 07:32 12,7 C 17,2 C 13,9 C 92 % 998,8 hPa 0,0 l/m 0,7 km/h (0 Bft) S-SW 205 0 min 0,000 mm 0,0 UV-I 53 W/m 11,4 C 12,7 C 1,6 km/h (1 Bft) 92,11 %
20.05.2019 07:34 12,7 C 17,2 C 13,9 C 92 % 998,8 hPa 0,0 l/m 0,0 km/h (0 Bft) S-SW 205 0 min 0,000 mm 0,0 UV-I 54 W/m 11,4 C 12,7 C 0,0 km/h (0 Bft) 96,23 %
20.05.2019 07:36 12,7 C 17,2 C 13,9 C 92 % 998,8 hPa 0,0 l/m 0,8 km/h (0 Bft) S-SW 205 0 min 0,000 mm 0,0 UV-I 54 W/m 11,4 C 12,7 C 1,6 km/h (1 Bft) 93,62 %
20.05.2019 07:38 12,7 C 17,2 C 13,9 C 92 % 998,9 hPa 0,0 l/m 0,5 km/h (0 Bft) S-SW 205 0 min 0,000 mm 0,0 UV-I 54 W/m 11,4 C 12,7 C 1,6 km/h (1 Bft) 94,74 %
20.05.2019 07:40 12,7 C 17,2 C 13,9 C 92 % 998,9 hPa 0,0 l/m 0,0 km/h (0 Bft) S-SW 205 0 min 0,000 mm 0,0 UV-I 54 W/m 11,4 C 12,7 C 0,0 km/h (0 Bft) 98,31 %
20.05.2019 07:42 12,8 C 17,2 C 13,9 C 92 % 998,9 hPa 0,0 l/m 0,0 km/h (0 Bft) S-SW 205 0 min 0,000 mm 0,0 UV-I 54 W/m 11,5 C 12,8 C 0,0 km/h (0 Bft) 97,37 %
20.05.2019 07:44 12,8 C 17,2 C 13,9 C 93 % 998,9 hPa 0,0 l/m 0,6 km/h (0 Bft) S-SW 205 0 min 0,000 mm 0,0 UV-I 54 W/m 11,7 C 12,8 C 3,2 km/h (1 Bft) 97,87 %
20.05.2019 07:46 12,8 C 17,2 C 13,9 C 93 % 998,9 hPa 0,0 l/m 1,0 km/h (0 Bft) S-SW 205 0 min 0,000 mm 0,0 UV-I 56 W/m 11,7 C 12,8 C 1,6 km/h (1 Bft) 96,00 %
20.05.2019 07:48 12,8 C 17,2 C 13,9 C 93 % 999,0 hPa 0,0 l/m 1,7 km/h (1 Bft) S-SW 205 0 min 0,000 mm 0,0 UV-I 54 W/m 11,7 C 12,8 C 3,2 km/h (1 Bft) 94,34 %
20.05.2019 07:50 12,9 C 17,2 C 13,9 C 93 % 998,9 hPa 0,0 l/m 1,5 km/h (1 Bft) S-SW 205 0 min 0,000 mm 0,0 UV-I 48 W/m 11,8 C 12,9 C 3,2 km/h (1 Bft) 97,44 %
20.05.2019 07:52 12,9 C 17,2 C 13,9 C 92 % 999,0 hPa 0,0 l/m 0,4 km/h (0 Bft) S-SW 205 0 min 0,000 mm 0,0 UV-I 45 W/m 11,6 C 12,9 C 1,6 km/h (1 Bft) 98,11 %
20.05.2019 07:54 12,9 C 17,2 C 13,9 C 93 % 999,0 hPa 0,0 l/m 1,0 km/h (0 Bft) S-SW 205 0 min 0,000 mm 0,0 UV-I 44 W/m 11,8 C 12,9 C 1,6 km/h (1 Bft) 97,14 %
20.05.2019 07:56 13,0 C 17,2 C 13,9 C 93 % 999,0 hPa 0,0 l/m 0,3 km/h (0 Bft) S-SW 205 0 min 0,000 mm 0,0 UV-I 43 W/m 11,9 C 13,0 C 1,6 km/h (1 Bft) 98,21 %
20.05.2019 07:58 12,9 C 17,2 C 13,9 C 93 % 999,0 hPa 0,0 l/m 0,0 km/h (0 Bft) S-SW 205 0 min 0,000 mm 0,0 UV-I 42 W/m 11,8 C 12,9 C 1,6 km/h (1 Bft) 98,00 %
20.05.2019 08:00 12,9 C 17,2 C 13,9 C 93 % 999,0 hPa 0,0 l/m 0,5 km/h (0 Bft) S-SW 205 0 min 0,000 mm 0,0 UV-I 43 W/m 11,8 C 12,9 C 1,6 km/h (1 Bft) 94,74 %
20.05.2019 08:02 12,9 C 17,2 C 13,9 C 93 % 999,0 hPa 0,0 l/m 1,1 km/h (1 Bft) S-SW 205 0 min 0,025 mm 0,0 UV-I 44 W/m 11,8 C 12,9 C 1,6 km/h (1 Bft) 96,23 %
20.05.2019 08:04 12,9 C 17,2 C 13,9 C 93 % 999,0 hPa 0,0 l/m 0,6 km/h (0 Bft) S-SW 205 0 min 0,000 mm 0,0 UV-I 46 W/m 11,8 C 12,9 C 1,6 km/h (1 Bft) 97,73 %
20.05.2019 08:06 13,0 C 17,2 C 13,9 C 93 % 999,1 hPa 0,0 l/m 0,8 km/h (0 Bft) S-SW 205 0 min 0,000 mm 0,0 UV-I 47 W/m 11,9 C 13,0 C 1,6 km/h (1 Bft) 97,87 %
20.05.2019 08:08 13,1 C 17,2 C 13,9 C 93 % 999,1 hPa 0,0 l/m 0,5 km/h (0 Bft) S-SW 205 0 min 0,000 mm 0,0 UV-I 47 W/m 12,0 C 13,1 C 1,6 km/h (1 Bft) 96,00 %
20.05.2019 08:10 13,1 C 17,2 C 13,9 C 93 % 999,1 hPa 0,0 l/m 0,1 km/h (0 Bft) S-SW 205 0 min 0,000 mm 0,0 UV-I 49 W/m 12,0 C 13,1 C 1,6 km/h (1 Bft) 97,87 %
20.05.2019 08:12 13,1 C 17,2 C 13,9 C 92 % 999,1 hPa 0,0 l/m 0,1 km/h (0 Bft) S-SW 205 0 min 0,000 mm 0,0 UV-I 51 W/m 11,8 C 13,1 C 1,6 km/h (1 Bft) 97,73 %
20.05.2019 08:14 13,0 C 17,2 C 13,9 C 93 % 999,1 hPa 0,0 l/m 0,0 km/h (0 Bft) S-SW 205 0 min 0,000 mm 0,0 UV-I 51 W/m 11,9 C 13,0 C 0,0 km/h (0 Bft) 97,87 %
20.05.2019 08:16 13,0 C 17,2 C 13,9 C 92 % 999,1 hPa 0,0 l/m 0,3 km/h (0 Bft) S-SW 205 0 min 0,000 mm 0,0 UV-I 52 W/m 11,7 C 13,0 C 1,6 km/h (1 Bft) 97,87 %
20.05.2019 08:18 13,0 C 17,2 C 13,9 C 93 % 999,1 hPa 0,0 l/m 1,8 km/h (1 Bft) S-SW 205 0 min 0,000 mm 0,0 UV-I 53 W/m 11,9 C 13,0 C 3,2 km/h (1 Bft) 96,00 %
20.05.2019 08:20 13,0 C 17,2 C 13,9 C 93 % 999,1 hPa 0,2 l/m 1,5 km/h (1 Bft) S-SW 205 0 min 0,000 mm 0,0 UV-I 59 W/m 11,9 C 13,0 C 3,2 km/h (1 Bft) 98,00 %
20.05.2019 08:22 13,0 C 17,2 C 13,9 C 93 % 999,1 hPa 0,0 l/m 1,1 km/h (1 Bft) S-SW 205 0 min 0,000 mm 0,0 UV-I 65 W/m 11,9 C 13,0 C 1,6 km/h (1 Bft) 97,87 %
20.05.2019 08:24 13,1 C 17,2 C 13,9 C 93 % 999,1 hPa 0,0 l/m 0,9 km/h (0 Bft) S-SW 205 0 min 0,000 mm 0,0 UV-I 68 W/m 12,0 C 13,1 C 1,6 km/h (1 Bft) 94,44 %
20.05.2019 08:26 13,2 C 17,2 C 14,4 C 93 % 999,2 hPa 0,0 l/m 0,3 km/h (0 Bft) S-SW 205 0 min 0,000 mm 0,0 UV-I 62 W/m 12,1 C 13,2 C 1,6 km/h (1 Bft) 98,11 %
20.05.2019 08:28 13,2 C 17,2 C 14,4 C 93 % 999,2 hPa 0,0 l/m 1,0 km/h (0 Bft) S-SW 205 0 min 0,000 mm 0,0 UV-I 57 W/m 12,1 C 13,2 C 1,6 km/h (1 Bft) 96,00 %
20.05.2019 08:30 13,2 C 17,2 C 14,4 C 93 % 999,2 hPa 0,0 l/m 0,6 km/h (0 Bft) S-SW 205 0 min 0,000 mm 0,0 UV-I 52 W/m 12,1 C 13,2 C 1,6 km/h (1 Bft) 94,74 %
20.05.2019 08:32 13,2 C 17,2 C 14,4 C 93 % 999,3 hPa 0,0 l/m 1,2 km/h (1 Bft) S-SW 205 0 min 0,000 mm 0,0 UV-I 48 W/m 12,1 C 13,2 C 3,2 km/h (1 Bft) 94,00 %
20.05.2019 08:34 13,2 C 17,2 C 14,4 C 93 % 999,2 hPa 0,0 l/m 1,8 km/h (1 Bft) S-SW 205 0 min 0,000 mm 0,0 UV-I 44 W/m 12,1 C 13,2 C 3,2 km/h (1 Bft) 96,00 %
20.05.2019 08:36 13,2 C 17,2 C 14,4 C 93 % 999,3 hPa 0,0 l/m 1,4 km/h (1 Bft) S-SW 205 0 min 0,000 mm 0,0 UV-I 42 W/m 12,1 C 13,2 C 3,2 km/h (1 Bft) 97,87 %
20.05.2019 08:38 13,1 C 17,2 C 13,9 C 93 % 999,3 hPa 0,0 l/m 2,1 km/h (1 Bft) S-SW 205 0 min 0,000 mm 0,0 UV-I 41 W/m 12,0 C 13,1 C 3,2 km/h (1 Bft) 95,12 %
20.05.2019 08:40 13,1 C 17,2 C 13,9 C 93 % 999,3 hPa 0,0 l/m 2,8 km/h (1 Bft) S-SW 205 0 min 0,000 mm 0,0 UV-I 40 W/m 12,0 C 13,1 C 4,8 km/h (1 Bft) 98,11 %
20.05.2019 08:42 13,1 C 17,2 C 13,9 C 93 % 999,3 hPa 0,0 l/m 2,4 km/h (1 Bft) S-SW 205 0 min 0,000 mm 0,0 UV-I 40 W/m 12,0 C 13,1 C 3,2 km/h (1 Bft) 97,56 %
20.05.2019 08:44 13,1 C 17,2 C 13,9 C 93 % 999,3 hPa 0,0 l/m 1,4 km/h (1 Bft) S-SW 205 0 min 0,000 mm 0,0 UV-I 38 W/m 12,0 C 13,1 C 3,2 km/h (1 Bft) 98,11 %
20.05.2019 08:46 13,1 C 17,2 C 13,9 C 93 % 999,3 hPa 0,0 l/m 0,3 km/h (0 Bft) S-SW 205 0 min 0,000 mm 0,0 UV-I 35 W/m 12,0 C 13,1 C 1,6 km/h (1 Bft) 97,37 %
20.05.2019 08:48 13,1 C 17,2 C 13,9 C 93 % 999,3 hPa 0,0 l/m 0,7 km/h (0 Bft) S-SW 205 0 min 0,000 mm 0,0 UV-I 35 W/m 12,0 C 13,1 C 1,6 km/h (1 Bft) 94,34 %
20.05.2019 08:50 13,1 C 17,2 C 13,9 C 93 % 999,4 hPa 0,0 l/m 0,5 km/h (0 Bft) S-SW 205 0 min 0,000 mm 0,0 UV-I 37 W/m 12,0 C 13,1 C 1,6 km/h (1 Bft) 98,00 %
20.05.2019 08:52 13,1 C 17,2 C 13,9 C 93 % 999,3 hPa 0,0 l/m 0,4 km/h (0 Bft) S-SW 205 0 min 0,000 mm 0,0 UV-I 39 W/m 12,0 C 13,1 C 1,6 km/h (1 Bft) 96,00 %
20.05.2019 08:54 13,1 C 17,2 C 13,9 C 93 % 999,4 hPa 0,0 l/m 0,1 km/h (0 Bft) S-SW 205 0 min 0,000 mm 0,0 UV-I 39 W/m 12,0 C 13,1 C 1,6 km/h (1 Bft) 97,87 %
20.05.2019 08:56 13,2 C 17,2 C 13,9 C 93 % 999,4 hPa 0,0 l/m 0,0 km/h (0 Bft) S-SW 205 0 min 0,000 mm 0,0 UV-I 40 W/m 12,1 C 13,2 C 0,0 km/h (0 Bft) 100,00 %
20.05.2019 08:58 13,2 C 17,2 C 13,9 C 93 % 999,4 hPa 0,0 l/m 0,0 km/h (0 Bft) S-SW 205 0 min 0,000 mm 0,0 UV-I 42 W/m 12,1 C 13,2 C 0,0 km/h (0 Bft) 100,00 %
20.05.2019 09:00 13,1 C 17,2 C 13,9 C 93 % 999,4 hPa 0,0 l/m 0,0 km/h (0 Bft) S-SW 205 0 min 0,026 mm 0,0 UV-I 46 W/m 12,0 C 13,1 C 0,0 km/h (0 Bft) 100,00 %
20.05.2019 09:02 13,1 C 17,2 C 13,9 C 93 % 999,4 hPa 0,0 l/m 0,4 km/h (0 Bft) S-SW 205 0 min 0,000 mm 0,0 UV-I 49 W/m 12,0 C 13,1 C 3,2 km/h (1 Bft) 100,00 %
20.05.2019 09:04 13,1 C 17,2 C 13,9 C 92 % 999,4 hPa 0,2 l/m 1,5 km/h (1 Bft) S-SW 205 0 min 0,000 mm 0,0 UV-I 53 W/m 11,8 C 13,1 C 3,2 km/h (1 Bft) 100,00 %
20.05.2019 09:06 13,1 C 17,2 C 13,9 C 92 % 999,4 hPa 0,0 l/m 1,2 km/h (1 Bft) S-SW 205 0 min 0,000 mm 0,0 UV-I 59 W/m 11,8 C 13,1 C 1,6 km/h (1 Bft) 97,87 %
20.05.2019 09:08 13,2 C 17,2 C 13,9 C 92 % 999,4 hPa 0,0 l/m 1,5 km/h (1 Bft) S-SW 205 0 min 0,000 mm 0,0 UV-I 63 W/m 11,9 C 13,2 C 3,2 km/h (1 Bft) 95,74 %
20.05.2019 09:10 13,1 C 17,2 C 13,9 C 92 % 999,4 hPa 0,0 l/m 1,8 km/h (1 Bft) S-SW 205 0 min 0,000 mm 0,0 UV-I 64 W/m 11,8 C 13,1 C 3,2 km/h (1 Bft) 97,87 %
20.05.2019 09:12 13,2 C 17,2 C 13,9 C 92 % 999,4 hPa 0,0 l/m 1,9 km/h (1 Bft) S-SW 205 0 min 0,000 mm 0,0 UV-I 64 W/m 11,9 C 13,2 C 3,2 km/h (1 Bft) 97,56 %
20.05.2019 09:14 13,2 C 17,2 C 13,9 C 92 % 999,5 hPa 0,0 l/m 1,0 km/h (0 Bft) S-SW 205 0 min 0,000 mm 0,0 UV-I 73 W/m 11,9 C 13,2 C 1,6 km/h (1 Bft) 91,49 %
20.05.2019 09:16 13,2 C 17,2 C 13,9 C 92 % 999,4 hPa 0,0 l/m 1,2 km/h (1 Bft) S-SW 205 0 min 0,000 mm 0,0 UV-I 77 W/m 11,9 C 13,2 C 3,2 km/h (1 Bft) 95,74 %
20.05.2019 09:18 13,2 C 17,2 C 14,4 C 92 % 999,4 hPa 0,0 l/m 1,5 km/h (1 Bft) S-SW 205 0 min 0,000 mm 0,0 UV-I 74 W/m 11,9 C 13,2 C 3,2 km/h (1 Bft) 97,87 %
20.05.2019 09:20 13,2 C 17,2 C 14,4 C 92 % 999,4 hPa 0,0 l/m 1,2 km/h (1 Bft) S-SW 205 0 min 0,000 mm 0,0 UV-I 63 W/m 11,9 C 13,2 C 1,6 km/h (1 Bft) 98,11 %
20.05.2019 09:22 13,2 C 17,2 C 13,9 C 92 % 999,5 hPa 0,0 l/m 0,1 km/h (0 Bft) S-SW 205 0 min 0,000 mm 0,0 UV-I 54 W/m 11,9 C 13,2 C 1,6 km/h (1 Bft) 97,56 %
20.05.2019 09:24 13,2 C 17,2 C 13,9 C 92 % 999,4 hPa 0,0 l/m 0,6 km/h (0 Bft) S-SW 205 0 min 0,000 mm 0,0 UV-I 49 W/m 11,9 C 13,2 C 1,6 km/h (1 Bft) 98,00 %
20.05.2019 09:26 13,2 C 17,2 C 13,9 C 92 % 999,4 hPa 0,2 l/m 0,0 km/h (0 Bft) S-SW 205 0 min 0,000 mm 0,0 UV-I 49 W/m 11,9 C 13,2 C 0,0 km/h (0 Bft) 95,83 %
20.05.2019 09:28 13,2 C 17,2 C 13,9 C 92 % 999,4 hPa 0,0 l/m 0,0 km/h (0 Bft) S-SW 205 0 min 0,000 mm 0,0 UV-I 51 W/m 11,9 C 13,2 C 0,0 km/h (0 Bft) 97,37 %
20.05.2019 09:30 13,2 C 17,2 C 13,9 C 92 % 999,5 hPa 0,0 l/m 0,6 km/h (0 Bft) S-SW 205 0 min 0,000 mm 0,0 UV-I 51 W/m 11,9 C 13,2 C 1,6 km/h (1 Bft) 96,00 %
20.05.2019 09:32 13,2 C 17,2 C 13,9 C 93 % 999,4 hPa 0,0 l/m 0,1 km/h (0 Bft) S-SW 205 0 min 0,000 mm 0,0 UV-I 50 W/m 12,1 C 13,2 C 1,6 km/h (1 Bft) 98,11 %
20.05.2019 09:34 13,1 C 17,2 C 13,9 C 92 % 999,5 hPa 0,0 l/m 0,7 km/h (0 Bft) S-SW 205 0 min 0,000 mm 0,0 UV-I 52 W/m 11,8 C 13,1 C 1,6 km/h (1 Bft) 97,87 %
20.05.2019 09:36 13,1 C 17,2 C 13,9 C 92 % 999,4 hPa 0,2 l/m 1,2 km/h (1 Bft) S-SW 205 0 min 0,000 mm 0,0 UV-I 55 W/m 11,8 C 13,1 C 1,6 km/h (1 Bft) 97,14 %
20.05.2019 09:38 13,1 C 17,2 C 13,9 C 92 % 999,5 hPa 0,0 l/m 0,4 km/h (0 Bft) S-SW 205 0 min 0,000 mm 0,0 UV-I 61 W/m 11,8 C 13,1 C 1,6 km/h (1 Bft) 96,08 %
20.05.2019 09:40 13,1 C 17,2 C 13,9 C 93 % 999,5 hPa 0,0 l/m 0,7 km/h (0 Bft) S-SW 205 0 min 0,000 mm 0,0 UV-I 61 W/m 12,0 C 13,1 C 1,6 km/h (1 Bft) 98,11 %
20.05.2019 09:42 13,0 C 17,2 C 13,9 C 92 % 999,5 hPa 0,2 l/m 1,4 km/h (1 Bft) S-SW 205 0 min 0,000 mm 0,0 UV-I 58 W/m 11,7 C 13,0 C 3,2 km/h (1 Bft) 100,00 %
20.05.2019 09:44 13,0 C 17,2 C 13,9 C 93 % 999,5 hPa 0,0 l/m 1,3 km/h (1 Bft) S-SW 205 0 min 0,000 mm 0,0 UV-I 61 W/m 11,9 C 13,0 C 1,6 km/h (1 Bft) 98,11 %
20.05.2019 09:46 13,0 C 17,2 C 13,9 C 93 % 999,5 hPa 0,0 l/m 1,0 km/h (0 Bft) S-SW 205 0 min 0,000 mm 0,0 UV-I 62 W/m 11,9 C 13,0 C 1,6 km/h (1 Bft) 100,00 %
20.05.2019 09:48 13,0 C 17,2 C 13,9 C 93 % 999,5 hPa 0,0 l/m 0,7 km/h (0 Bft) S-SW 205 0 min 0,000 mm 0,0 UV-I 67 W/m 11,9 C 13,0 C 1,6 km/h (1 Bft) 100,00 %
20.05.2019 09:50 13,1 C 17,2 C 13,9 C 93 % 999,5 hPa 0,2 l/m 0,7 km/h (0 Bft) S-SW 205 0 min 0,000 mm 0,0 UV-I 80 W/m 12,0 C 13,1 C 1,6 km/h (1 Bft) 100,00 %
20.05.2019 09:52 13,1 C 17,2 C 13,9 C 93 % 999,5 hPa 0,0 l/m 1,2 km/h (1 Bft) S-SW 205 0 min 0,000 mm 0,0 UV-I 81 W/m 12,0 C 13,1 C 1,6 km/h (1 Bft) 98,04 %
20.05.2019 09:54 13,1 C 17,2 C 13,9 C 93 % 999,5 hPa 0,0 l/m 0,3 km/h (0 Bft) S-SW 205 0 min 0,000 mm 0,0 UV-I 66 W/m 12,0 C 13,1 C 1,6 km/h (1 Bft) 100,00 %
20.05.2019 09:56 13,2 C 17,2 C 13,9 C 93 % 999,5 hPa 0,0 l/m 1,5 km/h (1 Bft) S-SW 205 0 min 0,000 mm 0,0 UV-I 46 W/m 12,1 C 13,2 C 3,2 km/h (1 Bft) 100,00 %
20.05.2019 09:58 13,2 C 17,2 C 13,9 C 93 % 999,5 hPa 0,0 l/m 1,1 km/h (1 Bft) S-SW 205 0 min 0,000 mm 0,0 UV-I 39 W/m 12,1 C 13,2 C 3,2 km/h (1 Bft) 100,00 %
20.05.2019 10:00 13,2 C 17,2 C 13,9 C 93 % 999,5 hPa 0,0 l/m 0,1 km/h (0 Bft) S-SW 205 0 min 0,025 mm 0,0 UV-I 43 W/m 12,1 C 13,2 C 1,6 km/h (1 Bft) 95,74 %
20.05.2019 10:02 13,1 C 17,2 C 13,9 C 93 % 999,5 hPa 0,0 l/m 0,0 km/h (0 Bft) S-SW 205 0 min 0,000 mm 0,0 UV-I 46 W/m 12,0 C 13,1 C 0,0 km/h (0 Bft) 97,87 %
20.05.2019 10:04 13,1 C 17,2 C 13,9 C 93 % 999,5 hPa 0,2 l/m 0,0 km/h (0 Bft) S-SW 205 0 min 0,000 mm 0,0 UV-I 43 W/m 12,0 C 13,1 C 0,0 km/h (0 Bft) 97,87 %
20.05.2019 10:06 13,1 C 17,2 C 13,9 C 94 % 999,5 hPa 0,0 l/m 1,3 km/h (1 Bft) S-SW 205 0 min 0,000 mm 0,0 UV-I 39 W/m 12,2 C 13,1 C 3,2 km/h (1 Bft) 98,11 %
20.05.2019 10:08 13,1 C 17,2 C 13,9 C 94 % 999,5 hPa 0,0 l/m 1,2 km/h (1 Bft) S-SW 205 0 min 0,000 mm 0,0 UV-I 38 W/m 12,2 C 13,1 C 1,6 km/h (1 Bft) 97,56 %
20.05.2019 10:10 13,1 C 17,2 C 13,9 C 94 % 999,5 hPa 0,0 l/m 0,7 km/h (0 Bft) S-SW 205 0 min 0,000 mm 0,0 UV-I 40 W/m 12,2 C 13,1 C 1,6 km/h (1 Bft) 96,00 %
20.05.2019 10:12 13,1 C 17,2 C 13,9 C 94 % 999,6 hPa 0,2 l/m 1,1 km/h (1 Bft) S-SW 205 0 min 0,000 mm 0,0 UV-I 42 W/m 12,2 C 13,1 C 1,6 km/h (1 Bft) 97,87 %
20.05.2019 10:14 13,1 C 17,2 C 13,9 C 94 % 999,6 hPa 0,0 l/m 0,1 km/h (0 Bft) S-SW 205 0 min 0,000 mm 0,0 UV-I 42 W/m 12,2 C 13,1 C 1,6 km/h (1 Bft) 95,12 %
20.05.2019 10:16 13,1 C 17,2 C 13,9 C 94 % 999,6 hPa 0,0 l/m 0,0 km/h (0 Bft) S-SW 205 0 min 0,000 mm 0,0 UV-I 40 W/m 12,2 C 13,1 C 0,0 km/h (0 Bft) 97,87 %
20.05.2019 10:18 13,0 C 17,2 C 13,3 C 94 % 999,5 hPa 0,0 l/m 0,4 km/h (0 Bft) S-SW 205 0 min 0,000 mm 0,0 UV-I 39 W/m 12,1 C 13,0 C 1,6 km/h (1 Bft) 94,00 %
20.05.2019 10:20 13,0 C 17,2 C 13,9 C 94 % 999,5 hPa 0,0 l/m 0,7 km/h (0 Bft) S-SW 205 0 min 0,000 mm 0,0 UV-I 42 W/m 12,1 C 13,0 C 1,6 km/h (1 Bft) 98,11 %
20.05.2019 10:22 13,1 C 17,2 C 13,9 C 94 % 999,6 hPa 0,0 l/m 0,5 km/h (0 Bft) S-SW 205 0 min 0,000 mm 0,0 UV-I 51 W/m 12,2 C 13,1 C 1,6 km/h (1 Bft) 97,87 %
20.05.2019 10:24 13,0 C 17,2 C 13,9 C 94 % 999,5 hPa 0,2 l/m 0,6 km/h (0 Bft) S-SW 205 0 min 0,000 mm 0,0 UV-I 65 W/m 12,1 C 13,0 C 1,6 km/h (1 Bft) 97,22 %
20.05.2019 10:26 13,1 C 17,2 C 13,9 C 94 % 999,5 hPa 0,0 l/m 0,6 km/h (0 Bft) S-SW 205 0 min 0,000 mm 0,0 UV-I 75 W/m 12,2 C 13,1 C 1,6 km/h (1 Bft) 100,00 %
20.05.2019 10:28 13,1 C 17,2 C 13,9 C 94 % 999,5 hPa 0,0 l/m 0,8 km/h (0 Bft) S-SW 205 0 min 0,000 mm 0,0 UV-I 83 W/m 12,2 C 13,1 C 3,2 km/h (1 Bft) 100,00 %
20.05.2019 10:30 13,1 C 17,2 C 14,4 C 94 % 999,6 hPa 0,0 l/m 0,0 km/h (0 Bft) S-SW 205 0 min 0,000 mm 0,0 UV-I 84 W/m 12,2 C 13,1 C 0,0 km/h (0 Bft) 100,00 %
20.05.2019 10:32 13,0 C 17,2 C 14,4 C 94 % 999,5 hPa 0,0 l/m 0,1 km/h (0 Bft) S-SW 205 0 min 0,000 mm 0,0 UV-I 83 W/m 12,1 C 13,0 C 1,6 km/h (1 Bft) 100,00 %
20.05.2019 10:34 13,1 C 17,2 C 14,4 C 94 % 999,5 hPa 0,0 l/m 0,8 km/h (0 Bft) S-SW 205 0 min 0,000 mm 0,0 UV-I 81 W/m 12,2 C 13,1 C 3,2 km/h (1 Bft) 98,21 %
20.05.2019 10:36 13,2 C 17,2 C 14,4 C 94 % 999,6 hPa 0,0 l/m 1,3 km/h (1 Bft) S-SW 205 0 min 0,000 mm 0,0 UV-I 81 W/m 12,3 C 13,2 C 1,6 km/h (1 Bft) 100,00 %
20.05.2019 10:38 13,2 C 17,2 C 14,4 C 94 % 999,6 hPa 0,0 l/m 0,3 km/h (0 Bft) S-SW 205 0 min 0,000 mm 0,0 UV-I 78 W/m 12,3 C 13,2 C 1,6 km/h (1 Bft) 100,00 %
20.05.2019 10:40 13,1 C 17,2 C 14,4 C 94 % 999,6 hPa 0,0 l/m 0,0 km/h (0 Bft) S-SW 205 0 min 0,000 mm 0,0 UV-I 75 W/m 12,2 C 13,1 C 0,0 km/h (0 Bft) 100,00 %
20.05.2019 10:42 13,1 C 17,2 C 14,4 C 94 % 999,6 hPa 0,0 l/m 1,0 km/h (0 Bft) S-SW 205 0 min 0,000 mm 0,0 UV-I 72 W/m 12,2 C 13,1 C 3,2 km/h (1 Bft) 100,00 %
20.05.2019 10:44 13,2 C 17,2 C 14,4 C 94 % 999,6 hPa 0,0 l/m 1,8 km/h (1 Bft) S-SW 205 0 min 0,000 mm 0,0 UV-I 76 W/m 12,3 C 13,2 C 3,2 km/h (1 Bft) 100,00 %
20.05.2019 10:46 13,2 C 17,2 C 14,4 C 94 % 999,6 hPa 0,0 l/m 0,3 km/h (0 Bft) S-SW 205 0 min 0,000 mm 0,2 UV-I 87 W/m 12,3 C 13,2 C 1,6 km/h (1 Bft) 98,00 %
20.05.2019 10:48 13,2 C 17,2 C 14,4 C 94 % 999,6 hPa 0,2 l/m 0,8 km/h (0 Bft) S-SW 205 0 min 0,000 mm 0,5 UV-I 90 W/m 12,3 C 13,2 C 1,6 km/h (1 Bft) 100,00 %
20.05.2019 10:50 13,3 C 17,2 C 14,4 C 94 % 999,6 hPa 0,0 l/m 0,0 km/h (0 Bft) S-SW 205 0 min 0,000 mm 0,1 UV-I 81 W/m 12,4 C 13,3 C 0,0 km/h (0 Bft) 100,00 %
20.05.2019 10:52 13,3 C 17,2 C 14,4 C 94 % 999,6 hPa 0,0 l/m 1,8 km/h (1 Bft) S-SW 204 0 min 0,000 mm 0,0 UV-I 71 W/m 12,4 C 13,3 C 4,8 km/h (1 Bft) 100,00 %
20.05.2019 10:54 13,3 C 17,2 C 14,4 C 94 % 999,6 hPa 0,0 l/m 3,3 km/h (1 Bft) S-SW 203 0 min 0,000 mm 0,0 UV-I 60 W/m 12,4 C 13,3 C 4,8 km/h (1 Bft) 98,00 %
20.05.2019 10:56 13,3 C 17,2 C 14,4 C 94 % 999,6 hPa 0,0 l/m 0,9 km/h (0 Bft) S-SW 203 0 min 0,000 mm 0,0 UV-I 50 W/m 12,4 C 13,3 C 3,2 km/h (1 Bft) 100,00 %
20.05.2019 10:58 13,3 C 17,2 C 14,4 C 94 % 999,6 hPa 0,0 l/m 0,8 km/h (0 Bft) S-SW 205 0 min 0,000 mm 0,0 UV-I 43 W/m 12,4 C 13,3 C 3,2 km/h (1 Bft) 97,87 %
20.05.2019 11:00 13,2 C 17,2 C 13,9 C 94 % 999,6 hPa 0,2 l/m 1,9 km/h (1 Bft) S-SW 210 0 min 0,025 mm 0,0 UV-I 41 W/m 12,3 C 13,2 C 4,8 km/h (1 Bft) 100,00 %
20.05.2019 11:02 13,2 C 17,2 C 13,9 C 94 % 999,6 hPa 0,0 l/m 0,3 km/h (0 Bft) S-SW 210 0 min 0,000 mm 0,0 UV-I 39 W/m 12,3 C 13,2 C 1,6 km/h (1 Bft) 97,87 %
20.05.2019 11:04 13,1 C 17,2 C 13,9 C 94 % 999,7 hPa 0,0 l/m 1,5 km/h (1 Bft) S-SW 209 0 min 0,000 mm 0,0 UV-I 35 W/m 12,2 C 13,1 C 4,8 km/h (1 Bft) 98,00 %
20.05.2019 11:06 13,1 C 17,2 C 13,9 C 94 % 999,7 hPa 0,2 l/m 5,8 km/h (2 Bft) S 171 0 min 0,000 mm 0,0 UV-I 32 W/m 12,2 C 13,1 C 9,7 km/h (2 Bft) 100,00 %
20.05.2019 11:08 12,9 C 17,2 C 13,3 C 94 % 999,7 hPa 0,2 l/m 5,2 km/h (1 Bft) S 182 0 min 0,000 mm 0,0 UV-I 34 W/m 12,0 C 12,9 C 6,4 km/h (2 Bft) 98,46 %
20.05.2019 11:10 12,9 C 17,2 C 13,9 C 94 % 999,7 hPa 0,0 l/m 4,1 km/h (1 Bft) S 171 0 min 0,000 mm 0,0 UV-I 38 W/m 12,0 C 12,9 C 6,4 km/h (2 Bft) 95,45 %
20.05.2019 11:12 12,9 C 17,2 C 13,3 C 94 % 999,6 hPa 0,2 l/m 8,0 km/h (2 Bft) S-SW 210 0 min 0,000 mm 0,0 UV-I 43 W/m 12,0 C 11,9 C 11,3 km/h (2 Bft) 97,87 %
20.05.2019 11:14 12,7 C 17,2 C 13,3 C 94 % 999,6 hPa 0,2 l/m 6,0 km/h (2 Bft) S 171 0 min 0,000 mm 0,0 UV-I 45 W/m 11,8 C 12,7 C 9,7 km/h (2 Bft) 96,00 %
20.05.2019 11:16 12,6 C 17,2 C 13,3 C 94 % 999,6 hPa 0,0 l/m 8,2 km/h (2 Bft) S 187 0 min 0,000 mm 0,0 UV-I 47 W/m 11,7 C 11,5 C 12,9 km/h (3 Bft) 98,00 %
20.05.2019 11:19 12,5 C 17,2 C 12,8 C 94 % 999,6 hPa 0,2 l/m 9,8 km/h (2 Bft) S 175 0 min 0,000 mm 0,0 UV-I 52 W/m 11,6 C 10,5 C 14,5 km/h (3 Bft) 95,77 %
20.05.2019 11:20 12,5 C 17,2 C 12,8 C 94 % 999,6 hPa 0,2 l/m 8,2 km/h (2 Bft) S-SO 165 0 min 0,000 mm 0,0 UV-I 56 W/m 11,6 C 11,4 C 9,7 km/h (2 Bft) 92,86 %
20.05.2019 11:22 12,5 C 17,2 C 13,3 C 94 % 999,6 hPa 0,0 l/m 7,1 km/h (2 Bft) SO 143 0 min 0,000 mm 0,0 UV-I 62 W/m 11,6 C 12,0 C 12,9 km/h (3 Bft) 98,00 %
20.05.2019 11:24 12,5 C 17,2 C 13,3 C 94 % 999,7 hPa 0,2 l/m 6,9 km/h (2 Bft) S 170 0 min 0,000 mm 0,0 UV-I 73 W/m 11,6 C 12,2 C 9,7 km/h (2 Bft) 97,62 %
20.05.2019 11:26 12,6 C 17,2 C 13,3 C 94 % 999,7 hPa 0,2 l/m 7,2 km/h (2 Bft) S-SO 168 0 min 0,000 mm 0,0 UV-I 76 W/m 11,7 C 12,1 C 11,3 km/h (2 Bft) 96,15 %
20.05.2019 11:28 12,6 C 17,2 C 13,3 C 94 % 999,7 hPa 0,2 l/m 7,1 km/h (2 Bft) S-SO 165 0 min 0,000 mm 0,0 UV-I 78 W/m 11,7 C 12,2 C 9,7 km/h (2 Bft) 94,00 %
20.05.2019 11:30 12,5 C 17,2 C 13,3 C 94 % 999,7 hPa 0,2 l/m 6,8 km/h (2 Bft) S 169 0 min 0,000 mm 0,0 UV-I 72 W/m 11,6 C 12,2 C 11,3 km/h (2 Bft) 94,12 %
20.05.2019 11:32 12,6 C 17,2 C 13,3 C 95 % 999,7 hPa 0,0 l/m 6,0 km/h (2 Bft) S 169 0 min 0,000 mm 0,0 UV-I 64 W/m 11,8 C 12,6 C 8,0 km/h (2 Bft) 97,56 %
20.05.2019 11:34 12,6 C 17,2 C 13,3 C 95 % 999,7 hPa 0,0 l/m 6,0 km/h (2 Bft) S-SW 198 0 min 0,000 mm 0,0 UV-I 56 W/m 11,8 C 12,6 C 8,0 km/h (2 Bft) 90,57 %
20.05.2019 11:36 12,5 C 17,2 C 13,3 C 95 % 999,7 hPa 0,2 l/m 6,8 km/h (2 Bft) S-SO 165 0 min 0,000 mm 0,0 UV-I 53 W/m 11,7 C 12,2 C 9,7 km/h (2 Bft) 90,91 %
20.05.2019 11:38 12,5 C 17,2 C 13,3 C 95 % 999,7 hPa 0,0 l/m 8,0 km/h (2 Bft) S 185 0 min 0,000 mm 0,0 UV-I 61 W/m 11,7 C 11,5 C 11,3 km/h (2 Bft) 94,29 %
20.05.2019 11:40 12,5 C 17,2 C 13,3 C 95 % 999,8 hPa 0,2 l/m 7,3 km/h (2 Bft) S-SO 152 0 min 0,000 mm 0,0 UV-I 70 W/m 11,7 C 11,9 C 11,3 km/h (2 Bft) 91,94 %
20.05.2019 11:42 12,4 C 17,2 C 13,3 C 95 % 999,8 hPa 0,0 l/m 5,9 km/h (2 Bft) S-SO 168 0 min 0,000 mm 0,0 UV-I 67 W/m 11,6 C 12,4 C 8,0 km/h (2 Bft) 95,45 %
20.05.2019 11:44 12,4 C 17,2 C 13,3 C 95 % 999,7 hPa 0,0 l/m 4,2 km/h (1 Bft) S-SO 163 0 min 0,000 mm 0,0 UV-I 59 W/m 11,6 C 12,4 C 6,4 km/h (2 Bft) 96,00 %
20.05.2019 11:46 12,5 C 17,2 C 13,3 C 95 % 999,7 hPa 0,0 l/m 9,6 km/h (2 Bft) S 170 0 min 0,000 mm 0,0 UV-I 52 W/m 11,7 C 10,6 C 14,5 km/h (3 Bft) 94,74 %
20.05.2019 11:48 12,3 C 17,2 C 13,3 C 95 % 999,8 hPa 0,0 l/m 7,5 km/h (2 Bft) S-SO 166 0 min 0,000 mm 0,0 UV-I 51 W/m 11,5 C 11,6 C 12,9 km/h (3 Bft) 96,00 %
20.05.2019 11:50 12,3 C 17,2 C 13,3 C 94 % 999,8 hPa 0,2 l/m 7,4 km/h (2 Bft) S 191 0 min 0,000 mm 0,0 UV-I 53 W/m 11,4 C 11,6 C 11,3 km/h (2 Bft) 95,74 %
20.05.2019 11:52 12,3 C 17,2 C 13,3 C 94 % 999,8 hPa 0,0 l/m 6,3 km/h (2 Bft) S-SW 192 0 min 0,000 mm 0,0 UV-I 58 W/m 11,4 C 12,3 C 9,7 km/h (2 Bft) 98,00 %
20.05.2019 11:54 12,3 C 17,2 C 13,3 C 95 % 999,8 hPa 0,0 l/m 3,7 km/h (1 Bft) S-SO 161 0 min 0,000 mm 0,0 UV-I 70 W/m 11,5 C 12,3 C 9,7 km/h (2 Bft) 95,74 %
20.05.2019 11:56 12,4 C 17,2 C 13,3 C 95 % 999,8 hPa 0,0 l/m 6,0 km/h (2 Bft) S 185 0 min 0,000 mm 0,0 UV-I 76 W/m 11,6 C 12,4 C 14,5 km/h (3 Bft) 97,22 %
20.05.2019 11:58 12,4 C 17,2 C 13,3 C 95 % 999,8 hPa 0,2 l/m 6,2 km/h (2 Bft) S 169 0 min 0,000 mm 0,5 UV-I 84 W/m 11,6 C 12,4 C 9,7 km/h (2 Bft) 98,00 %
20.05.2019 12:00 12,4 C 17,2 C 13,3 C 95 % 999,8 hPa 0,0 l/m 5,5 km/h (1 Bft) S 176 0 min 0,026 mm 0,5 UV-I 90 W/m 11,6 C 12,4 C 9,7 km/h (2 Bft) 95,74 %
20.05.2019 12:02 12,5 C 17,2 C 13,9 C 95 % 999,8 hPa 0,0 l/m 3,0 km/h (1 Bft) S 176 0 min 0,000 mm 0,5 UV-I 92 W/m 11,7 C 12,5 C 6,4 km/h (2 Bft) 96,23 %
20.05.2019 12:04 12,6 C 17,2 C 13,9 C 95 % 999,8 hPa 0,0 l/m 4,2 km/h (1 Bft) S-SW 194 0 min 0,000 mm 0,5 UV-I 90 W/m 11,8 C 12,6 C 6,4 km/h (2 Bft) 98,00 %
20.05.2019 12:06 12,6 C 17,2 C 13,9 C 95 % 999,8 hPa 0,0 l/m 4,5 km/h (1 Bft) S 190 0 min 0,000 mm 0,5 UV-I 87 W/m 11,8 C 12,6 C 6,4 km/h (2 Bft) 94,29 %
20.05.2019 12:08 12,6 C 17,2 C 13,9 C 95 % 999,8 hPa 0,2 l/m 6,2 km/h (2 Bft) S-SW 209 0 min 0,000 mm 0,1 UV-I 83 W/m 11,8 C 12,6 C 9,7 km/h (2 Bft) 96,00 %
20.05.2019 12:10 12,6 C 17,2 C 13,9 C 95 % 999,8 hPa 0,0 l/m 6,2 km/h (2 Bft) S-SO 159 0 min 0,000 mm 0,3 UV-I 84 W/m 11,8 C 12,6 C 11,3 km/h (2 Bft) 95,74 %
20.05.2019 12:12 12,6 C 17,2 C 13,9 C 95 % 999,8 hPa 0,0 l/m 7,1 km/h (2 Bft) S-SW 208 0 min 0,000 mm 0,5 UV-I 89 W/m 11,8 C 12,2 C 9,7 km/h (2 Bft) 98,00 %
20.05.2019 12:14 12,7 C 17,2 C 13,9 C 95 % 999,9 hPa 0,2 l/m 5,2 km/h (1 Bft) S 181 0 min 0,000 mm 0,5 UV-I 99 W/m 11,9 C 12,7 C 8,0 km/h (2 Bft) 97,87 %
20.05.2019 12:16 12,7 C 17,2 C 13,9 C 95 % 999,9 hPa 0,0 l/m 4,5 km/h (1 Bft) S 191 0 min 0,000 mm 0,6 UV-I 107 W/m 11,9 C 12,7 C 6,4 km/h (2 Bft) 97,87 %
20.05.2019 12:18 12,7 C 17,2 C 13,9 C 95 % 999,9 hPa 0,0 l/m 6,9 km/h (2 Bft) S-SO 153 0 min 0,000 mm 0,6 UV-I 117 W/m 11,9 C 12,4 C 9,7 km/h (2 Bft) 98,00 %
20.05.2019 12:20 12,7 C 17,2 C 14,4 C 95 % 999,9 hPa 0,0 l/m 5,3 km/h (1 Bft) S-SW 208 0 min 0,000 mm 0,7 UV-I 130 W/m 11,9 C 12,7 C 8,0 km/h (2 Bft) 93,62 %
20.05.2019 12:22 12,8 C 17,2 C 14,4 C 95 % 999,9 hPa 0,0 l/m 5,2 km/h (1 Bft) S 186 0 min 0,000 mm 0,8 UV-I 146 W/m 12,0 C 12,8 C 8,0 km/h (2 Bft) 97,44 %
20.05.2019 12:24 12,9 C 17,2 C 15,0 C 95 % 999,9 hPa 0,0 l/m 4,2 km/h (1 Bft) S 184 0 min 0,000 mm 0,9 UV-I 157 W/m 12,1 C 12,9 C 9,7 km/h (2 Bft) 97,87 %
20.05.2019 12:26 12,8 C 17,2 C 14,4 C 95 % 999,9 hPa 0,0 l/m 9,4 km/h (2 Bft) S-SW 202 0 min 0,000 mm 0,9 UV-I 159 W/m 12,0 C 11,0 C 14,5 km/h (3 Bft) 96,43 %
20.05.2019 12:28 12,9 C 17,2 C 15,0 C 95 % 1000,0 hPa 0,2 l/m 6,5 km/h (2 Bft) S 186 0 min 0,000 mm 0,9 UV-I 165 W/m 12,1 C 12,9 C 9,7 km/h (2 Bft) 97,56 %
20.05.2019 12:30 12,9 C 17,2 C 15,0 C 95 % 1000,0 hPa 0,0 l/m 5,8 km/h (2 Bft) S 188 0 min 0,000 mm 0,9 UV-I 164 W/m 12,1 C 12,9 C 9,7 km/h (2 Bft) 97,37 %
20.05.2019 12:32 12,8 C 17,2 C 15,0 C 94 % 1000,0 hPa 0,0 l/m 10,0 km/h (2 Bft) S-SW 205 0 min 0,000 mm 0,9 UV-I 166 W/m 11,9 C 10,7 C 19,3 km/h (3 Bft) 98,39 %
20.05.2019 12:34 12,8 C 17,2 C 15,0 C 94 % 1000,0 hPa 0,0 l/m 7,6 km/h (2 Bft) S-SW 192 0 min 0,000 mm 0,9 UV-I 165 W/m 11,9 C 12,0 C 12,9 km/h (3 Bft) 97,37 %
20.05.2019 12:36 12,9 C 17,2 C 15,0 C 94 % 1000,0 hPa 0,0 l/m 7,1 km/h (2 Bft) S-SW 213 0 min 0,000 mm 0,9 UV-I 165 W/m 12,0 C 12,5 C 14,5 km/h (3 Bft) 96,23 %
20.05.2019 12:38 12,9 C 17,2 C 14,4 C 93 % 1000,1 hPa 0,0 l/m 7,9 km/h (2 Bft) S-SW 204 0 min 0,000 mm 0,9 UV-I 169 W/m 11,8 C 12,0 C 11,3 km/h (2 Bft) 97,37 %
20.05.2019 12:40 13,0 C 17,2 C 15,0 C 94 % 1000,1 hPa 0,0 l/m 5,7 km/h (1 Bft) S-SW 213 0 min 0,000 mm 0,9 UV-I 172 W/m 12,1 C 13,0 C 9,7 km/h (2 Bft) 98,11 %
20.05.2019 12:42 13,1 C 17,2 C 15,0 C 94 % 1000,1 hPa 0,0 l/m 6,6 km/h (2 Bft) SW 225 0 min 0,000 mm 0,9 UV-I 172 W/m 12,2 C 13,0 C 9,7 km/h (2 Bft) 100,00 %
20.05.2019 12:44 13,2 C 17,2 C 15,6 C 94 % 1000,1 hPa 0,0 l/m 5,4 km/h (1 Bft) SW 230 0 min 0,000 mm 1,0 UV-I 176 W/m 12,3 C 13,2 C 11,3 km/h (2 Bft) 100,00 %
20.05.2019 12:46 13,2 C 17,2 C 15,0 C 93 % 1000,1 hPa 0,0 l/m 6,7 km/h (2 Bft) SW 224 0 min 0,000 mm 1,0 UV-I 177 W/m 12,1 C 13,0 C 9,7 km/h (2 Bft) 98,00 %
20.05.2019 12:48 13,2 C 17,2 C 15,0 C 93 % 1000,1 hPa 0,0 l/m 7,8 km/h (2 Bft) SW 217 0 min 0,000 mm 1,0 UV-I 180 W/m 12,1 C 12,3 C 11,3 km/h (2 Bft) 100,00 %
20.05.2019 12:50 13,3 C 17,2 C 15,6 C 93 % 1000,1 hPa 0,0 l/m 7,0 km/h (2 Bft) S-SW 212 0 min 0,000 mm 1,0 UV-I 177 W/m 12,2 C 12,9 C 9,7 km/h (2 Bft) 100,00 %
20.05.2019 12:52 13,3 C 17,2 C 15,6 C 93 % 1000,1 hPa 0,0 l/m 3,9 km/h (1 Bft) S-SW 212 0 min 0,000 mm 1,0 UV-I 178 W/m 12,2 C 13,3 C 6,4 km/h (2 Bft) 97,87 %
20.05.2019 12:54 13,3 C 17,2 C 15,6 C 93 % 1000,2 hPa 0,0 l/m 3,6 km/h (1 Bft) W-SW 241 0 min 0,000 mm 1,0 UV-I 176 W/m 12,2 C 13,3 C 6,4 km/h (2 Bft) 100,00 %
20.05.2019 12:56 13,3 C 17,2 C 15,6 C 93 % 1000,2 hPa 0,0 l/m 5,7 km/h (1 Bft) S 173 0 min 0,000 mm 1,0 UV-I 173 W/m 12,2 C 13,3 C 9,7 km/h (2 Bft) 97,56 %
20.05.2019 12:58 13,3 C 17,2 C 15,6 C 93 % 1000,2 hPa 0,2 l/m 4,2 km/h (1 Bft) S-SW 205 0 min 0,000 mm 1,0 UV-I 175 W/m 12,2 C 13,3 C 9,7 km/h (2 Bft) 96,43 %
20.05.2019 13:00 13,3 C 17,2 C 15,6 C 92 % 1000,2 hPa 0,0 l/m 5,9 km/h (2 Bft) SW 221 0 min 0,000 mm 1,0 UV-I 173 W/m 12,0 C 13,3 C 9,7 km/h (2 Bft) 97,56 %
20.05.2019 13:02 13,3 C 17,2 C 15,0 C 92 % 1000,2 hPa 0,0 l/m 6,3 km/h (2 Bft) SW 218 0 min 0,076 mm 0,9 UV-I 159 W/m 12,0 C 13,3 C 11,3 km/h (2 Bft) 98,00 %
20.05.2019 13:04 13,4 C 17,2 C 15,6 C 93 % 1000,2 hPa 0,0 l/m 5,3 km/h (1 Bft) S-SW 209 0 min 0,000 mm 0,9 UV-I 159 W/m 12,3 C 13,4 C 8,0 km/h (2 Bft) 98,00 %
20.05.2019 13:06 13,5 C 17,2 C 15,6 C 92 % 1000,2 hPa 0,0 l/m 3,5 km/h (1 Bft) S-SW 213 0 min 0,000 mm 0,9 UV-I 162 W/m 12,2 C 13,5 C 8,0 km/h (2 Bft) 97,37 %
20.05.2019 13:08 13,5 C 17,2 C 15,6 C 92 % 1000,2 hPa 0,0 l/m 2,9 km/h (1 Bft) S-SW 205 0 min 0,000 mm 1,0 UV-I 163 W/m 12,2 C 13,5 C 6,4 km/h (2 Bft) 97,87 %
20.05.2019 13:10 13,5 C 17,2 C 15,6 C 92 % 1000,2 hPa 0,0 l/m 4,7 km/h (1 Bft) SW 215 0 min 0,000 mm 0,9 UV-I 161 W/m 12,2 C 13,5 C 8,0 km/h (2 Bft) 96,00 %
20.05.2019 13:12 13,5 C 17,2 C 15,6 C 92 % 1000,3 hPa 0,0 l/m 5,6 km/h (1 Bft) SW 221 0 min 0,000 mm 1,0 UV-I 165 W/m 12,2 C 13,5 C 11,3 km/h (2 Bft) 95,74 %
20.05.2019 13:14 13,5 C 17,2 C 15,6 C 92 % 1000,3 hPa 0,0 l/m 8,7 km/h (2 Bft) S-SW 196 0 min 0,000 mm 1,0 UV-I 166 W/m 12,2 C 12,1 C 12,9 km/h (3 Bft) 94,00 %
20.05.2019 13:16 13,5 C 17,2 C 15,6 C 92 % 1000,3 hPa 0,0 l/m 6,5 km/h (2 Bft) SW 236 0 min 0,000 mm 1,0 UV-I 171 W/m 12,2 C 13,5 C 9,7 km/h (2 Bft) 95,74 %
20.05.2019 13:18 13,5 C 17,2 C 15,6 C 92 % 1000,3 hPa 0,0 l/m 6,6 km/h (2 Bft) W-SW 243 0 min 0,000 mm 1,0 UV-I 180 W/m 12,2 C 13,4 C 9,7 km/h (2 Bft) 92,86 %
20.05.2019 13:20 13,5 C 17,2 C 15,0 C 91 % 1000,3 hPa 0,0 l/m 5,9 km/h (2 Bft) S-SW 204 0 min 0,000 mm 1,1 UV-I 180 W/m 12,1 C 13,5 C 9,7 km/h (2 Bft) 94,00 %
20.05.2019 13:22 13,6 C 17,2 C 15,6 C 91 % 1000,3 hPa 0,0 l/m 6,8 km/h (2 Bft) SW 218 0 min 0,000 mm 1,0 UV-I 175 W/m 12,2 C 13,4 C 11,3 km/h (2 Bft) 97,73 %
20.05.2019 13:24 13,6 C 17,2 C 15,6 C 91 % 1000,3 hPa 0,0 l/m 9,9 km/h (2 Bft) S-SW 213 0 min 0,000 mm 1,0 UV-I 171 W/m 12,2 C 11,6 C 17,7 km/h (3 Bft) 95,45 %
20.05.2019 13:26 13,6 C 17,2 C 15,6 C 91 % 1000,3 hPa 0,0 l/m 5,7 km/h (1 Bft) S-SW 211 0 min 0,000 mm 1,0 UV-I 171 W/m 12,2 C 13,6 C 9,7 km/h (2 Bft) 97,87 %
20.05.2019 13:28 13,6 C 17,2 C 15,6 C 91 % 1000,4 hPa 0,0 l/m 4,9 km/h (1 Bft) S-SW 211 0 min 0,000 mm 1,0 UV-I 173 W/m 12,2 C 13,6 C 8,0 km/h (2 Bft) 94,00 %
20.05.2019 13:30 13,6 C 17,2 C 15,6 C 91 % 1000,4 hPa 0,0 l/m 6,2 km/h (2 Bft) S-SW 208 0 min 0,000 mm 1,0 UV-I 179 W/m 12,2 C 13,6 C 9,7 km/h (2 Bft) 96,00 %
20.05.2019 13:32 13,7 C 17,2 C 15,6 C 91 % 1000,3 hPa 0,0 l/m 6,6 km/h (2 Bft) SW 230 0 min 0,000 mm 1,1 UV-I 182 W/m 12,3 C 13,6 C 9,7 km/h (2 Bft) 98,00 %
20.05.2019 13:34 13,7 C 17,2 C 15,6 C 91 % 1000,4 hPa 0,0 l/m 6,6 km/h (2 Bft) S-SW 211 0 min 0,000 mm 1,1 UV-I 186 W/m 12,3 C 13,6 C 9,7 km/h (2 Bft) 97,37 %
20.05.2019 13:36 13,8 C 17,2 C 15,6 C 92 % 1000,4 hPa 0,0 l/m 5,7 km/h (1 Bft) S-SW 200 0 min 0,000 mm 1,1 UV-I 185 W/m 12,5 C 13,8 C 11,3 km/h (2 Bft) 96,00 %
20.05.2019 13:38 13,8 C 17,2 C 15,6 C 91 % 1000,4 hPa 0,0 l/m 6,0 km/h (2 Bft) SW 235 0 min 0,000 mm 1,1 UV-I 186 W/m 12,4 C 13,8 C 9,7 km/h (2 Bft) 95,74 %
20.05.2019 13:40 13,8 C 17,2 C 15,6 C 91 % 1000,4 hPa 0,0 l/m 7,6 km/h (2 Bft) SW 216 0 min 0,000 mm 1,1 UV-I 192 W/m 12,4 C 13,1 C 9,7 km/h (2 Bft) 97,87 %
20.05.2019 13:42 13,8 C 17,2 C 15,6 C 91 % 1000,4 hPa 0,0 l/m 4,9 km/h (1 Bft) SW 221 0 min 0,000 mm 1,2 UV-I 205 W/m 12,4 C 13,8 C 9,7 km/h (2 Bft) 98,11 %
20.05.2019 13:44 13,8 C 17,2 C 16,1 C 91 % 1000,5 hPa 0,0 l/m 5,7 km/h (1 Bft) SW 214 0 min 0,000 mm 1,3 UV-I 220 W/m 12,4 C 13,8 C 8,0 km/h (2 Bft) 100,00 %
20.05.2019 13:46 13,8 C 17,2 C 16,7 C 91 % 1000,5 hPa 0,0 l/m 3,5 km/h (1 Bft) SW 214 0 min 0,000 mm 1,3 UV-I 231 W/m 12,4 C 13,8 C 6,4 km/h (2 Bft) 100,00 %
20.05.2019 13:48 13,9 C 17,2 C 16,7 C 92 % 1000,5 hPa 0,0 l/m 5,4 km/h (1 Bft) SW 215 0 min 0,000 mm 1,4 UV-I 235 W/m 12,6 C 13,9 C 8,0 km/h (2 Bft) 98,00 %
20.05.2019 13:50 14,1 C 17,2 C 16,7 C 91 % 1000,5 hPa 0,0 l/m 5,0 km/h (1 Bft) SW 236 0 min 0,000 mm 1,4 UV-I 236 W/m 12,7 C 14,1 C 8,0 km/h (2 Bft) 100,00 %
20.05.2019 13:52 14,0 C 17,2 C 16,7 C 90 % 1000,5 hPa 0,0 l/m 7,5 km/h (2 Bft) SW 227 0 min 0,000 mm 1,4 UV-I 235 W/m 12,4 C 13,3 C 11,3 km/h (2 Bft) 100,00 %
20.05.2019 13:54 14,1 C 17,2 C 16,1 C 90 % 1000,5 hPa 0,0 l/m 7,7 km/h (2 Bft) S-SW 192 0 min 0,000 mm 1,3 UV-I 232 W/m 12,5 C 13,3 C 11,3 km/h (2 Bft) 100,00 %
20.05.2019 13:56 14,1 C 17,2 C 16,7 C 90 % 1000,5 hPa 0,0 l/m 5,6 km/h (1 Bft) SW 218 0 min 0,000 mm 1,3 UV-I 230 W/m 12,5 C 14,1 C 8,0 km/h (2 Bft) 100,00 %
20.05.2019 13:58 14,1 C 17,2 C 16,7 C 90 % 1000,5 hPa 0,0 l/m 5,9 km/h (2 Bft) SW 215 0 min 0,000 mm 1,3 UV-I 228 W/m 12,5 C 14,1 C 9,7 km/h (2 Bft) 97,37 %
20.05.2019 14:00 14,2 C 17,2 C 16,7 C 90 % 1000,5 hPa 0,0 l/m 4,5 km/h (1 Bft) W-SW 240 0 min 0,000 mm 1,3 UV-I 227 W/m 12,6 C 14,2 C 8,0 km/h (2 Bft) 100,00 %
20.05.2019 14:02 14,2 C 17,2 C 16,7 C 90 % 1000,5 hPa 0,0 l/m 5,7 km/h (1 Bft) S 174 0 min 0,102 mm 1,3 UV-I 228 W/m 12,6 C 14,2 C 8,0 km/h (2 Bft) 100,00 %
20.05.2019 14:04 14,2 C 17,2 C 16,7 C 90 % 1000,5 hPa 0,0 l/m 4,1 km/h (1 Bft) S 183 0 min 0,000 mm 1,3 UV-I 234 W/m 12,6 C 14,2 C 8,0 km/h (2 Bft) 100,00 %
20.05.2019 14:06 14,1 C 17,2 C 16,7 C 90 % 1000,6 hPa 0,0 l/m 4,5 km/h (1 Bft) O-SO 117 0 min 0,000 mm 1,4 UV-I 242 W/m 12,5 C 14,1 C 8,0 km/h (2 Bft) 100,00 %
20.05.2019 14:08 14,1 C 17,2 C 16,7 C 90 % 1000,5 hPa 0,0 l/m 5,6 km/h (1 Bft) S 184 0 min 0,000 mm 1,4 UV-I 246 W/m 12,5 C 14,1 C 9,7 km/h (2 Bft) 100,00 %
20.05.2019 14:10 14,0 C 17,2 C 16,7 C 90 % 1000,5 hPa 0,0 l/m 4,2 km/h (1 Bft) S 172 0 min 0,000 mm 1,4 UV-I 253 W/m 12,4 C 14,0 C 8,0 km/h (2 Bft) 100,00 %
20.05.2019 14:12 14,1 C 17,2 C 17,2 C 91 % 1000,5 hPa 0,0 l/m 5,7 km/h (1 Bft) S 190 0 min 0,000 mm 1,5 UV-I 257 W/m 12,7 C 14,1 C 8,0 km/h (2 Bft) 100,00 %
20.05.2019 14:14 14,1 C 17,2 C 17,2 C 91 % 1000,5 hPa 0,0 l/m 4,9 km/h (1 Bft) S-SO 147 0 min 0,000 mm 1,5 UV-I 256 W/m 12,7 C 14,1 C 9,7 km/h (2 Bft) 100,00 %
20.05.2019 14:16 14,1 C 17,2 C 17,2 C 91 % 1000,5 hPa 0,0 l/m 6,6 km/h (2 Bft) S-SW 198 0 min 0,000 mm 1,5 UV-I 265 W/m 12,7 C 14,0 C 9,7 km/h (2 Bft) 98,00 %
20.05.2019 14:18 14,1 C 17,2 C 17,2 C 91 % 1000,5 hPa 0,0 l/m 5,7 km/h (1 Bft) S 184 0 min 0,000 mm 1,5 UV-I 264 W/m 12,7 C 14,1 C 8,0 km/h (2 Bft) 100,00 %
20.05.2019 14:20 14,0 C 17,2 C 17,2 C 90 % 1000,5 hPa 0,0 l/m 7,5 km/h (2 Bft) S 180 0 min 0,000 mm 1,5 UV-I 272 W/m 12,4 C 13,3 C 12,9 km/h (3 Bft) 98,28 %
20.05.2019 14:22 13,9 C 17,2 C 16,7 C 90 % 1000,5 hPa 0,0 l/m 7,2 km/h (2 Bft) S-SO 158 0 min 0,000 mm 1,6 UV-I 277 W/m 12,3 C 13,4 C 11,3 km/h (2 Bft) 100,00 %
20.05.2019 14:24 13,9 C 17,2 C 16,7 C 90 % 1000,5 hPa 0,0 l/m 6,7 km/h (2 Bft) S 170 0 min 0,000 mm 1,6 UV-I 280 W/m 12,3 C 13,7 C 11,3 km/h (2 Bft) 100,00 %
20.05.2019 14:26 13,9 C 17,2 C 16,7 C 90 % 1000,5 hPa 0,0 l/m 7,4 km/h (2 Bft) S 178 0 min 0,000 mm 1,6 UV-I 282 W/m 12,3 C 13,3 C 12,9 km/h (3 Bft) 100,00 %
20.05.2019 14:28 13,9 C 17,2 C 16,7 C 89 % 1000,6 hPa 0,0 l/m 7,7 km/h (2 Bft) S 175 0 min 0,000 mm 1,5 UV-I 277 W/m 12,1 C 13,1 C 11,3 km/h (2 Bft) 98,00 %
20.05.2019 14:30 13,9 C 17,2 C 16,7 C 90 % 1000,5 hPa 0,0 l/m 8,0 km/h (2 Bft) S-SO 160 0 min 0,000 mm 1,5 UV-I 272 W/m 12,3 C 12,9 C 14,5 km/h (3 Bft) 97,87 %
20.05.2019 14:32 13,9 C 17,2 C 16,7 C 89 % 1000,6 hPa 0,0 l/m 8,0 km/h (2 Bft) S 179 0 min 0,000 mm 1,4 UV-I 265 W/m 12,1 C 12,9 C 14,5 km/h (3 Bft) 96,15 %
20.05.2019 14:34 13,8 C 17,2 C 16,7 C 88 % 1000,6 hPa 0,0 l/m 5,7 km/h (1 Bft) S-SO 161 0 min 0,000 mm 1,4 UV-I 255 W/m 11,8 C 13,8 C 8,0 km/h (2 Bft) 98,39 %
20.05.2019 14:36 13,9 C 17,2 C 16,7 C 89 % 1000,6 hPa 0,0 l/m 4,8 km/h (1 Bft) S-SO 161 0 min 0,000 mm 1,3 UV-I 247 W/m 12,1 C 13,9 C 8,0 km/h (2 Bft) 96,00 %
20.05.2019 14:38 13,9 C 17,2 C 16,7 C 90 % 1000,6 hPa 0,0 l/m 5,9 km/h (2 Bft) S-SW 198 0 min 0,000 mm 1,3 UV-I 238 W/m 12,3 C 13,9 C 11,3 km/h (2 Bft) 96,00 %
20.05.2019 14:40 13,9 C 17,2 C 16,7 C 89 % 1000,6 hPa 0,0 l/m 5,9 km/h (2 Bft) S-SW 194 0 min 0,000 mm 1,2 UV-I 230 W/m 12,1 C 13,9 C 9,7 km/h (2 Bft) 98,00 %
20.05.2019 14:42 13,8 C 17,2 C 16,1 C 88 % 1000,6 hPa 0,0 l/m 6,7 km/h (2 Bft) S-SW 205 0 min 0,000 mm 1,2 UV-I 221 W/m 11,8 C 13,6 C 11,3 km/h (2 Bft) 97,87 %
20.05.2019 14:44 13,8 C 17,2 C 16,1 C 89 % 1000,6 hPa 0,2 l/m 7,5 km/h (2 Bft) S-SW 209 0 min 0,000 mm 1,1 UV-I 215 W/m 12,0 C 13,1 C 12,9 km/h (3 Bft) 97,56 %
20.05.2019 14:46 13,8 C 17,2 C 16,1 C 89 % 1000,6 hPa 0,0 l/m 5,9 km/h (2 Bft) S 177 0 min 0,000 mm 1,1 UV-I 210 W/m 12,0 C 13,8 C 14,5 km/h (3 Bft) 97,37 %
20.05.2019 14:48 13,8 C 17,2 C 16,1 C 89 % 1000,7 hPa 0,0 l/m 7,1 km/h (2 Bft) S 190 0 min 0,000 mm 1,0 UV-I 204 W/m 12,0 C 13,4 C 12,9 km/h (3 Bft) 94,64 %
20.05.2019 14:50 13,7 C 17,2 C 16,1 C 89 % 1000,6 hPa 0,0 l/m 7,3 km/h (2 Bft) SW 215 0 min 0,000 mm 1,0 UV-I 200 W/m 11,9 C 13,2 C 11,3 km/h (2 Bft) 98,00 %
20.05.2019 14:52 13,7 C 17,2 C 16,1 C 89 % 1000,6 hPa 0,0 l/m 4,0 km/h (1 Bft) S 190 0 min 0,000 mm 1,0 UV-I 196 W/m 11,9 C 13,7 C 8,0 km/h (2 Bft) 97,87 %
20.05.2019 14:54 13,7 C 17,2 C 15,6 C 89 % 1000,7 hPa 0,0 l/m 7,3 km/h (2 Bft) S-SO 166 0 min 0,000 mm 1,0 UV-I 192 W/m 11,9 C 13,2 C 12,9 km/h (3 Bft) 97,87 %
20.05.2019 14:56 13,7 C 17,2 C 15,6 C 90 % 1000,7 hPa 0,0 l/m 6,1 km/h (2 Bft) S-SW 199 0 min 0,000 mm 1,0 UV-I 190 W/m 12,1 C 13,7 C 9,7 km/h (2 Bft) 97,87 %
20.05.2019 14:58 13,7 C 17,2 C 16,1 C 90 % 1000,7 hPa 0,0 l/m 6,4 km/h (2 Bft) S 185 0 min 0,000 mm 1,0 UV-I 188 W/m 12,1 C 13,7 C 11,3 km/h (2 Bft) 100,00 %
20.05.2019 15:00 13,7 C 17,2 C 15,6 C 90 % 1000,7 hPa 0,0 l/m 5,2 km/h (1 Bft) S 171 0 min 0,000 mm 0,9 UV-I 186 W/m 12,1 C 13,7 C 9,7 km/h (2 Bft) 100,00 %
20.05.2019 15:02 13,7 C 17,2 C 15,6 C 90 % 1000,7 hPa 0,0 l/m 6,2 km/h (2 Bft) S 186 0 min 0,127 mm 0,9 UV-I 183 W/m 12,1 C 13,7 C 9,7 km/h (2 Bft) 100,00 %
20.05.2019 15:04 13,6 C 17,2 C 15,6 C 90 % 1000,7 hPa 0,0 l/m 5,3 km/h (1 Bft) S-SW 192 0 min 0,000 mm 0,9 UV-I 177 W/m 12,0 C 13,6 C 8,0 km/h (2 Bft) 100,00 %
20.05.2019 15:06 13,6 C 17,2 C 15,6 C 90 % 1000,7 hPa 0,0 l/m 4,7 km/h (1 Bft) S-SW 194 0 min 0,000 mm 0,8 UV-I 169 W/m 12,0 C 13,6 C 8,0 km/h (2 Bft) 100,00 %
20.05.2019 15:08 13,7 C 17,2 C 15,6 C 91 % 1000,7 hPa 0,2 l/m 5,5 km/h (1 Bft) S-SW 202 0 min 0,000 mm 0,8 UV-I 161 W/m 12,3 C 13,7 C 8,0 km/h (2 Bft) 98,28 %
20.05.2019 15:10 13,7 C 17,2 C 15,6 C 91 % 1000,7 hPa 0,0 l/m 4,9 km/h (1 Bft) S-SW 200 0 min 0,000 mm 0,8 UV-I 157 W/m 12,3 C 13,7 C 8,0 km/h (2 Bft) 97,87 %
20.05.2019 15:12 13,7 C 17,2 C 15,6 C 91 % 1000,7 hPa 0,0 l/m 5,6 km/h (1 Bft) S-SW 203 0 min 0,000 mm 0,8 UV-I 166 W/m 12,3 C 13,7 C 11,3 km/h (2 Bft) 98,00 %
20.05.2019 15:14 13,7 C 17,2 C 15,6 C 91 % 1000,7 hPa 0,0 l/m 8,6 km/h (2 Bft) S-SW 198 0 min 0,000 mm 0,9 UV-I 181 W/m 12,3 C 12,4 C 11,3 km/h (2 Bft) 100,00 %
20.05.2019 15:16 13,6 C 17,2 C 15,6 C 91 % 1000,7 hPa 0,0 l/m 6,3 km/h (2 Bft) S-SW 200 0 min 0,000 mm 1,0 UV-I 196 W/m 12,2 C 13,6 C 11,3 km/h (2 Bft) 96,43 %
20.05.2019 15:18 13,7 C 17,2 C 16,1 C 91 % 1000,7 hPa 0,0 l/m 5,6 km/h (1 Bft) S-SW 202 0 min 0,000 mm 1,0 UV-I 202 W/m 12,3 C 13,7 C 8,0 km/h (2 Bft) 97,37 %
20.05.2019 15:20 13,7 C 17,2 C 16,1 C 91 % 1000,7 hPa 0,0 l/m 5,4 km/h (1 Bft) S-SW 209 0 min 0,000 mm 1,0 UV-I 200 W/m 12,3 C 13,7 C 8,0 km/h (2 Bft) 97,87 %
20.05.2019 15:22 13,7 C 17,2 C 16,1 C 91 % 1000,7 hPa 0,0 l/m 6,3 km/h (2 Bft) SW 216 0 min 0,000 mm 1,0 UV-I 197 W/m 12,3 C 13,7 C 9,7 km/h (2 Bft) 97,87 %
20.05.2019 15:24 13,7 C 17,2 C 16,1 C 91 % 1000,7 hPa 0,0 l/m 7,0 km/h (2 Bft) S-SW 211 0 min 0,000 mm 0,9 UV-I 186 W/m 12,3 C 13,3 C 11,3 km/h (2 Bft) 98,21 %
20.05.2019 15:26 13,7 C 17,2 C 16,1 C 91 % 1000,7 hPa 0,0 l/m 5,4 km/h (1 Bft) S 190 0 min 0,000 mm 0,9 UV-I 176 W/m 12,3 C 13,7 C 8,0 km/h (2 Bft) 97,44 %
20.05.2019 15:28 13,8 C 17,2 C 16,1 C 92 % 1000,7 hPa 0,0 l/m 4,3 km/h (1 Bft) S-SW 201 0 min 0,000 mm 0,8 UV-I 171 W/m 12,5 C 13,8 C 8,0 km/h (2 Bft) 93,62 %
20.05.2019 15:30 13,8 C 17,2 C 16,1 C 91 % 1000,6 hPa 0,0 l/m 6,0 km/h (2 Bft) S 177 0 min 0,000 mm 0,8 UV-I 168 W/m 12,4 C 13,8 C 8,0 km/h (2 Bft) 96,00 %
20.05.2019 15:32 13,8 C 17,2 C 16,1 C 92 % 1000,7 hPa 0,0 l/m 4,6 km/h (1 Bft) S-SW 197 0 min 0,000 mm 0,8 UV-I 168 W/m 12,5 C 13,8 C 6,4 km/h (2 Bft) 95,74 %
20.05.2019 15:34 13,8 C 17,2 C 16,1 C 91 % 1000,8 hPa 0,0 l/m 6,7 km/h (2 Bft) S 177 0 min 0,000 mm 0,8 UV-I 170 W/m 12,4 C 13,6 C 11,3 km/h (2 Bft) 97,56 %
20.05.2019 15:36 13,8 C 17,2 C 15,6 C 91 % 1000,7 hPa 0,0 l/m 5,6 km/h (1 Bft) S-SW 192 0 min 0,000 mm 0,8 UV-I 174 W/m 12,4 C 13,8 C 9,7 km/h (2 Bft) 98,21 %
20.05.2019 15:38 13,8 C 17,2 C 16,1 C 91 % 1000,7 hPa 0,0 l/m 5,9 km/h (2 Bft) SW 223 0 min 0,000 mm 0,8 UV-I 178 W/m 12,4 C 13,8 C 9,7 km/h (2 Bft) 97,87 %
20.05.2019 15:40 13,8 C 17,2 C 15,6 C 91 % 1000,7 hPa 0,0 l/m 4,9 km/h (1 Bft) S-SW 200 0 min 0,000 mm 0,8 UV-I 179 W/m 12,4 C 13,8 C 9,7 km/h (2 Bft) 97,87 %
20.05.2019 15:42 13,8 C 17,2 C 16,1 C 91 % 1000,7 hPa 0,0 l/m 4,7 km/h (1 Bft) S-SW 209 0 min 0,000 mm 0,8 UV-I 179 W/m 12,4 C 13,8 C 8,0 km/h (2 Bft) 97,37 %
20.05.2019 15:44 13,8 C 17,2 C 16,1 C 91 % 1000,7 hPa 0,0 l/m 4,8 km/h (1 Bft) SW 218 0 min 0,000 mm 0,8 UV-I 177 W/m 12,4 C 13,8 C 8,0 km/h (2 Bft) 95,74 %
20.05.2019 15:46 13,9 C 17,2 C 16,1 C 92 % 1000,8 hPa 0,0 l/m 7,2 km/h (2 Bft) SW 227 0 min 0,000 mm 0,8 UV-I 175 W/m 12,6 C 13,4 C 9,7 km/h (2 Bft) 92,00 %
20.05.2019 15:48 13,9 C 17,2 C 16,1 C 91 % 1000,8 hPa 0,0 l/m 5,1 km/h (1 Bft) SW 219 0 min 0,000 mm 0,8 UV-I 171 W/m 12,5 C 13,9 C 9,7 km/h (2 Bft) 92,45 %
20.05.2019 15:50 13,9 C 17,2 C 16,1 C 91 % 1000,8 hPa 0,0 l/m 5,0 km/h (1 Bft) S-SW 200 0 min 0,000 mm 0,8 UV-I 168 W/m 12,5 C 13,9 C 8,0 km/h (2 Bft) 95,12 %
20.05.2019 15:52 13,8 C 17,2 C 16,1 C 91 % 1000,8 hPa 0,0 l/m 6,8 km/h (2 Bft) SW 215 0 min 0,000 mm 0,7 UV-I 165 W/m 12,4 C 13,6 C 9,7 km/h (2 Bft) 96,23 %
20.05.2019 15:54 13,8 C 17,2 C 16,1 C 90 % 1000,8 hPa 0,0 l/m 7,0 km/h (2 Bft) S 180 0 min 0,000 mm 0,7 UV-I 163 W/m 12,2 C 13,4 C 11,3 km/h (2 Bft) 94,29 %
20.05.2019 15:56 13,7 C 17,2 C 15,6 C 90 % 1000,8 hPa 0,0 l/m 5,0 km/h (1 Bft) S-SW 199 0 min 0,000 mm 0,7 UV-I 161 W/m 12,1 C 13,7 C 8,0 km/h (2 Bft) 98,18 %
20.05.2019 15:58 13,7 C 17,2 C 15,6 C 89 % 1000,7 hPa 0,0 l/m 5,1 km/h (1 Bft) S 180 0 min 0,000 mm 0,7 UV-I 160 W/m 11,9 C 13,7 C 8,0 km/h (2 Bft) 93,62 %
20.05.2019 16:00 13,7 C 17,2 C 15,6 C 90 % 1000,7 hPa 0,0 l/m 4,8 km/h (1 Bft) S-SW 205 0 min 0,000 mm 0,7 UV-I 158 W/m 12,1 C 13,7 C 9,7 km/h (2 Bft) 98,04 %
20.05.2019 16:02 13,7 C 17,2 C 15,6 C 90 % 1000,8 hPa 0,0 l/m 6,2 km/h (2 Bft) S 184 0 min 0,101 mm 0,7 UV-I 158 W/m 12,1 C 13,7 C 9,7 km/h (2 Bft) 95,12 %
20.05.2019 16:04 13,7 C 17,2 C 15,6 C 90 % 1000,8 hPa 0,0 l/m 6,7 km/h (2 Bft) S-SW 200 0 min 0,000 mm 0,7 UV-I 159 W/m 12,1 C 13,5 C 11,3 km/h (2 Bft) 97,87 %
20.05.2019 16:06 13,7 C 17,2 C 15,6 C 90 % 1000,8 hPa 0,0 l/m 5,2 km/h (1 Bft) S 186 0 min 0,000 mm 0,7 UV-I 160 W/m 12,1 C 13,7 C 9,7 km/h (2 Bft) 94,00 %
20.05.2019 16:08 13,7 C 17,2 C 15,6 C 91 % 1000,8 hPa 0,0 l/m 4,1 km/h (1 Bft) SW 216 0 min 0,000 mm 0,7 UV-I 160 W/m 12,3 C 13,7 C 6,4 km/h (2 Bft) 94,00 %
20.05.2019 16:10 13,7 C 17,2 C 15,6 C 91 % 1000,8 hPa 0,0 l/m 4,8 km/h (1 Bft) S-SW 193 0 min 0,000 mm 0,7 UV-I 162 W/m 12,3 C 13,7 C 8,0 km/h (2 Bft) 94,74 %
20.05.2019 16:12 13,7 C 17,2 C 15,6 C 91 % 1000,8 hPa 0,0 l/m 6,3 km/h (2 Bft) S 175 0 min 0,000 mm 0,7 UV-I 163 W/m 12,3 C 13,7 C 9,7 km/h (2 Bft) 94,00 %
20.05.2019 16:14 13,7 C 17,2 C 15,6 C 91 % 1000,8 hPa 0,0 l/m 6,3 km/h (2 Bft) S 178 0 min 0,000 mm 0,7 UV-I 166 W/m 12,3 C 13,7 C 8,0 km/h (2 Bft) 97,56 %
20.05.2019 16:16 13,7 C 17,2 C 15,6 C 91 % 1000,8 hPa 0,0 l/m 5,9 km/h (2 Bft) S-SW 200 0 min 0,000 mm 0,7 UV-I 168 W/m 12,3 C 13,7 C 8,0 km/h (2 Bft) 94,00 %
20.05.2019 16:18 13,7 C 17,2 C 15,6 C 91 % 1000,7 hPa 0,0 l/m 3,6 km/h (1 Bft) S 185 0 min 0,000 mm 0,7 UV-I 171 W/m 12,3 C 13,7 C 4,8 km/h (1 Bft) 94,00 %
20.05.2019 16:20 13,8 C 17,2 C 16,1 C 91 % 1000,7 hPa 0,0 l/m 4,8 km/h (1 Bft) S-SW 200 0 min 0,000 mm 0,7 UV-I 172 W/m 12,4 C 13,8 C 8,0 km/h (2 Bft) 94,00 %
20.05.2019 16:22 13,8 C 17,2 C 15,6 C 91 % 1000,7 hPa 0,0 l/m 3,3 km/h (1 Bft) S-SW 199 0 min 0,000 mm 0,7 UV-I 175 W/m 12,4 C 13,8 C 4,8 km/h (1 Bft) 95,45 %
20.05.2019 16:24 13,8 C 17,2 C 15,6 C 90 % 1000,7 hPa 0,0 l/m 5,1 km/h (1 Bft) S 182 0 min 0,000 mm 0,7 UV-I 177 W/m 12,2 C 13,8 C 8,0 km/h (2 Bft) 94,00 %
20.05.2019 16:26 13,8 C 17,2 C 16,1 C 91 % 1000,7 hPa 0,0 l/m 3,7 km/h (1 Bft) S 183 0 min 0,000 mm 0,7 UV-I 180 W/m 12,4 C 13,8 C 6,4 km/h (2 Bft) 94,44 %
20.05.2019 16:28 13,9 C 17,2 C 16,1 C 91 % 1000,7 hPa 0,0 l/m 3,1 km/h (1 Bft) S 190 0 min 0,000 mm 0,7 UV-I 185 W/m 12,5 C 13,9 C 4,8 km/h (1 Bft) 94,34 %
20.05.2019 16:30 13,9 C 17,2 C 16,1 C 91 % 1000,7 hPa 0,0 l/m 3,8 km/h (1 Bft) S 191 0 min 0,000 mm 0,7 UV-I 188 W/m 12,5 C 13,9 C 6,4 km/h (2 Bft) 95,45 %
20.05.2019 16:32 13,9 C 17,2 C 16,1 C 91 % 1000,7 hPa 0,0 l/m 5,7 km/h (1 Bft) S-SW 195 0 min 0,000 mm 0,7 UV-I 193 W/m 12,5 C 13,9 C 8,0 km/h (2 Bft) 95,74 %
20.05.2019 16:34 13,9 C 17,2 C 16,1 C 90 % 1000,7 hPa 0,0 l/m 7,3 km/h (2 Bft) S 187 0 min 0,000 mm 0,7 UV-I 198 W/m 12,3 C 13,4 C 11,3 km/h (2 Bft) 98,11 %
20.05.2019 16:36 13,9 C 17,2 C 16,1 C 90 % 1000,7 hPa 0,0 l/m 6,3 km/h (2 Bft) S-SW 194 0 min 0,000 mm 0,8 UV-I 205 W/m 12,3 C 13,9 C 9,7 km/h (2 Bft) 97,73 %
20.05.2019 16:39 14,0 C 17,2 C 16,1 C 91 % 1000,7 hPa 0,0 l/m 4,5 km/h (1 Bft) S-SW 192 0 min 0,000 mm 0,8 UV-I 215 W/m 12,6 C 14,0 C 9,7 km/h (2 Bft) 97,01 %
20.05.2019 16:40 14,0 C 17,2 C 16,1 C 90 % 1000,7 hPa 0,0 l/m 5,1 km/h (1 Bft) SW 215 0 min 0,000 mm 0,8 UV-I 224 W/m 12,4 C 14,0 C 6,4 km/h (2 Bft) 100,00 %
20.05.2019 16:42 14,0 C 17,2 C 16,7 C 90 % 1000,7 hPa 0,0 l/m 4,6 km/h (1 Bft) S-SW 193 0 min 0,000 mm 0,8 UV-I 231 W/m 12,4 C 14,0 C 8,0 km/h (2 Bft) 94,00 %
20.05.2019 16:44 14,1 C 17,2 C 16,7 C 90 % 1000,7 hPa 0,0 l/m 4,5 km/h (1 Bft) S 184 0 min 0,000 mm 0,8 UV-I 242 W/m 12,5 C 14,1 C 6,4 km/h (2 Bft) 97,56 %
20.05.2019 16:46 14,1 C 17,2 C 16,7 C 90 % 1000,7 hPa 0,0 l/m 6,1 km/h (2 Bft) S-SW 205 0 min 0,000 mm 0,9 UV-I 251 W/m 12,5 C 14,1 C 9,7 km/h (2 Bft) 98,00 %
20.05.2019 16:48 14,0 C 17,2 C 17,2 C 89 % 1000,8 hPa 0,0 l/m 6,7 km/h (2 Bft) SW 219 0 min 0,000 mm 0,9 UV-I 259 W/m 12,2 C 13,8 C 11,3 km/h (2 Bft) 97,37 %
20.05.2019 16:50 14,1 C 17,2 C 17,2 C 89 % 1000,7 hPa 0,0 l/m 6,5 km/h (2 Bft) S-SO 166 0 min 0,000 mm 0,9 UV-I 272 W/m 12,3 C 14,1 C 11,3 km/h (2 Bft) 98,31 %
20.05.2019 16:52 14,2 C 17,2 C 17,8 C 90 % 1000,7 hPa 0,0 l/m 4,7 km/h (1 Bft) S 190 0 min 0,000 mm 0,9 UV-I 285 W/m 12,6 C 14,2 C 8,0 km/h (2 Bft) 100,00 %
20.05.2019 16:54 14,3 C 17,2 C 18,3 C 89 % 1000,7 hPa 0,0 l/m 6,4 km/h (2 Bft) S 186 0 min 0,000 mm 0,9 UV-I 297 W/m 12,5 C 14,3 C 11,3 km/h (2 Bft) 100,00 %
20.05.2019 16:56 14,3 C 17,2 C 18,3 C 89 % 1000,7 hPa 0,0 l/m 5,8 km/h (2 Bft) SW 224 0 min 0,000 mm 0,9 UV-I 308 W/m 12,5 C 14,3 C 9,7 km/h (2 Bft) 100,00 %
20.05.2019 16:58 14,4 C 17,2 C 18,3 C 88 % 1000,7 hPa 0,0 l/m 7,0 km/h (2 Bft) SW 228 2 min 0,000 mm 1,0 UV-I 319 W/m 12,4 C 14,1 C 11,3 km/h (2 Bft) 100,00 %
20.05.2019 17:00 14,4 C 17,2 C 18,3 C 87 % 1000,7 hPa 0,0 l/m 8,0 km/h (2 Bft) S-SW 206 2 min 0,000 mm 1,0 UV-I 327 W/m 12,3 C 13,5 C 11,3 km/h (2 Bft) 94,87 %
20.05.2019 17:02 14,5 C 17,2 C 18,9 C 88 % 1000,7 hPa 0,0 l/m 9,4 km/h (2 Bft) S-SO 167 2 min 0,127 mm 1,0 UV-I 342 W/m 12,5 C 12,9 C 14,5 km/h (3 Bft) 100,00 %
20.05.2019 17:04 14,5 C 17,2 C 18,9 C 87 % 1000,7 hPa 0,0 l/m 9,4 km/h (2 Bft) S 178 2 min 0,000 mm 1,0 UV-I 356 W/m 12,4 C 12,9 C 14,5 km/h (3 Bft) 100,00 %
20.05.2019 17:06 14,5 C 17,2 C 18,9 C 87 % 1000,7 hPa 0,0 l/m 8,2 km/h (2 Bft) S 187 2 min 0,000 mm 1,0 UV-I 365 W/m 12,4 C 13,5 C 11,3 km/h (2 Bft) 100,00 %
20.05.2019 17:08 14,6 C 17,2 C 18,9 C 87 % 1000,7 hPa 0,0 l/m 5,1 km/h (1 Bft) SW 234 2 min 0,000 mm 1,0 UV-I 370 W/m 12,5 C 14,6 C 11,3 km/h (2 Bft) 97,78 %
20.05.2019 17:10 14,7 C 17,2 C 19,4 C 87 % 1000,7 hPa 0,0 l/m 8,8 km/h (2 Bft) S-SW 196 2 min 0,000 mm 1,0 UV-I 373 W/m 12,6 C 13,4 C 12,9 km/h (3 Bft) 100,00 %
20.05.2019 17:12 14,7 C 17,2 C 20,0 C 87 % 1000,7 hPa 0,0 l/m 5,3 km/h (1 Bft) S-SW 201 2 min 0,000 mm 1,0 UV-I 376 W/m 12,6 C 14,7 C 9,7 km/h (2 Bft) 100,00 %
20.05.2019 17:14 14,8 C 17,2 C 20,0 C 86 % 1000,7 hPa 0,0 l/m 11,1 km/h (2 Bft) S-SW 196 2 min 0,000 mm 1,0 UV-I 383 W/m 12,5 C 12,4 C 14,5 km/h (3 Bft) 100,00 %
20.05.2019 17:16 15,0 C 17,2 C 20,0 C 87 % 1000,7 hPa 0,0 l/m 7,5 km/h (2 Bft) S-SW 200 2 min 0,000 mm 1,0 UV-I 386 W/m 12,9 C 14,4 C 11,3 km/h (2 Bft) 100,00 %
20.05.2019 17:18 15,1 C 17,2 C 20,0 C 86 % 1000,7 hPa 0,0 l/m 9,2 km/h (2 Bft) S 191 2 min 0,000 mm 1,0 UV-I 397 W/m 12,8 C 13,6 C 16,1 km/h (3 Bft) 97,37 %
20.05.2019 17:20 15,1 C 17,2 C 20,0 C 84 % 1000,7 hPa 0,0 l/m 8,2 km/h (2 Bft) SW 217 2 min 0,000 mm 1,0 UV-I 410 W/m 12,4 C 14,1 C 12,9 km/h (3 Bft) 98,11 %
20.05.2019 17:22 15,2 C 17,2 C 20,6 C 85 % 1000,7 hPa 0,0 l/m 9,5 km/h (2 Bft) W-SW 253 2 min 0,000 mm 1,0 UV-I 413 W/m 12,7 C 13,6 C 17,7 km/h (3 Bft) 97,37 %
20.05.2019 17:24 15,2 C 17,2 C 20,0 C 84 % 1000,7 hPa 0,0 l/m 13,3 km/h (3 Bft) SW 225 2 min 0,000 mm 1,0 UV-I 417 W/m 12,5 C 12,0 C 19,3 km/h (3 Bft) 98,00 %
20.05.2019 17:26 15,3 C 17,2 C 20,0 C 83 % 1000,7 hPa 0,0 l/m 12,3 km/h (3 Bft) SW 217 2 min 0,000 mm 1,0 UV-I 423 W/m 12,4 C 12,5 C 20,9 km/h (4 Bft) 98,11 %
20.05.2019 17:28 15,3 C 17,2 C 20,6 C 83 % 1000,7 hPa 0,0 l/m 12,3 km/h (3 Bft) S-SW 209 2 min 0,000 mm 1,0 UV-I 421 W/m 12,4 C 12,5 C 16,1 km/h (3 Bft) 95,74 %
20.05.2019 17:30 15,4 C 17,2 C 20,0 C 83 % 1000,7 hPa 0,0 l/m 11,3 km/h (2 Bft) W 261 2 min 0,000 mm 1,0 UV-I 387 W/m 12,5 C 13,0 C 17,7 km/h (3 Bft) 98,00 %
20.05.2019 17:32 15,4 C 17,2 C 19,4 C 82 % 1000,7 hPa 0,0 l/m 8,7 km/h (2 Bft) SW 225 2 min 0,000 mm 0,9 UV-I 325 W/m 12,3 C 14,2 C 14,5 km/h (3 Bft) 100,00 %
20.05.2019 17:34 15,5 C 17,2 C 19,4 C 83 % 1000,8 hPa 0,0 l/m 7,6 km/h (2 Bft) SW 223 2 min 0,000 mm 0,9 UV-I 314 W/m 12,6 C 14,8 C 12,9 km/h (3 Bft) 96,00 %
20.05.2019 17:36 15,5 C 17,2 C 20,0 C 83 % 1000,7 hPa 0,0 l/m 9,0 km/h (2 Bft) SW 214 2 min 0,000 mm 0,9 UV-I 354 W/m 12,6 C 14,1 C 19,3 km/h (3 Bft) 97,56 %
20.05.2019 17:38 15,5 C 17,2 C 20,6 C 83 % 1000,7 hPa 0,0 l/m 7,0 km/h (2 Bft) S-SW 192 2 min 0,000 mm 0,9 UV-I 366 W/m 12,6 C 15,2 C 11,3 km/h (2 Bft) 96,00 %
20.05.2019 17:40 15,6 C 17,2 C 20,0 C 82 % 1000,7 hPa 0,0 l/m 8,0 km/h (2 Bft) SW 217 2 min 0,000 mm 0,8 UV-I 334 W/m 12,5 C 14,7 C 11,3 km/h (2 Bft) 95,24 %
20.05.2019 17:42 15,6 C 17,2 C 19,4 C 82 % 1000,7 hPa 0,0 l/m 7,0 km/h (2 Bft) SW 231 2 min 0,000 mm 0,8 UV-I 292 W/m 12,5 C 15,3 C 14,5 km/h (3 Bft) 96,23 %
20.05.2019 17:44 15,5 C 17,2 C 19,4 C 82 % 1000,7 hPa 0,0 l/m 9,5 km/h (2 Bft) S-SW 200 2 min 0,000 mm 0,8 UV-I 286 W/m 12,4 C 13,9 C 12,9 km/h (3 Bft) 94,00 %
20.05.2019 17:46 15,3 C 17,2 C 18,9 C 81 % 1000,7 hPa 0,0 l/m 11,9 km/h (2 Bft) S 190 2 min 0,000 mm 0,7 UV-I 284 W/m 12,1 C 12,7 C 16,1 km/h (3 Bft) 94,74 %
20.05.2019 17:48 15,2 C 17,2 C 18,9 C 82 % 1000,7 hPa 0,0 l/m 11,7 km/h (2 Bft) S-SW 209 2 min 0,000 mm 0,7 UV-I 302 W/m 12,1 C 12,6 C 16,1 km/h (3 Bft) 95,74 %
20.05.2019 17:50 15,2 C 17,2 C 18,9 C 80 % 1000,7 hPa 0,0 l/m 8,5 km/h (2 Bft) W 259 2 min 0,000 mm 0,7 UV-I 305 W/m 11,8 C 14,1 C 16,1 km/h (3 Bft) 95,74 %
20.05.2019 17:52 15,3 C 17,2 C 18,9 C 82 % 1000,7 hPa 0,0 l/m 8,4 km/h (2 Bft) W-SW 243 2 min 0,000 mm 0,7 UV-I 296 W/m 12,2 C 14,2 C 16,1 km/h (3 Bft) 96,23 %
20.05.2019 17:54 15,3 C 17,2 C 18,3 C 81 % 1000,7 hPa 0,0 l/m 13,8 km/h (3 Bft) S-SW 194 2 min 0,000 mm 0,7 UV-I 276 W/m 12,1 C 12,0 C 17,7 km/h (3 Bft) 97,73 %
20.05.2019 17:56 15,3 C 17,2 C 18,3 C 81 % 1000,7 hPa 0,0 l/m 11,8 km/h (2 Bft) W-SW 252 2 min 0,000 mm 0,6 UV-I 265 W/m 12,1 C 12,7 C 17,7 km/h (3 Bft) 97,87 %
20.05.2019 17:58 15,2 C 17,2 C 17,8 C 80 % 1000,7 hPa 0,0 l/m 11,6 km/h (2 Bft) SW 235 2 min 0,000 mm 0,6 UV-I 248 W/m 11,8 C 12,7 C 16,1 km/h (3 Bft) 94,00 %
20.05.2019 18:00 15,2 C 17,2 C 17,8 C 81 % 1000,7 hPa 0,0 l/m 11,1 km/h (2 Bft) W-SW 251 2 min 0,000 mm 0,6 UV-I 238 W/m 12,0 C 12,9 C 16,1 km/h (3 Bft) 97,87 %
20.05.2019 18:02 15,2 C 17,2 C 17,8 C 81 % 1000,6 hPa 0,0 l/m 6,4 km/h (2 Bft) SW 228 0 min 0,203 mm 0,5 UV-I 220 W/m 12,0 C 15,2 C 11,3 km/h (2 Bft) 97,37 %
20.05.2019 18:04 15,2 C 17,2 C 17,8 C 82 % 1000,7 hPa 0,0 l/m 8,2 km/h (2 Bft) SW 218 0 min 0,000 mm 0,5 UV-I 190 W/m 12,1 C 14,2 C 14,5 km/h (3 Bft) 97,78 %
20.05.2019 18:06 15,3 C 17,2 C 17,8 C 83 % 1000,7 hPa 0,0 l/m 6,1 km/h (2 Bft) SW 223 0 min 0,000 mm 0,0 UV-I 176 W/m 12,4 C 15,3 C 9,7 km/h (2 Bft) 96,15 %
20.05.2019 18:08 15,2 C 17,2 C 17,2 C 82 % 1000,7 hPa 0,0 l/m 8,4 km/h (2 Bft) SW 215 0 min 0,000 mm 0,0 UV-I 166 W/m 12,1 C 14,1 C 14,5 km/h (3 Bft) 100,00 %
20.05.2019 18:10 15,2 C 17,2 C 17,2 C 81 % 1000,7 hPa 0,0 l/m 10,3 km/h (2 Bft) S-SW 205 0 min 0,000 mm 0,0 UV-I 164 W/m 12,0 C 13,2 C 16,1 km/h (3 Bft) 97,87 %
20.05.2019 18:12 15,1 C 17,2 C 17,2 C 82 % 1000,8 hPa 0,0 l/m 6,8 km/h (2 Bft) S-SW 200 0 min 0,000 mm 0,0 UV-I 160 W/m 12,0 C 14,9 C 11,3 km/h (2 Bft) 98,00 %
20.05.2019 18:14 15,0 C 17,2 C 17,2 C 82 % 1000,7 hPa 0,0 l/m 6,0 km/h (2 Bft) SW 228 0 min 0,000 mm 0,0 UV-I 150 W/m 12,0 C 15,0 C 9,7 km/h (2 Bft) 96,00 %
20.05.2019 18:16 14,9 C 17,2 C 17,2 C 83 % 1000,7 hPa 0,0 l/m 5,6 km/h (1 Bft) S-SW 195 0 min 0,000 mm 0,0 UV-I 135 W/m 12,0 C 14,9 C 11,3 km/h (2 Bft) 100,00 %
20.05.2019 18:18 14,9 C 17,2 C 16,7 C 82 % 1000,8 hPa 0,0 l/m 8,6 km/h (2 Bft) S-SW 212 0 min 0,000 mm 0,0 UV-I 127 W/m 11,9 C 13,7 C 12,9 km/h (3 Bft) 97,37 %
20.05.2019 18:20 14,8 C 17,2 C 16,7 C 83 % 1000,8 hPa 0,0 l/m 4,5 km/h (1 Bft) S-SW 209 0 min 0,000 mm 0,0 UV-I 121 W/m 11,9 C 14,8 C 9,7 km/h (2 Bft) 100,00 %
20.05.2019 18:22 14,8 C 17,2 C 16,1 C 83 % 1000,8 hPa 0,0 l/m 8,0 km/h (2 Bft) S-SW 209 0 min 0,000 mm 0,0 UV-I 109 W/m 11,9 C 13,9 C 12,9 km/h (3 Bft) 97,87 %
20.05.2019 18:24 14,8 C 17,2 C 16,1 C 82 % 1000,7 hPa 0,0 l/m 6,9 km/h (2 Bft) SW 227 0 min 0,000 mm 0,0 UV-I 96 W/m 11,8 C 14,5 C 9,7 km/h (2 Bft) 96,55 %
20.05.2019 18:26 14,8 C 17,2 C 16,1 C 83 % 1000,8 hPa 0,0 l/m 8,7 km/h (2 Bft) SW 218 0 min 0,000 mm 0,0 UV-I 87 W/m 11,9 C 13,5 C 14,5 km/h (3 Bft) 100,00 %
20.05.2019 18:28 14,8 C 17,2 C 16,1 C 83 % 1000,8 hPa 0,0 l/m 8,0 km/h (2 Bft) SW 219 0 min 0,000 mm 0,0 UV-I 84 W/m 11,9 C 13,9 C 12,9 km/h (3 Bft) 100,00 %
20.05.2019 18:30 14,7 C 17,2 C 15,6 C 83 % 1000,8 hPa 0,0 l/m 7,7 km/h (2 Bft) S-SW 205 0 min 0,000 mm 0,0 UV-I 85 W/m 11,8 C 14,0 C 11,3 km/h (2 Bft) 100,00 %
20.05.2019 18:32 14,7 C 17,2 C 16,1 C 83 % 1000,8 hPa 0,0 l/m 9,5 km/h (2 Bft) S-SW 194 0 min 0,000 mm 0,0 UV-I 85 W/m 11,8 C 13,0 C 16,1 km/h (3 Bft) 100,00 %
20.05.2019 18:34 14,7 C 17,2 C 15,6 C 83 % 1000,8 hPa 0,0 l/m 7,0 km/h (2 Bft) S-SW 207 0 min 0,000 mm 0,0 UV-I 77 W/m 11,8 C 14,4 C 11,3 km/h (2 Bft) 100,00 %
20.05.2019 18:36 14,7 C 17,2 C 15,6 C 84 % 1000,9 hPa 0,0 l/m 6,4 km/h (2 Bft) SW 225 0 min 0,000 mm 0,0 UV-I 66 W/m 12,0 C 14,7 C 9,7 km/h (2 Bft) 97,22 %
20.05.2019 18:38 14,7 C 17,2 C 15,6 C 84 % 1000,9 hPa 0,0 l/m 3,1 km/h (1 Bft) S-SW 209 0 min 0,000 mm 0,0 UV-I 62 W/m 12,0 C 14,7 C 8,0 km/h (2 Bft) 100,00 %
20.05.2019 18:40 14,6 C 17,2 C 15,6 C 84 % 1000,9 hPa 0,0 l/m 8,1 km/h (2 Bft) SW 232 0 min 0,000 mm 0,0 UV-I 55 W/m 11,9 C 13,6 C 11,3 km/h (2 Bft) 100,00 %
20.05.2019 18:42 14,7 C 17,2 C 15,6 C 84 % 1000,8 hPa 0,0 l/m 4,8 km/h (1 Bft) SW 234 0 min 0,000 mm 0,0 UV-I 48 W/m 12,0 C 14,7 C 9,7 km/h (2 Bft) 100,00 %
20.05.2019 18:44 14,7 C 17,2 C 15,6 C 85 % 1000,9 hPa 0,0 l/m 2,0 km/h (1 Bft) SW 234 0 min 0,000 mm 0,0 UV-I 42 W/m 12,2 C 14,7 C 4,8 km/h (1 Bft) 100,00 %
20.05.2019 18:46 14,7 C 17,2 C 15,6 C 85 % 1000,9 hPa 0,0 l/m 3,8 km/h (1 Bft) SW 223 0 min 0,000 mm 0,0 UV-I 36 W/m 12,2 C 14,7 C 4,8 km/h (1 Bft) 100,00 %
20.05.2019 18:48 14,7 C 17,2 C 15,0 C 85 % 1000,9 hPa 0,0 l/m 5,0 km/h (1 Bft) W-SW 257 0 min 0,000 mm 0,0 UV-I 32 W/m 12,2 C 14,7 C 9,7 km/h (2 Bft) 97,87 %
20.05.2019 18:50 14,6 C 17,2 C 15,0 C 85 % 1000,9 hPa 0,0 l/m 4,9 km/h (1 Bft) W-SW 241 0 min 0,000 mm 0,0 UV-I 31 W/m 12,1 C 14,6 C 9,7 km/h (2 Bft) 100,00 %
20.05.2019 18:52 14,6 C 17,2 C 15,0 C 85 % 1000,8 hPa 0,0 l/m 4,1 km/h (1 Bft) S-SW 213 0 min 0,000 mm 0,0 UV-I 30 W/m 12,1 C 14,6 C 9,7 km/h (2 Bft) 100,00 %
20.05.2019 18:54 14,6 C 17,2 C 15,0 C 85 % 1000,8 hPa 0,0 l/m 5,4 km/h (1 Bft) SW 222 0 min 0,000 mm 0,0 UV-I 30 W/m 12,1 C 14,6 C 8,0 km/h (2 Bft) 100,00 %
20.05.2019 18:56 14,6 C 17,2 C 15,0 C 86 % 1000,9 hPa 0,0 l/m 3,8 km/h (1 Bft) SW 225 0 min 0,000 mm 0,0 UV-I 30 W/m 12,3 C 14,6 C 4,8 km/h (1 Bft) 100,00 %
20.05.2019 18:58 14,5 C 17,2 C 15,0 C 86 % 1000,9 hPa 0,0 l/m 2,7 km/h (1 Bft) SW 225 0 min 0,000 mm 0,0 UV-I 30 W/m 12,2 C 14,5 C 4,8 km/h (1 Bft) 100,00 %
20.05.2019 19:00 14,4 C 17,2 C 15,0 C 86 % 1000,9 hPa 0,0 l/m 3,3 km/h (1 Bft) SW 226 0 min 0,000 mm 0,0 UV-I 30 W/m 12,1 C 14,4 C 4,8 km/h (1 Bft) 100,00 %
20.05.2019 19:02 14,4 C 17,2 C 15,0 C 87 % 1000,9 hPa 0,0 l/m 4,7 km/h (1 Bft) SW 226 0 min 0,051 mm 0,0 UV-I 30 W/m 12,3 C 14,4 C 6,4 km/h (2 Bft) 100,00 %
20.05.2019 19:04 14,4 C 17,2 C 15,0 C 87 % 1000,9 hPa 0,0 l/m 4,9 km/h (1 Bft) SW 229 0 min 0,000 mm 0,0 UV-I 31 W/m 12,3 C 14,4 C 8,0 km/h (2 Bft) 100,00 %
20.05.2019 19:06 14,4 C 17,2 C 15,0 C 87 % 1000,9 hPa 0,0 l/m 3,8 km/h (1 Bft) SW 234 0 min 0,000 mm 0,0 UV-I 32 W/m 12,3 C 14,4 C 9,7 km/h (2 Bft) 100,00 %
20.05.2019 19:08 14,4 C 17,2 C 14,4 C 86 % 1000,9 hPa 0,0 l/m 4,8 km/h (1 Bft) SW 223 0 min 0,000 mm 0,0 UV-I 30 W/m 12,1 C 14,4 C 9,7 km/h (2 Bft) 100,00 %
20.05.2019 19:10 14,3 C 17,2 C 14,4 C 86 % 1000,9 hPa 0,0 l/m 4,7 km/h (1 Bft) W-SW 248 0 min 0,000 mm 0,0 UV-I 30 W/m 12,0 C 14,3 C 8,0 km/h (2 Bft) 100,00 %
20.05.2019 19:12 14,3 C 17,2 C 14,4 C 86 % 1000,9 hPa 0,0 l/m 3,4 km/h (1 Bft) W-SW 242 0 min 0,000 mm 0,0 UV-I 28 W/m 12,0 C 14,3 C 6,4 km/h (2 Bft) 98,00 %
20.05.2019 19:14 14,3 C 17,2 C 14,4 C 86 % 1000,9 hPa 0,0 l/m 4,0 km/h (1 Bft) W-SW 250 0 min 0,000 mm 0,0 UV-I 26 W/m 12,0 C 14,3 C 6,4 km/h (2 Bft) 97,92 %
20.05.2019 19:16 14,3 C 17,2 C 14,4 C 85 % 1000,9 hPa 0,0 l/m 5,6 km/h (1 Bft) W-SW 240 0 min 0,000 mm 0,0 UV-I 26 W/m 11,8 C 14,3 C 11,3 km/h (2 Bft) 97,87 %
20.05.2019 19:18 14,3 C 17,2 C 14,4 C 84 % 1000,9 hPa 0,0 l/m 4,6 km/h (1 Bft) SW 223 0 min 0,000 mm 0,0 UV-I 29 W/m 11,6 C 14,3 C 8,0 km/h (2 Bft) 97,87 %
20.05.2019 19:20 14,3 C 17,2 C 14,4 C 85 % 1000,9 hPa 0,0 l/m 4,1 km/h (1 Bft) SW 226 0 min 0,000 mm 0,0 UV-I 30 W/m 11,8 C 14,3 C 4,8 km/h (1 Bft) 95,74 %
20.05.2019 19:22 14,3 C 17,2 C 14,4 C 84 % 1000,9 hPa 0,0 l/m 4,6 km/h (1 Bft) SW 235 0 min 0,000 mm 0,0 UV-I 33 W/m 11,6 C 14,3 C 6,4 km/h (2 Bft) 96,00 %
20.05.2019 19:24 14,2 C 17,2 C 14,4 C 85 % 1000,9 hPa 0,0 l/m 3,9 km/h (1 Bft) SW 234 0 min 0,000 mm 0,0 UV-I 33 W/m 11,7 C 14,2 C 6,4 km/h (2 Bft) 95,74 %
20.05.2019 19:26 14,2 C 17,2 C 14,4 C 84 % 1000,9 hPa 0,0 l/m 4,4 km/h (1 Bft) W 263 0 min 0,000 mm 0,0 UV-I 31 W/m 11,5 C 14,2 C 6,4 km/h (2 Bft) 93,62 %
20.05.2019 19:28 14,2 C 17,2 C 14,4 C 85 % 1000,9 hPa 0,0 l/m 3,3 km/h (1 Bft) W-SW 246 0 min 0,000 mm 0,0 UV-I 29 W/m 11,7 C 14,2 C 4,8 km/h (1 Bft) 94,00 %
20.05.2019 19:30 14,2 C 17,2 C 14,4 C 85 % 1000,9 hPa 0,0 l/m 3,6 km/h (1 Bft) W-SW 246 0 min 0,000 mm 0,0 UV-I 26 W/m 11,7 C 14,2 C 4,8 km/h (1 Bft) 97,37 %
20.05.2019 19:32 14,2 C 17,2 C 13,9 C 85 % 1000,9 hPa 0,0 l/m 3,0 km/h (1 Bft) W-SW 246 0 min 0,000 mm 0,0 UV-I 24 W/m 11,7 C 14,2 C 4,8 km/h (1 Bft) 94,00 %
20.05.2019 19:34 14,2 C 17,2 C 13,9 C 85 % 1000,9 hPa 0,0 l/m 3,9 km/h (1 Bft) W-SW 244 0 min 0,000 mm 0,0 UV-I 23 W/m 11,7 C 14,2 C 6,4 km/h (2 Bft) 94,00 %
20.05.2019 19:36 14,1 C 17,2 C 13,9 C 85 % 1001,0 hPa 0,0 l/m 3,3 km/h (1 Bft) W-SW 244 0 min 0,000 mm 0,0 UV-I 23 W/m 11,6 C 14,1 C 4,8 km/h (1 Bft) 92,68 %
20.05.2019 19:39 14,1 C 17,2 C 13,9 C 85 % 1000,9 hPa 0,0 l/m 3,2 km/h (1 Bft) W-SW 250 0 min 0,000 mm 0,0 UV-I 22 W/m 11,6 C 14,1 C 6,4 km/h (2 Bft) 96,10 %
20.05.2019 19:40 14,1 C 17,2 C 13,9 C 85 % 1000,9 hPa 0,0 l/m 3,5 km/h (1 Bft) SW 234 0 min 0,000 mm 0,0 UV-I 19 W/m 11,6 C 14,1 C 4,8 km/h (1 Bft) 95,65 %
20.05.2019 19:42 14,1 C 17,2 C 13,9 C 85 % 1000,9 hPa 0,0 l/m 4,8 km/h (1 Bft) W-SW 249 0 min 0,000 mm 0,0 UV-I 19 W/m 11,6 C 14,1 C 8,0 km/h (2 Bft) 95,74 %
20.05.2019 19:44 14,0 C 17,2 C 13,9 C 85 % 1001,0 hPa 0,0 l/m 4,0 km/h (1 Bft) W 268 0 min 0,000 mm 0,0 UV-I 18 W/m 11,5 C 14,0 C 6,4 km/h (2 Bft) 95,74 %
20.05.2019 19:46 14,0 C 17,2 C 13,9 C 85 % 1000,9 hPa 0,0 l/m 3,5 km/h (1 Bft) W-SW 254 0 min 0,000 mm 0,0 UV-I 18 W/m 11,5 C 14,0 C 6,4 km/h (2 Bft) 97,87 %
20.05.2019 19:48 13,9 C 17,2 C 13,9 C 86 % 1001,0 hPa 0,0 l/m 4,9 km/h (1 Bft) SW 234 0 min 0,000 mm 0,0 UV-I 16 W/m 11,6 C 13,9 C 6,4 km/h (2 Bft) 97,87 %
20.05.2019 19:50 13,9 C 17,2 C 13,9 C 85 % 1001,0 hPa 0,0 l/m 5,0 km/h (1 Bft) SW 232 0 min 0,000 mm 0,0 UV-I 16 W/m 11,4 C 13,9 C 6,4 km/h (2 Bft) 97,44 %
20.05.2019 19:52 13,9 C 17,2 C 13,9 C 85 % 1001,0 hPa 0,0 l/m 5,2 km/h (1 Bft) W-SW 238 0 min 0,000 mm 0,0 UV-I 16 W/m 11,4 C 13,9 C 6,4 km/h (2 Bft) 97,87 %
20.05.2019 19:54 13,9 C 17,2 C 13,9 C 85 % 1001,0 hPa 0,0 l/m 4,1 km/h (1 Bft) W-SW 241 0 min 0,000 mm 0,0 UV-I 15 W/m 11,4 C 13,9 C 6,4 km/h (2 Bft) 100,00 %
20.05.2019 19:56 13,9 C 17,2 C 13,9 C 86 % 1001,0 hPa 0,0 l/m 4,4 km/h (1 Bft) W-SW 241 0 min 0,000 mm 0,0 UV-I 13 W/m 11,6 C 13,9 C 4,8 km/h (1 Bft) 100,00 %
20.05.2019 19:58 13,8 C 17,2 C 13,9 C 86 % 1001,1 hPa 0,0 l/m 4,5 km/h (1 Bft) SW 234 0 min 0,000 mm 0,0 UV-I 12 W/m 11,5 C 13,8 C 6,4 km/h (2 Bft) 97,37 %
20.05.2019 20:00 13,8 C 17,2 C 13,9 C 86 % 1001,1 hPa 0,0 l/m 5,5 km/h (1 Bft) SW 236 0 min 0,000 mm 0,0 UV-I 11 W/m 11,5 C 13,8 C 9,7 km/h (2 Bft) 98,21 %
20.05.2019 20:02 13,8 C 17,2 C 13,9 C 86 % 1001,2 hPa 0,0 l/m 5,5 km/h (1 Bft) S-SW 200 0 min 0,026 mm 0,0 UV-I 11 W/m 11,5 C 13,8 C 8,0 km/h (2 Bft) 97,56 %
20.05.2019 20:04 13,8 C 17,2 C 13,3 C 86 % 1001,2 hPa 0,0 l/m 12,7 km/h (3 Bft) SW 217 0 min 0,000 mm 0,0 UV-I 11 W/m 11,5 C 10,6 C 22,5 km/h (4 Bft) 97,73 %
20.05.2019 20:06 13,8 C 17,2 C 13,3 C 83 % 1001,2 hPa 0,0 l/m 14,8 km/h (3 Bft) SW 222 0 min 0,000 mm 0,0 UV-I 10 W/m 11,0 C 9,8 C 20,9 km/h (4 Bft) 95,74 %
20.05.2019 20:08 13,9 C 17,2 C 13,3 C 82 % 1001,2 hPa 0,0 l/m 9,4 km/h (2 Bft) SW 217 0 min 0,000 mm 0,0 UV-I 9 W/m 10,9 C 12,2 C 19,3 km/h (3 Bft) 98,11 %
20.05.2019 20:10 13,9 C 17,2 C 13,3 C 80 % 1001,1 hPa 0,0 l/m 16,8 km/h (3 Bft) SW 229 0 min 0,000 mm 0,0 UV-I 9 W/m 10,5 C 9,3 C 25,7 km/h (4 Bft) 97,37 %
20.05.2019 20:12 13,9 C 17,2 C 13,3 C 80 % 1001,1 hPa 0,0 l/m 13,5 km/h (3 Bft) W 273 0 min 0,000 mm 0,0 UV-I 9 W/m 10,5 C 10,4 C 19,3 km/h (3 Bft) 98,11 %
20.05.2019 20:14 13,9 C 17,2 C 13,3 C 79 % 1001,1 hPa 0,0 l/m 12,1 km/h (2 Bft) W-SW 248 0 min 0,000 mm 0,0 UV-I 7 W/m 10,3 C 11,0 C 17,7 km/h (3 Bft) 97,56 %
20.05.2019 20:16 13,9 C 17,2 C 13,3 C 79 % 1001,1 hPa 0,0 l/m 11,0 km/h (2 Bft) W 271 0 min 0,000 mm 0,0 UV-I 7 W/m 10,3 C 11,4 C 19,3 km/h (3 Bft) 98,00 %
20.05.2019 20:18 13,8 C 17,2 C 13,3 C 79 % 1001,1 hPa 0,0 l/m 9,2 km/h (2 Bft) W-SW 255 0 min 0,000 mm 0,0 UV-I 7 W/m 10,2 C 12,2 C 17,7 km/h (3 Bft) 96,23 %
20.05.2019 20:20 13,8 C 17,2 C 13,3 C 78 % 1001,1 hPa 0,0 l/m 8,0 km/h (2 Bft) W 266 0 min 0,000 mm 0,0 UV-I 7 W/m 10,0 C 12,8 C 12,9 km/h (3 Bft) 97,22 %
20.05.2019 20:22 13,8 C 17,2 C 13,3 C 79 % 1001,0 hPa 0,0 l/m 9,4 km/h (2 Bft) W 273 0 min 0,000 mm 0,0 UV-I 7 W/m 10,2 C 12,1 C 12,9 km/h (3 Bft) 98,18 %
20.05.2019 20:24 13,8 C 17,2 C 13,3 C 79 % 1001,1 hPa 0,0 l/m 10,1 km/h (2 Bft) W 267 0 min 0,000 mm 0,0 UV-I 7 W/m 10,2 C 11,7 C 16,1 km/h (3 Bft) 98,04 %
20.05.2019 20:26 13,7 C 17,2 C 12,8 C 79 % 1001,1 hPa 0,0 l/m 9,0 km/h (2 Bft) W 262 0 min 0,000 mm 0,0 UV-I 7 W/m 10,1 C 12,2 C 14,5 km/h (3 Bft) 97,73 %
20.05.2019 20:28 13,7 C 17,2 C 12,8 C 79 % 1001,1 hPa 0,0 l/m 9,5 km/h (2 Bft) W-SW 238 0 min 0,000 mm 0,0 UV-I 7 W/m 10,1 C 11,9 C 14,5 km/h (3 Bft) 97,73 %
20.05.2019 20:30 13,6 C 17,2 C 12,8 C 79 % 1001,2 hPa 0,0 l/m 6,0 km/h (2 Bft) W 267 0 min 0,000 mm 0,0 UV-I 6 W/m 10,0 C 13,6 C 11,3 km/h (2 Bft) 97,56 %
20.05.2019 20:32 13,6 C 17,2 C 12,8 C 80 % 1001,2 hPa 0,0 l/m 7,0 km/h (2 Bft) W-SW 253 0 min 0,000 mm 0,0 UV-I 5 W/m 10,2 C 13,2 C 9,7 km/h (2 Bft) 98,21 %
20.05.2019 20:34 13,5 C 17,2 C 12,8 C 80 % 1001,2 hPa 0,0 l/m 7,7 km/h (2 Bft) W 277 0 min 0,000 mm 0,0 UV-I 5 W/m 10,1 C 12,7 C 11,3 km/h (2 Bft) 97,56 %
20.05.2019 20:36 13,4 C 17,2 C 12,8 C 80 % 1001,1 hPa 0,0 l/m 8,5 km/h (2 Bft) W-NW 289 0 min 0,000 mm 0,0 UV-I 5 W/m 10,0 C 12,1 C 16,1 km/h (3 Bft) 97,87 %
20.05.2019 20:38 13,4 C 17,2 C 12,8 C 80 % 1001,1 hPa 0,0 l/m 10,6 km/h (2 Bft) W 278 0 min 0,000 mm 0,0 UV-I 5 W/m 10,0 C 11,1 C 17,7 km/h (3 Bft) 94,34 %
20.05.2019 20:40 13,4 C 17,2 C 12,8 C 80 % 1001,2 hPa 0,0 l/m 7,3 km/h (2 Bft) W-SW 248 0 min 0,000 mm 0,0 UV-I 5 W/m 10,0 C 12,8 C 14,5 km/h (3 Bft) 100,00 %
20.05.2019 20:42 13,4 C 17,2 C 12,8 C 81 % 1001,2 hPa 0,0 l/m 5,6 km/h (1 Bft) W 262 0 min 0,000 mm 0,0 UV-I 1 W/m 10,2 C 13,4 C 9,7 km/h (2 Bft) 93,62 %
20.05.2019 20:44 13,3 C 17,2 C 12,8 C 81 % 1001,2 hPa 0,0 l/m 7,7 km/h (2 Bft) W 269 0 min 0,000 mm 0,0 UV-I 0 W/m 10,1 C 12,5 C 16,1 km/h (3 Bft) 93,62 %
20.05.2019 20:46 13,3 C 17,2 C 12,8 C 81 % 1001,3 hPa 0,0 l/m 8,9 km/h (2 Bft) W 259 0 min 0,000 mm 0,0 UV-I 0 W/m 10,1 C 11,8 C 14,5 km/h (3 Bft) 96,00 %
20.05.2019 20:48 13,3 C 17,2 C 12,8 C 82 % 1001,2 hPa 0,0 l/m 6,5 km/h (2 Bft) W 276 0 min 0,000 mm 0,0 UV-I 0 W/m 10,3 C 13,3 C 12,9 km/h (3 Bft) 96,00 %
20.05.2019 20:50 13,3 C 17,2 C 12,8 C 82 % 1001,3 hPa 0,0 l/m 6,2 km/h (2 Bft) W 263 0 min 0,000 mm 0,0 UV-I 0 W/m 10,3 C 13,3 C 11,3 km/h (2 Bft) 94,00 %
20.05.2019 20:52 13,2 C 17,2 C 12,8 C 83 % 1001,3 hPa 0,0 l/m 7,4 km/h (2 Bft) W 270 0 min 0,000 mm 0,0 UV-I 0 W/m 10,4 C 12,6 C 11,3 km/h (2 Bft) 95,45 %
20.05.2019 20:54 13,2 C 17,2 C 12,8 C 83 % 1001,3 hPa 0,0 l/m 5,8 km/h (2 Bft) W 262 0 min 0,000 mm 0,0 UV-I 0 W/m 10,4 C 13,2 C 11,3 km/h (2 Bft) 95,83 %
20.05.2019 20:56 13,2 C 17,2 C 12,8 C 83 % 1001,3 hPa 0,0 l/m 6,3 km/h (2 Bft) W 261 0 min 0,000 mm 0,0 UV-I 0 W/m 10,4 C 13,2 C 11,3 km/h (2 Bft) 96,00 %
20.05.2019 20:58 13,2 C 17,2 C 12,8 C 83 % 1001,4 hPa 0,0 l/m 6,7 km/h (2 Bft) W-SW 252 0 min 0,000 mm 0,0 UV-I 0 W/m 10,4 C 13,0 C 11,3 km/h (2 Bft) 94,74 %
20.05.2019 21:00 13,3 C 17,2 C 12,8 C 82 % 1001,4 hPa 0,0 l/m 10,5 km/h (2 Bft) W 264 0 min 0,000 mm 0,0 UV-I 0 W/m 10,3 C 11,0 C 16,1 km/h (3 Bft) 94,34 %
20.05.2019 21:02 13,3 C 17,2 C 12,8 C 82 % 1001,4 hPa 0,0 l/m 8,4 km/h (2 Bft) W 263 0 min 0,025 mm 0,0 UV-I 0 W/m 10,3 C 12,1 C 12,9 km/h (3 Bft) 97,37 %
20.05.2019 21:04 13,2 C 17,2 C 12,8 C 83 % 1001,4 hPa 0,0 l/m 6,0 km/h (2 Bft) W 269 0 min 0,000 mm 0,0 UV-I 0 W/m 10,4 C 13,2 C 9,7 km/h (2 Bft) 94,00 %
20.05.2019 21:06 13,2 C 17,2 C 12,8 C 83 % 1001,5 hPa 0,0 l/m 4,9 km/h (1 Bft) W 265 0 min 0,000 mm 0,0 UV-I 0 W/m 10,4 C 13,2 C 6,4 km/h (2 Bft) 97,56 %
20.05.2019 21:08 13,2 C 17,2 C 12,8 C 83 % 1001,4 hPa 0,0 l/m 4,6 km/h (1 Bft) W 267 0 min 0,000 mm 0,0 UV-I 0 W/m 10,4 C 13,2 C 6,4 km/h (2 Bft) 100,00 %
20.05.2019 21:10 13,2 C 17,2 C 12,8 C 83 % 1001,5 hPa 0,0 l/m 5,8 km/h (2 Bft) W-SW 247 0 min 0,000 mm 0,0 UV-I 0 W/m 10,4 C 13,2 C 8,0 km/h (2 Bft) 100,00 %
20.05.2019 21:12 13,2 C 17,2 C 12,8 C 83 % 1001,5 hPa 0,0 l/m 6,7 km/h (2 Bft) W-SW 256 0 min 0,000 mm 0,0 UV-I 0 W/m 10,4 C 13,0 C 11,3 km/h (2 Bft) 97,56 %
20.05.2019 21:14 13,2 C 17,2 C 12,8 C 83 % 1001,5 hPa 0,0 l/m 7,4 km/h (2 Bft) W 267 0 min 0,000 mm 0,0 UV-I 0 W/m 10,4 C 12,6 C 11,3 km/h (2 Bft) 100,00 %
20.05.2019 21:16 13,1 C 17,2 C 12,8 C 83 % 1001,6 hPa 0,0 l/m 6,6 km/h (2 Bft) W-SW 250 0 min 0,000 mm 0,0 UV-I 0 W/m 10,3 C 13,0 C 11,3 km/h (2 Bft) 100,00 %
20.05.2019 21:18 13,1 C 17,2 C 12,8 C 83 % 1001,7 hPa 0,0 l/m 8,4 km/h (2 Bft) SW 229 0 min 0,000 mm 0,0 UV-I 0 W/m 10,3 C 11,9 C 12,9 km/h (3 Bft) 98,00 %
20.05.2019 21:20 13,1 C 17,2 C 12,8 C 83 % 1001,7 hPa 0,0 l/m 5,6 km/h (1 Bft) SW 227 0 min 0,000 mm 0,0 UV-I 0 W/m 10,3 C 13,1 C 9,7 km/h (2 Bft) 98,00 %
20.05.2019 21:22 13,1 C 17,2 C 12,8 C 83 % 1001,7 hPa 0,0 l/m 7,6 km/h (2 Bft) W-SW 238 0 min 0,000 mm 0,0 UV-I 0 W/m 10,3 C 12,3 C 11,3 km/h (2 Bft) 97,56 %
20.05.2019 21:24 13,1 C 17,2 C 12,2 C 83 % 1001,7 hPa 0,0 l/m 4,8 km/h (1 Bft) W-SW 245 0 min 0,000 mm 0,0 UV-I 0 W/m 10,3 C 13,1 C 6,4 km/h (2 Bft) 98,00 %
20.05.2019 21:26 13,1 C 17,2 C 12,2 C 83 % 1001,7 hPa 0,0 l/m 4,4 km/h (1 Bft) W-SW 250 0 min 0,000 mm 0,0 UV-I 0 W/m 10,3 C 13,1 C 6,4 km/h (2 Bft) 95,45 %
20.05.2019 21:28 13,1 C 17,2 C 12,2 C 83 % 1001,7 hPa 0,0 l/m 5,0 km/h (1 Bft) SW 230 0 min 0,000 mm 0,0 UV-I 0 W/m 10,3 C 13,1 C 8,0 km/h (2 Bft) 98,00 %
20.05.2019 21:30 13,0 C 17,2 C 12,2 C 84 % 1001,8 hPa 0,0 l/m 5,9 km/h (2 Bft) W-SW 241 0 min 0,000 mm 0,0 UV-I 0 W/m 10,4 C 13,0 C 8,0 km/h (2 Bft) 97,44 %
20.05.2019 21:32 12,9 C 17,2 C 12,2 C 84 % 1001,8 hPa 0,0 l/m 5,7 km/h (1 Bft) SW 232 0 min 0,000 mm 0,0 UV-I 0 W/m 10,3 C 12,9 C 8,0 km/h (2 Bft) 98,00 %
20.05.2019 21:34 12,9 C 17,2 C 12,2 C 84 % 1001,8 hPa 0,0 l/m 4,3 km/h (1 Bft) SW 225 0 min 0,000 mm 0,0 UV-I 0 W/m 10,3 C 12,9 C 6,4 km/h (2 Bft) 95,74 %
20.05.2019 21:36 12,9 C 17,2 C 12,2 C 84 % 1001,8 hPa 0,0 l/m 3,7 km/h (1 Bft) SW 230 0 min 0,000 mm 0,0 UV-I 0 W/m 10,3 C 12,9 C 6,4 km/h (2 Bft) 96,23 %
20.05.2019 21:38 12,9 C 17,2 C 12,2 C 85 % 1001,9 hPa 0,0 l/m 3,9 km/h (1 Bft) SW 230 0 min 0,000 mm 0,0 UV-I 0 W/m 10,4 C 12,9 C 4,8 km/h (1 Bft) 97,56 %
20.05.2019 21:40 12,8 C 17,2 C 12,2 C 85 % 1001,8 hPa 0,0 l/m 3,4 km/h (1 Bft) SW 231 0 min 0,000 mm 0,0 UV-I 0 W/m 10,3 C 12,8 C 4,8 km/h (1 Bft) 96,00 %
20.05.2019 21:42 12,8 C 17,2 C 12,2 C 85 % 1001,8 hPa 0,0 l/m 3,5 km/h (1 Bft) SW 232 0 min 0,000 mm 0,0 UV-I 0 W/m 10,3 C 12,8 C 4,8 km/h (1 Bft) 97,87 %
20.05.2019 21:44 12,8 C 17,2 C 12,2 C 85 % 1001,8 hPa 0,0 l/m 3,7 km/h (1 Bft) SW 234 0 min 0,000 mm 0,0 UV-I 0 W/m 10,3 C 12,8 C 6,4 km/h (2 Bft) 98,00 %
20.05.2019 21:46 12,8 C 17,2 C 12,2 C 85 % 1001,8 hPa 0,0 l/m 4,6 km/h (1 Bft) SW 231 0 min 0,000 mm 0,0 UV-I 0 W/m 10,3 C 12,8 C 6,4 km/h (2 Bft) 97,87 %
20.05.2019 21:48 12,7 C 17,2 C 12,2 C 86 % 1001,8 hPa 0,0 l/m 2,7 km/h (1 Bft) SW 231 0 min 0,000 mm 0,0 UV-I 0 W/m 10,4 C 12,7 C 4,8 km/h (1 Bft) 97,73 %
20.05.2019 21:50 12,7 C 17,2 C 12,2 C 86 % 1001,8 hPa 0,0 l/m 2,0 km/h (1 Bft) SW 231 0 min 0,000 mm 0,0 UV-I 0 W/m 10,4 C 12,7 C 3,2 km/h (1 Bft) 96,00 %
20.05.2019 21:52 12,6 C 17,2 C 12,2 C 88 % 1001,8 hPa 0,0 l/m 1,3 km/h (1 Bft) SW 231 0 min 0,000 mm 0,0 UV-I 0 W/m 10,7 C 12,6 C 3,2 km/h (1 Bft) 100,00 %
20.05.2019 21:54 12,6 C 17,2 C 12,2 C 88 % 1001,7 hPa 0,0 l/m 2,3 km/h (1 Bft) SW 231 0 min 0,000 mm 0,0 UV-I 0 W/m 10,7 C 12,6 C 3,2 km/h (1 Bft) 98,21 %
20.05.2019 21:56 12,5 C 17,2 C 12,2 C 89 % 1001,8 hPa 0,0 l/m 2,0 km/h (1 Bft) SW 231 0 min 0,000 mm 0,0 UV-I 0 W/m 10,7 C 12,5 C 3,2 km/h (1 Bft) 100,00 %
20.05.2019 21:58 12,4 C 17,2 C 12,2 C 89 % 1001,7 hPa 0,0 l/m 1,1 km/h (1 Bft) SW 231 0 min 0,000 mm 0,0 UV-I 0 W/m 10,6 C 12,4 C 1,6 km/h (1 Bft) 100,00 %
20.05.2019 22:00 12,4 C 17,2 C 11,7 C 89 % 1001,7 hPa 0,0 l/m 2,2 km/h (1 Bft) S-SW 209 0 min 0,000 mm 0,0 UV-I 0 W/m 10,6 C 12,4 C 4,8 km/h (1 Bft) 98,11 %
20.05.2019 22:02 12,3 C 17,2 C 11,7 C 90 % 1001,7 hPa 0,0 l/m 3,5 km/h (1 Bft) SW 223 0 min 0,000 mm 0,0 UV-I 0 W/m 10,7 C 12,3 C 6,4 km/h (2 Bft) 100,00 %
20.05.2019 22:04 12,3 C 17,2 C 11,7 C 90 % 1001,7 hPa 0,0 l/m 3,0 km/h (1 Bft) SW 223 0 min 0,000 mm 0,0 UV-I 0 W/m 10,7 C 12,3 C 4,8 km/h (1 Bft) 100,00 %
20.05.2019 22:06 12,3 C 17,2 C 11,7 C 90 % 1001,7 hPa 0,0 l/m 2,3 km/h (1 Bft) SW 223 0 min 0,000 mm 0,0 UV-I 0 W/m 10,7 C 12,3 C 3,2 km/h (1 Bft) 100,00 %
20.05.2019 22:08 12,3 C 17,2 C 11,7 C 90 % 1001,6 hPa 0,0 l/m 3,3 km/h (1 Bft) SW 223 0 min 0,000 mm 0,0 UV-I 0 W/m 10,7 C 12,3 C 4,8 km/h (1 Bft) 97,44 %
20.05.2019 22:10 12,3 C 17,2 C 11,7 C 90 % 1001,7 hPa 0,0 l/m 3,5 km/h (1 Bft) S-SW 209 0 min 0,000 mm 0,0 UV-I 0 W/m 10,7 C 12,3 C 6,4 km/h (2 Bft) 93,62 %
20.05.2019 22:12 12,2 C 17,2 C 11,7 C 90 % 1001,7 hPa 0,0 l/m 3,5 km/h (1 Bft) S-SW 209 0 min 0,000 mm 0,0 UV-I 0 W/m 10,6 C 12,2 C 4,8 km/h (1 Bft) 97,87 %
20.05.2019 22:14 12,2 C 17,2 C 11,7 C 91 % 1001,6 hPa 0,0 l/m 2,9 km/h (1 Bft) S-SW 209 0 min 0,000 mm 0,0 UV-I 0 W/m 10,8 C 12,2 C 4,8 km/h (1 Bft) 96,23 %
20.05.2019 22:16 12,2 C 17,2 C 11,7 C 91 % 1001,6 hPa 0,0 l/m 3,2 km/h (1 Bft) S-SW 209 0 min 0,000 mm 0,0 UV-I 0 W/m 10,8 C 12,2 C 4,8 km/h (1 Bft) 100,00 %
20.05.2019 22:18 12,3 C 17,2 C 11,7 C 91 % 1001,6 hPa 0,0 l/m 3,1 km/h (1 Bft) S-SW 209 0 min 0,000 mm 0,0 UV-I 0 W/m 10,9 C 12,3 C 4,8 km/h (1 Bft) 96,23 %
20.05.2019 22:20 12,2 C 17,2 C 11,7 C 91 % 1001,6 hPa 0,0 l/m 3,5 km/h (1 Bft) S-SW 204 0 min 0,000 mm 0,0 UV-I 0 W/m 10,8 C 12,2 C 6,4 km/h (2 Bft) 97,37 %
20.05.2019 22:22 12,3 C 17,2 C 11,7 C 91 % 1001,6 hPa 0,0 l/m 3,0 km/h (1 Bft) S-SW 204 0 min 0,000 mm 0,0 UV-I 0 W/m 10,9 C 12,3 C 4,8 km/h (1 Bft) 98,00 %
20.05.2019 22:24 12,3 C 17,2 C 11,7 C 91 % 1001,6 hPa 0,0 l/m 2,3 km/h (1 Bft) S-SW 205 0 min 0,000 mm 0,0 UV-I 0 W/m 10,9 C 12,3 C 4,8 km/h (1 Bft) 98,21 %
20.05.2019 22:26 12,3 C 17,2 C 11,7 C 91 % 1001,6 hPa 0,0 l/m 2,8 km/h (1 Bft) S-SW 205 0 min 0,000 mm 0,0 UV-I 0 W/m 10,9 C 12,3 C 4,8 km/h (1 Bft) 97,37 %
20.05.2019 22:28 12,2 C 17,2 C 11,7 C 91 % 1001,6 hPa 0,0 l/m 6,3 km/h (2 Bft) S-SW 209 0 min 0,000 mm 0,0 UV-I 0 W/m 10,8 C 12,2 C 9,7 km/h (2 Bft) 97,87 %
20.05.2019 22:30 12,2 C 17,2 C 11,7 C 91 % 1001,6 hPa 0,0 l/m 5,5 km/h (1 Bft) SW 223 0 min 0,000 mm 0,0 UV-I 0 W/m 10,8 C 12,2 C 8,0 km/h (2 Bft) 98,00 %
20.05.2019 22:32 12,2 C 17,2 C 11,7 C 91 % 1001,6 hPa 0,0 l/m 3,9 km/h (1 Bft) SW 223 0 min 0,000 mm 0,0 UV-I 0 W/m 10,8 C 12,2 C 6,4 km/h (2 Bft) 100,00 %
20.05.2019 22:34 12,2 C 17,2 C 11,7 C 91 % 1001,6 hPa 0,0 l/m 3,5 km/h (1 Bft) SW 222 0 min 0,000 mm 0,0 UV-I 0 W/m 10,8 C 12,2 C 6,4 km/h (2 Bft) 97,87 %
20.05.2019 22:36 12,2 C 17,2 C 11,7 C 91 % 1001,5 hPa 0,0 l/m 3,3 km/h (1 Bft) SW 222 0 min 0,000 mm 0,0 UV-I 0 W/m 10,8 C 12,2 C 6,4 km/h (2 Bft) 100,00 %
20.05.2019 22:38 12,1 C 17,2 C 11,7 C 91 % 1001,5 hPa 0,0 l/m 3,0 km/h (1 Bft) SW 222 0 min 0,000 mm 0,0 UV-I 0 W/m 10,7 C 12,1 C 4,8 km/h (1 Bft) 100,00 %
20.05.2019 22:40 12,1 C 17,2 C 11,7 C 91 % 1001,5 hPa 0,0 l/m 3,3 km/h (1 Bft) SW 222 0 min 0,000 mm 0,0 UV-I 0 W/m 10,7 C 12,1 C 4,8 km/h (1 Bft) 100,00 %
20.05.2019 22:42 12,1 C 17,2 C 11,7 C 92 % 1001,5 hPa 0,0 l/m 3,3 km/h (1 Bft) SW 222 0 min 0,000 mm 0,0 UV-I 0 W/m 10,8 C 12,1 C 4,8 km/h (1 Bft) 100,00 %
20.05.2019 22:44 12,1 C 17,2 C 11,7 C 92 % 1001,5 hPa 0,0 l/m 1,9 km/h (1 Bft) SW 222 0 min 0,000 mm 0,0 UV-I 0 W/m 10,8 C 12,1 C 3,2 km/h (1 Bft) 98,00 %
20.05.2019 22:46 12,1 C 17,2 C 11,7 C 92 % 1001,4 hPa 0,0 l/m 2,9 km/h (1 Bft) SW 222 0 min 0,000 mm 0,0 UV-I 0 W/m 10,8 C 12,1 C 4,8 km/h (1 Bft) 100,00 %
20.05.2019 22:48 12,1 C 17,2 C 11,7 C 92 % 1001,5 hPa 0,2 l/m 3,4 km/h (1 Bft) S-SW 209 0 min 0,000 mm 0,0 UV-I 0 W/m 10,8 C 12,1 C 6,4 km/h (2 Bft) 100,00 %
20.05.2019 22:50 12,1 C 17,2 C 11,7 C 92 % 1001,5 hPa 0,0 l/m 3,5 km/h (1 Bft) S 187 0 min 0,000 mm 0,0 UV-I 0 W/m 10,8 C 12,1 C 4,8 km/h (1 Bft) 97,37 %
20.05.2019 22:52 12,1 C 17,2 C 11,7 C 92 % 1001,5 hPa 0,0 l/m 4,2 km/h (1 Bft) S-SW 203 0 min 0,000 mm 0,0 UV-I 0 W/m 10,8 C 12,1 C 6,4 km/h (2 Bft) 100,00 %
20.05.2019 22:54 12,1 C 17,2 C 11,7 C 92 % 1001,6 hPa 0,0 l/m 5,2 km/h (1 Bft) S-SW 197 0 min 0,000 mm 0,0 UV-I 0 W/m 10,8 C 12,1 C 9,7 km/h (2 Bft) 93,62 %
20.05.2019 22:56 12,1 C 17,2 C 11,7 C 92 % 1001,5 hPa 0,0 l/m 4,9 km/h (1 Bft) SW 215 0 min 0,000 mm 0,0 UV-I 0 W/m 10,8 C 12,1 C 8,0 km/h (2 Bft) 96,00 %
20.05.2019 22:58 12,0 C 17,2 C 11,7 C 92 % 1001,5 hPa 0,0 l/m 6,6 km/h (2 Bft) S-SW 199 0 min 0,000 mm 0,0 UV-I 0 W/m 10,7 C 11,9 C 9,7 km/h (2 Bft) 97,73 %
20.05.2019 23:00 12,1 C 17,2 C 11,7 C 92 % 1001,5 hPa 0,0 l/m 6,8 km/h (2 Bft) S 185 0 min 0,000 mm 0,0 UV-I 0 W/m 10,8 C 11,8 C 9,7 km/h (2 Bft) 97,56 %
20.05.2019 23:02 12,1 C 17,2 C 11,7 C 93 % 1001,5 hPa 0,0 l/m 6,6 km/h (2 Bft) S 178 0 min 0,000 mm 0,0 UV-I 0 W/m 11,0 C 12,0 C 9,7 km/h (2 Bft) 100,00 %
20.05.2019 23:04 12,1 C 17,2 C 11,7 C 93 % 1001,5 hPa 0,0 l/m 7,0 km/h (2 Bft) S-SW 201 0 min 0,000 mm 0,0 UV-I 0 W/m 11,0 C 11,7 C 11,3 km/h (2 Bft) 100,00 %
20.05.2019 23:06 12,0 C 17,2 C 11,7 C 93 % 1001,5 hPa 0,2 l/m 4,4 km/h (1 Bft) S 176 0 min 0,000 mm 0,0 UV-I 0 W/m 10,9 C 12,0 C 6,4 km/h (2 Bft) 97,87 %
20.05.2019 23:08 12,0 C 17,2 C 11,7 C 93 % 1001,5 hPa 0,0 l/m 4,1 km/h (1 Bft) S-SW 196 0 min 0,000 mm 0,0 UV-I 0 W/m 10,9 C 12,0 C 8,0 km/h (2 Bft) 100,00 %
20.05.2019 23:10 12,0 C 17,2 C 11,7 C 93 % 1001,5 hPa 0,0 l/m 5,1 km/h (1 Bft) S 190 0 min 0,000 mm 0,0 UV-I 0 W/m 10,9 C 12,0 C 8,0 km/h (2 Bft) 96,00 %
20.05.2019 23:12 12,0 C 17,2 C 11,7 C 93 % 1001,5 hPa 0,0 l/m 6,1 km/h (2 Bft) S-SW 206 0 min 0,000 mm 0,0 UV-I 0 W/m 10,9 C 12,0 C 9,7 km/h (2 Bft) 100,00 %
20.05.2019 23:14 11,9 C 17,2 C 11,7 C 93 % 1001,5 hPa 0,0 l/m 5,6 km/h (1 Bft) S-SW 197 0 min 0,000 mm 0,0 UV-I 0 W/m 10,8 C 11,9 C 9,7 km/h (2 Bft) 100,00 %
20.05.2019 23:16 12,0 C 17,2 C 11,7 C 94 % 1001,5 hPa 0,0 l/m 3,3 km/h (1 Bft) S 182 0 min 0,000 mm 0,0 UV-I 0 W/m 11,1 C 12,0 C 4,8 km/h (1 Bft) 97,92 %
20.05.2019 23:18 12,0 C 17,2 C 11,7 C 94 % 1001,5 hPa 0,0 l/m 4,6 km/h (1 Bft) S-SW 198 0 min 0,000 mm 0,0 UV-I 0 W/m 11,1 C 12,0 C 8,0 km/h (2 Bft) 100,00 %
20.05.2019 23:20 12,0 C 17,2 C 11,7 C 94 % 1001,5 hPa 0,0 l/m 3,7 km/h (1 Bft) S 175 0 min 0,000 mm 0,0 UV-I 0 W/m 11,1 C 12,0 C 4,8 km/h (1 Bft) 96,00 %
20.05.2019 23:22 12,1 C 17,2 C 11,7 C 94 % 1001,5 hPa 0,0 l/m 3,2 km/h (1 Bft) S 190 0 min 0,000 mm 0,0 UV-I 0 W/m 11,2 C 12,1 C 4,8 km/h (1 Bft) 97,22 %
20.05.2019 23:24 12,0 C 17,2 C 11,7 C 94 % 1001,5 hPa 0,0 l/m 4,7 km/h (1 Bft) S 188 0 min 0,000 mm 0,0 UV-I 0 W/m 11,1 C 12,0 C 8,0 km/h (2 Bft) 98,21 %
20.05.2019 23:26 12,0 C 17,2 C 12,2 C 94 % 1001,5 hPa 0,0 l/m 4,9 km/h (1 Bft) S 176 0 min 0,000 mm 0,0 UV-I 0 W/m 11,1 C 12,0 C 8,0 km/h (2 Bft) 97,87 %
20.05.2019 23:28 12,0 C 17,2 C 12,2 C 94 % 1001,5 hPa 0,0 l/m 5,4 km/h (1 Bft) S 177 0 min 0,000 mm 0,0 UV-I 0 W/m 11,1 C 12,0 C 8,0 km/h (2 Bft) 97,37 %
20.05.2019 23:30 12,0 C 17,2 C 12,2 C 94 % 1001,5 hPa 0,0 l/m 4,2 km/h (1 Bft) S-SO 163 0 min 0,000 mm 0,0 UV-I 0 W/m 11,1 C 12,0 C 8,0 km/h (2 Bft) 96,23 %
20.05.2019 23:32 12,0 C 17,2 C 11,7 C 94 % 1001,5 hPa 0,0 l/m 6,1 km/h (2 Bft) S-SO 156 0 min 0,000 mm 0,0 UV-I 0 W/m 11,1 C 12,0 C 8,0 km/h (2 Bft) 96,23 %
20.05.2019 23:34 12,0 C 17,2 C 12,2 C 94 % 1001,5 hPa 0,0 l/m 6,0 km/h (2 Bft) S-SO 167 0 min 0,000 mm 0,0 UV-I 0 W/m 11,1 C 12,0 C 8,0 km/h (2 Bft) 95,12 %
20.05.2019 23:36 12,1 C 17,2 C 12,2 C 94 % 1001,6 hPa 0,0 l/m 4,3 km/h (1 Bft) S 178 0 min 0,000 mm 0,0 UV-I 0 W/m 11,2 C 12,1 C 6,4 km/h (2 Bft) 93,62 %
20.05.2019 23:38 12,1 C 17,2 C 12,2 C 94 % 1001,6 hPa 0,0 l/m 4,6 km/h (1 Bft) S-SO 159 0 min 0,000 mm 0,0 UV-I 0 W/m 11,2 C 12,1 C 8,0 km/h (2 Bft) 93,18 %
20.05.2019 23:40 12,0 C 17,2 C 11,7 C 94 % 1001,7 hPa 0,0 l/m 6,3 km/h (2 Bft) S-SO 161 0 min 0,000 mm 0,0 UV-I 0 W/m 11,1 C 12,0 C 11,3 km/h (2 Bft) 96,00 %
20.05.2019 23:42 12,1 C 17,2 C 11,7 C 94 % 1001,7 hPa 0,0 l/m 4,7 km/h (1 Bft) S 173 0 min 0,000 mm 0,0 UV-I 0 W/m 11,2 C 12,1 C 8,0 km/h (2 Bft) 93,62 %
20.05.2019 23:44 12,1 C 17,2 C 12,2 C 94 % 1001,6 hPa 0,0 l/m 5,4 km/h (1 Bft) S-SO 165 0 min 0,000 mm 0,0 UV-I 0 W/m 11,2 C 12,1 C 8,0 km/h (2 Bft) 95,74 %
20.05.2019 23:46 12,1 C 17,2 C 11,7 C 94 % 1001,7 hPa 0,0 l/m 5,6 km/h (1 Bft) S-SO 166 0 min 0,000 mm 0,0 UV-I 0 W/m 11,2 C 12,1 C 6,4 km/h (2 Bft) 95,74 %
20.05.2019 23:48 12,1 C 17,2 C 11,7 C 94 % 1001,6 hPa 0,0 l/m 5,2 km/h (1 Bft) S-SO 167 0 min 0,000 mm 0,0 UV-I 0 W/m 11,2 C 12,1 C 6,4 km/h (2 Bft) 96,00 %
20.05.2019 23:50 12,1 C 17,2 C 11,7 C 94 % 1001,6 hPa 0,0 l/m 4,5 km/h (1 Bft) S-SO 167 0 min 0,000 mm 0,0 UV-I 0 W/m 11,2 C 12,1 C 6,4 km/h (2 Bft) 95,12 %
20.05.2019 23:52 12,1 C 17,2 C 12,2 C 94 % 1001,7 hPa 0,0 l/m 4,7 km/h (1 Bft) S-SO 167 0 min 0,000 mm 0,0 UV-I 0 W/m 11,2 C 12,1 C 6,4 km/h (2 Bft) 89,74 %
20.05.2019 23:54 12,1 C 17,2 C 12,2 C 94 % 1001,7 hPa 0,0 l/m 4,1 km/h (1 Bft) S-SO 167 0 min 0,000 mm 0,0 UV-I 0 W/m 11,2 C 12,1 C 4,8 km/h (1 Bft) 93,44 %
20.05.2019 23:56 12,0 C 17,2 C 12,2 C 94 % 1001,7 hPa 0,2 l/m 4,2 km/h (1 Bft) S-SO 158 0 min 0,000 mm 0,0 UV-I 0 W/m 11,1 C 12,0 C 6,4 km/h (2 Bft) 95,74 %
20.05.2019 23:58 12,1 C 17,2 C 12,2 C 94 % 1001,7 hPa 0,0 l/m 3,4 km/h (1 Bft) S-SO 158 0 min 0,000 mm 0,0 UV-I 0 W/m 11,2 C 12,1 C 4,8 km/h (1 Bft) 97,22 %
_ Min-Zeit 02:48 02:54 01:54 20:20 06:14 - 04:32 - - - - - - 02:48 20:10 04:32 23:52
Minimum _ 10,8 C 17,2 C 8,3 C 78 % 998,6 hPa - 0,0 km/h (0 Bft) - - - - - - 9,6 C 9,3 C 0,0 km/h (0 Bft) 89,74 %
_ Max-Zeit 17:38 00:00 17:22 11:32 21:38 08:20 20:10 - - 16:58 18:02 14:22 17:26 17:16 18:06 20:10 00:00
Maximum _ 15,6 C 17,8 C 20,6 C 95 % 1001,9 hPa 0,2 l/m 16,8 km/h
SW (3 Bft)
- - 2 min 0,203 mm 1,6 UV-I 423 W/m 12,9 C 15,3 C 25,7 km/h
W-SW (4 Bft)
100,00 %
Durchschnitt _ 12,9 C 17,3 C 13,4 C 90 % 1000,1 hPa #6,8 l/m 4,3 km/h (1 Bft) SW - #1:04 h #1,016 mm 0,9 UV-I 113 W/m 11,4 C 12,7 C 7,1 km/h (2 Bft) 97,46 %